<?xml version="1.0" encoding="UTF-8" standalone="no" ?>
<gpx xmlns="http://www.topografix.com/GPX/1/1" xmlns:xsi="http://www.w3.org/2001/XMLSchema-instance" xsi:schemaLocation="http://www.topografix.com/GPX/1/1 http://www.topografix.com/GPX/1/1/gpx.xsd" version="1.1" creator="VisuGPX - https://www.visugpx.com">
  <metadata>
    <name>Sortie trail Phoenix_V_L_F</name>
    <desc><![CDATA[Sortie GR6 sur la region de lanquais faux verdun ]]></desc>
  </metadata>
  <trk>
    <name><![CDATA[2012-05-13T08:02:08Z]]></name>
    <trkseg>
      <trkpt lat="44.80279" lon="0.6007">
        <ele>137.605835</ele>
        <time>2012-05-13T08:02:13Z</time>
      </trkpt>
      <trkpt lat="44.80279" lon="0.60084">
        <ele>137.1252441</ele>
        <time>2012-05-13T08:02:17Z</time>
      </trkpt>
      <trkpt lat="44.80282" lon="0.60101">
        <ele>137.1252441</ele>
        <time>2012-05-13T08:02:22Z</time>
      </trkpt>
      <trkpt lat="44.80283" lon="0.60118">
        <ele>136.6446533</ele>
        <time>2012-05-13T08:02:26Z</time>
      </trkpt>
      <trkpt lat="44.80288" lon="0.6014">
        <ele>133.760498</ele>
        <time>2012-05-13T08:02:32Z</time>
      </trkpt>
      <trkpt lat="44.80292" lon="0.60147">
        <ele>131.3572998</ele>
        <time>2012-05-13T08:02:34Z</time>
      </trkpt>
      <trkpt lat="44.80294" lon="0.60163">
        <ele>129.4346924</ele>
        <time>2012-05-13T08:02:38Z</time>
      </trkpt>
      <trkpt lat="44.80295" lon="0.6017">
        <ele>128.4733887</ele>
        <time>2012-05-13T08:02:40Z</time>
      </trkpt>
      <trkpt lat="44.803" lon="0.60191">
        <ele>125.5893555</ele>
        <time>2012-05-13T08:02:46Z</time>
      </trkpt>
      <trkpt lat="44.80303" lon="0.6022">
        <ele>124.6280518</ele>
        <time>2012-05-13T08:02:53Z</time>
      </trkpt>
      <trkpt lat="44.80306" lon="0.6024">
        <ele>125.1087646</ele>
        <time>2012-05-13T08:02:58Z</time>
      </trkpt>
      <trkpt lat="44.80309" lon="0.60256">
        <ele>125.1087646</ele>
        <time>2012-05-13T08:03:02Z</time>
      </trkpt>
      <trkpt lat="44.80312" lon="0.60276">
        <ele>124.6280518</ele>
        <time>2012-05-13T08:03:07Z</time>
      </trkpt>
      <trkpt lat="44.80314" lon="0.60288">
        <ele>124.6280518</ele>
        <time>2012-05-13T08:03:10Z</time>
      </trkpt>
      <trkpt lat="44.80315" lon="0.60292">
        <ele>124.6280518</ele>
        <time>2012-05-13T08:03:11Z</time>
      </trkpt>
      <trkpt lat="44.8032" lon="0.60318">
        <ele>123.1861572</ele>
        <time>2012-05-13T08:03:18Z</time>
      </trkpt>
      <trkpt lat="44.80321" lon="0.60322">
        <ele>123.1861572</ele>
        <time>2012-05-13T08:03:19Z</time>
      </trkpt>
      <trkpt lat="44.80322" lon="0.6034">
        <ele>123.1861572</ele>
        <time>2012-05-13T08:03:24Z</time>
      </trkpt>
      <trkpt lat="44.80326" lon="0.6036">
        <ele>122.2247314</ele>
        <time>2012-05-13T08:03:29Z</time>
      </trkpt>
      <trkpt lat="44.8033" lon="0.6038">
        <ele>121.2635498</ele>
        <time>2012-05-13T08:03:34Z</time>
      </trkpt>
      <trkpt lat="44.80331" lon="0.60384">
        <ele>120.302124</ele>
        <time>2012-05-13T08:03:35Z</time>
      </trkpt>
      <trkpt lat="44.80335" lon="0.60398">
        <ele>118.3793945</ele>
        <time>2012-05-13T08:03:39Z</time>
      </trkpt>
      <trkpt lat="44.80337" lon="0.60413">
        <ele>117.8988037</ele>
        <time>2012-05-13T08:03:43Z</time>
      </trkpt>
      <trkpt lat="44.80338" lon="0.60421">
        <ele>117.4182129</ele>
        <time>2012-05-13T08:03:45Z</time>
      </trkpt>
      <trkpt lat="44.80343" lon="0.60443">
        <ele>116.9375</ele>
        <time>2012-05-13T08:03:51Z</time>
      </trkpt>
      <trkpt lat="44.80346" lon="0.60459">
        <ele>116.4567871</ele>
        <time>2012-05-13T08:03:56Z</time>
      </trkpt>
      <trkpt lat="44.80349" lon="0.60477">
        <ele>117.4182129</ele>
        <time>2012-05-13T08:04:01Z</time>
      </trkpt>
      <trkpt lat="44.80352" lon="0.60493">
        <ele>118.8601074</ele>
        <time>2012-05-13T08:04:05Z</time>
      </trkpt>
      <trkpt lat="44.80354" lon="0.60511">
        <ele>119.3408203</ele>
        <time>2012-05-13T08:04:10Z</time>
      </trkpt>
      <trkpt lat="44.80357" lon="0.6053">
        <ele>122.2247314</ele>
        <time>2012-05-13T08:04:16Z</time>
      </trkpt>
      <trkpt lat="44.8036" lon="0.60548">
        <ele>126.0699463</ele>
        <time>2012-05-13T08:04:21Z</time>
      </trkpt>
      <trkpt lat="44.80362" lon="0.60567">
        <ele>128.4733887</ele>
        <time>2012-05-13T08:04:26Z</time>
      </trkpt>
      <trkpt lat="44.80364" lon="0.60585">
        <ele>130.876709</ele>
        <time>2012-05-13T08:04:31Z</time>
      </trkpt>
      <trkpt lat="44.80365" lon="0.60592">
        <ele>131.8378906</ele>
        <time>2012-05-13T08:04:33Z</time>
      </trkpt>
      <trkpt lat="44.80369" lon="0.60608">
        <ele>132.7993164</ele>
        <time>2012-05-13T08:04:38Z</time>
      </trkpt>
      <trkpt lat="44.80371" lon="0.60626">
        <ele>133.2799072</ele>
        <time>2012-05-13T08:04:43Z</time>
      </trkpt>
      <trkpt lat="44.80375" lon="0.6065">
        <ele>133.760498</ele>
        <time>2012-05-13T08:04:50Z</time>
      </trkpt>
      <trkpt lat="44.80379" lon="0.6067">
        <ele>134.7219238</ele>
        <time>2012-05-13T08:04:56Z</time>
      </trkpt>
      <trkpt lat="44.80381" lon="0.60688">
        <ele>136.6446533</ele>
        <time>2012-05-13T08:05:01Z</time>
      </trkpt>
      <trkpt lat="44.80383" lon="0.60703">
        <ele>137.605835</ele>
        <time>2012-05-13T08:05:05Z</time>
      </trkpt>
      <trkpt lat="44.80385" lon="0.6072">
        <ele>138.5672607</ele>
        <time>2012-05-13T08:05:10Z</time>
      </trkpt>
      <trkpt lat="44.80389" lon="0.60736">
        <ele>137.605835</ele>
        <time>2012-05-13T08:05:15Z</time>
      </trkpt>
      <trkpt lat="44.80391" lon="0.60752">
        <ele>138.5672607</ele>
        <time>2012-05-13T08:05:20Z</time>
      </trkpt>
      <trkpt lat="44.80393" lon="0.60764">
        <ele>138.0865479</ele>
        <time>2012-05-13T08:05:24Z</time>
      </trkpt>
      <trkpt lat="44.80394" lon="0.60771">
        <ele>138.0865479</ele>
        <time>2012-05-13T08:05:26Z</time>
      </trkpt>
      <trkpt lat="44.80395" lon="0.60783">
        <ele>137.605835</ele>
        <time>2012-05-13T08:05:30Z</time>
      </trkpt>
      <trkpt lat="44.804" lon="0.60804">
        <ele>136.6446533</ele>
        <time>2012-05-13T08:05:37Z</time>
      </trkpt>
      <trkpt lat="44.80402" lon="0.60821">
        <ele>133.760498</ele>
        <time>2012-05-13T08:05:42Z</time>
      </trkpt>
      <trkpt lat="44.80403" lon="0.60833">
        <ele>133.760498</ele>
        <time>2012-05-13T08:05:48Z</time>
      </trkpt>
      <trkpt lat="44.80403" lon="0.60839">
        <ele>134.7219238</ele>
        <time>2012-05-13T08:05:53Z</time>
      </trkpt>
      <trkpt lat="44.80408" lon="0.60864">
        <ele>135.6831055</ele>
        <time>2012-05-13T08:06:00Z</time>
      </trkpt>
      <trkpt lat="44.80411" lon="0.60884">
        <ele>137.1252441</ele>
        <time>2012-05-13T08:06:05Z</time>
      </trkpt>
      <trkpt lat="44.80415" lon="0.60903">
        <ele>138.5672607</ele>
        <time>2012-05-13T08:06:10Z</time>
      </trkpt>
      <trkpt lat="44.8042" lon="0.60926">
        <ele>140.970459</ele>
        <time>2012-05-13T08:06:16Z</time>
      </trkpt>
      <trkpt lat="44.80421" lon="0.60941">
        <ele>141.9317627</ele>
        <time>2012-05-13T08:06:20Z</time>
      </trkpt>
      <trkpt lat="44.80426" lon="0.60962">
        <ele>142.8930664</ele>
        <time>2012-05-13T08:06:26Z</time>
      </trkpt>
      <trkpt lat="44.80434" lon="0.60984">
        <ele>145.2963867</ele>
        <time>2012-05-13T08:06:32Z</time>
      </trkpt>
      <trkpt lat="44.80439" lon="0.61">
        <ele>145.2963867</ele>
        <time>2012-05-13T08:06:37Z</time>
      </trkpt>
      <trkpt lat="44.80442" lon="0.61014">
        <ele>146.2578125</ele>
        <time>2012-05-13T08:06:41Z</time>
      </trkpt>
      <trkpt lat="44.80449" lon="0.61034">
        <ele>145.2963867</ele>
        <time>2012-05-13T08:06:47Z</time>
      </trkpt>
      <trkpt lat="44.80455" lon="0.6105">
        <ele>144.3352051</ele>
        <time>2012-05-13T08:06:52Z</time>
      </trkpt>
      <trkpt lat="44.80461" lon="0.61067">
        <ele>142.8930664</ele>
        <time>2012-05-13T08:06:57Z</time>
      </trkpt>
      <trkpt lat="44.80463" lon="0.61072">
        <ele>141.9317627</ele>
        <time>2012-05-13T08:06:59Z</time>
      </trkpt>
      <trkpt lat="44.80465" lon="0.61082">
        <ele>141.4510498</ele>
        <time>2012-05-13T08:07:02Z</time>
      </trkpt>
      <trkpt lat="44.80472" lon="0.61098">
        <ele>140.4898682</ele>
        <time>2012-05-13T08:07:07Z</time>
      </trkpt>
      <trkpt lat="44.80478" lon="0.61121">
        <ele>140.0091553</ele>
        <time>2012-05-13T08:07:13Z</time>
      </trkpt>
      <trkpt lat="44.80484" lon="0.6114">
        <ele>139.5284424</ele>
        <time>2012-05-13T08:07:18Z</time>
      </trkpt>
      <trkpt lat="44.8049" lon="0.61159">
        <ele>137.605835</ele>
        <time>2012-05-13T08:07:23Z</time>
      </trkpt>
      <trkpt lat="44.80496" lon="0.6118">
        <ele>135.2025146</ele>
        <time>2012-05-13T08:07:28Z</time>
      </trkpt>
      <trkpt lat="44.80501" lon="0.61203">
        <ele>133.2799072</ele>
        <time>2012-05-13T08:07:33Z</time>
      </trkpt>
      <trkpt lat="44.80501" lon="0.61217">
        <ele>132.3186035</ele>
        <time>2012-05-13T08:07:36Z</time>
      </trkpt>
      <trkpt lat="44.80501" lon="0.61219">
        <ele>132.3186035</ele>
        <time>2012-05-13T08:07:37Z</time>
      </trkpt>
      <trkpt lat="44.80497" lon="0.61233">
        <ele>132.7993164</ele>
        <time>2012-05-13T08:07:42Z</time>
      </trkpt>
      <trkpt lat="44.80494" lon="0.6124">
        <ele>133.2799072</ele>
        <time>2012-05-13T08:07:44Z</time>
      </trkpt>
      <trkpt lat="44.80483" lon="0.61258">
        <ele>133.760498</ele>
        <time>2012-05-13T08:07:49Z</time>
      </trkpt>
      <trkpt lat="44.80481" lon="0.61261">
        <ele>133.760498</ele>
        <time>2012-05-13T08:07:50Z</time>
      </trkpt>
      <trkpt lat="44.80481" lon="0.61261">
        <ele>133.760498</ele>
        <time>2012-05-13T08:07:50Z</time>
      </trkpt>
      <trkpt lat="44.80471" lon="0.6128">
        <ele>134.2412109</ele>
        <time>2012-05-13T08:07:55Z</time>
      </trkpt>
      <trkpt lat="44.80464" lon="0.61293">
        <ele>135.6831055</ele>
        <time>2012-05-13T08:07:59Z</time>
      </trkpt>
      <trkpt lat="44.80457" lon="0.61305">
        <ele>136.6446533</ele>
        <time>2012-05-13T08:08:03Z</time>
      </trkpt>
      <trkpt lat="44.8045" lon="0.61316">
        <ele>137.605835</ele>
        <time>2012-05-13T08:08:06Z</time>
      </trkpt>
      <trkpt lat="44.80444" lon="0.61331">
        <ele>139.0478516</ele>
        <time>2012-05-13T08:08:10Z</time>
      </trkpt>
      <trkpt lat="44.80439" lon="0.61346">
        <ele>139.0478516</ele>
        <time>2012-05-13T08:08:14Z</time>
      </trkpt>
      <trkpt lat="44.80434" lon="0.61366">
        <ele>137.1252441</ele>
        <time>2012-05-13T08:08:19Z</time>
      </trkpt>
      <trkpt lat="44.80427" lon="0.61385">
        <ele>134.7219238</ele>
        <time>2012-05-13T08:08:24Z</time>
      </trkpt>
      <trkpt lat="44.8042" lon="0.61401">
        <ele>133.760498</ele>
        <time>2012-05-13T08:08:28Z</time>
      </trkpt>
      <trkpt lat="44.80407" lon="0.61413">
        <ele>134.2412109</ele>
        <time>2012-05-13T08:08:33Z</time>
      </trkpt>
      <trkpt lat="44.80398" lon="0.61421">
        <ele>131.3572998</ele>
        <time>2012-05-13T08:08:37Z</time>
      </trkpt>
      <trkpt lat="44.80386" lon="0.61435">
        <ele>130.3959961</ele>
        <time>2012-05-13T08:08:42Z</time>
      </trkpt>
      <trkpt lat="44.80376" lon="0.61443">
        <ele>128.9541016</ele>
        <time>2012-05-13T08:08:46Z</time>
      </trkpt>
      <trkpt lat="44.80362" lon="0.61453">
        <ele>128.4733887</ele>
        <time>2012-05-13T08:08:51Z</time>
      </trkpt>
      <trkpt lat="44.80348" lon="0.61464">
        <ele>127.5119629</ele>
        <time>2012-05-13T08:08:56Z</time>
      </trkpt>
      <trkpt lat="44.80334" lon="0.61469">
        <ele>124.1473389</ele>
        <time>2012-05-13T08:09:01Z</time>
      </trkpt>
      <trkpt lat="44.80328" lon="0.61472">
        <ele>123.1861572</ele>
        <time>2012-05-13T08:09:03Z</time>
      </trkpt>
      <trkpt lat="44.80318" lon="0.61481">
        <ele>121.7441406</ele>
        <time>2012-05-13T08:09:07Z</time>
      </trkpt>
      <trkpt lat="44.80301" lon="0.61501">
        <ele>121.2635498</ele>
        <time>2012-05-13T08:09:14Z</time>
      </trkpt>
      <trkpt lat="44.80291" lon="0.61517">
        <ele>120.302124</ele>
        <time>2012-05-13T08:09:19Z</time>
      </trkpt>
      <trkpt lat="44.80286" lon="0.61539">
        <ele>120.7828369</ele>
        <time>2012-05-13T08:09:24Z</time>
      </trkpt>
      <trkpt lat="44.80291" lon="0.61559">
        <ele>118.3793945</ele>
        <time>2012-05-13T08:09:29Z</time>
      </trkpt>
      <trkpt lat="44.80298" lon="0.61573">
        <ele>115.9761963</ele>
        <time>2012-05-13T08:09:33Z</time>
      </trkpt>
      <trkpt lat="44.8031" lon="0.61582">
        <ele>113.0922852</ele>
        <time>2012-05-13T08:09:37Z</time>
      </trkpt>
      <trkpt lat="44.80324" lon="0.61587">
        <ele>111.1695557</ele>
        <time>2012-05-13T08:09:42Z</time>
      </trkpt>
      <trkpt lat="44.80339" lon="0.61587">
        <ele>111.1695557</ele>
        <time>2012-05-13T08:09:48Z</time>
      </trkpt>
      <trkpt lat="44.80349" lon="0.6159">
        <ele>109.7276611</ele>
        <time>2012-05-13T08:09:52Z</time>
      </trkpt>
      <trkpt lat="44.80359" lon="0.61591">
        <ele>110.6888428</ele>
        <time>2012-05-13T08:09:56Z</time>
      </trkpt>
      <trkpt lat="44.80375" lon="0.61591">
        <ele>108.7662354</ele>
        <time>2012-05-13T08:10:02Z</time>
      </trkpt>
      <trkpt lat="44.80389" lon="0.61595">
        <ele>107.3243408</ele>
        <time>2012-05-13T08:10:07Z</time>
      </trkpt>
      <trkpt lat="44.80405" lon="0.61598">
        <ele>106.3630371</ele>
        <time>2012-05-13T08:10:13Z</time>
      </trkpt>
      <trkpt lat="44.80422" lon="0.616">
        <ele>105.8824463</ele>
        <time>2012-05-13T08:10:19Z</time>
      </trkpt>
      <trkpt lat="44.80438" lon="0.616">
        <ele>105.4017334</ele>
        <time>2012-05-13T08:10:24Z</time>
      </trkpt>
      <trkpt lat="44.80452" lon="0.61599">
        <ele>105.8824463</ele>
        <time>2012-05-13T08:10:29Z</time>
      </trkpt>
      <trkpt lat="44.80464" lon="0.61597">
        <ele>106.8436279</ele>
        <time>2012-05-13T08:10:33Z</time>
      </trkpt>
      <trkpt lat="44.80477" lon="0.61599">
        <ele>107.3243408</ele>
        <time>2012-05-13T08:10:37Z</time>
      </trkpt>
      <trkpt lat="44.80488" lon="0.61604">
        <ele>104.9210205</ele>
        <time>2012-05-13T08:10:41Z</time>
      </trkpt>
      <trkpt lat="44.80499" lon="0.61607">
        <ele>104.4404297</ele>
        <time>2012-05-13T08:10:45Z</time>
      </trkpt>
      <trkpt lat="44.80515" lon="0.6161">
        <ele>102.5177002</ele>
        <time>2012-05-13T08:10:50Z</time>
      </trkpt>
      <trkpt lat="44.80525" lon="0.61612">
        <ele>101.5563965</ele>
        <time>2012-05-13T08:10:54Z</time>
      </trkpt>
      <trkpt lat="44.80537" lon="0.61614">
        <ele>99.6337891</ele>
        <time>2012-05-13T08:10:58Z</time>
      </trkpt>
      <trkpt lat="44.8054" lon="0.61614">
        <ele>99.6337891</ele>
        <time>2012-05-13T08:10:59Z</time>
      </trkpt>
      <trkpt lat="44.80554" lon="0.61611">
        <ele>100.5950928</ele>
        <time>2012-05-13T08:11:04Z</time>
      </trkpt>
      <trkpt lat="44.80569" lon="0.61609">
        <ele>101.5563965</ele>
        <time>2012-05-13T08:11:09Z</time>
      </trkpt>
      <trkpt lat="44.80582" lon="0.61613">
        <ele>102.0371094</ele>
        <time>2012-05-13T08:11:13Z</time>
      </trkpt>
      <trkpt lat="44.80585" lon="0.61616">
        <ele>101.5563965</ele>
        <time>2012-05-13T08:11:14Z</time>
      </trkpt>
      <trkpt lat="44.806" lon="0.6163">
        <ele>98.6724854</ele>
        <time>2012-05-13T08:11:19Z</time>
      </trkpt>
      <trkpt lat="44.80611" lon="0.6165">
        <ele>96.7498779</ele>
        <time>2012-05-13T08:11:24Z</time>
      </trkpt>
      <trkpt lat="44.80619" lon="0.61664">
        <ele>95.3077393</ele>
        <time>2012-05-13T08:11:28Z</time>
      </trkpt>
      <trkpt lat="44.8062" lon="0.61667">
        <ele>94.8271484</ele>
        <time>2012-05-13T08:11:29Z</time>
      </trkpt>
      <trkpt lat="44.8063" lon="0.61682">
        <ele>92.4239502</ele>
        <time>2012-05-13T08:11:34Z</time>
      </trkpt>
      <trkpt lat="44.80645" lon="0.61689">
        <ele>88.5787354</ele>
        <time>2012-05-13T08:11:40Z</time>
      </trkpt>
      <trkpt lat="44.8065" lon="0.61691">
        <ele>87.1365967</ele>
        <time>2012-05-13T08:11:42Z</time>
      </trkpt>
      <trkpt lat="44.80667" lon="0.61694">
        <ele>88.0980225</ele>
        <time>2012-05-13T08:11:48Z</time>
      </trkpt>
      <trkpt lat="44.80673" lon="0.61698">
        <ele>87.1365967</ele>
        <time>2012-05-13T08:11:50Z</time>
      </trkpt>
      <trkpt lat="44.80686" lon="0.61715">
        <ele>86.175293</ele>
        <time>2012-05-13T08:11:55Z</time>
      </trkpt>
      <trkpt lat="44.80693" lon="0.61735">
        <ele>85.2139893</ele>
        <time>2012-05-13T08:12:00Z</time>
      </trkpt>
      <trkpt lat="44.80694" lon="0.61762">
        <ele>86.6560059</ele>
        <time>2012-05-13T08:12:06Z</time>
      </trkpt>
      <trkpt lat="44.80695" lon="0.61773">
        <ele>85.6945801</ele>
        <time>2012-05-13T08:12:10Z</time>
      </trkpt>
      <trkpt lat="44.80699" lon="0.61778">
        <ele>84.7333984</ele>
        <time>2012-05-13T08:12:19Z</time>
      </trkpt>
      <trkpt lat="44.80702" lon="0.61778">
        <ele>84.7333984</ele>
        <time>2012-05-13T08:12:41Z</time>
      </trkpt>
      <trkpt lat="44.80701" lon="0.61779">
        <ele>86.6560059</ele>
        <time>2012-05-13T08:12:53Z</time>
      </trkpt>
      <trkpt lat="44.80699" lon="0.61781">
        <ele>95.3077393</ele>
        <time>2012-05-13T08:13:10Z</time>
      </trkpt>
      <trkpt lat="44.80701" lon="0.61787">
        <ele>95.7884521</ele>
        <time>2012-05-13T08:13:16Z</time>
      </trkpt>
      <trkpt lat="44.80703" lon="0.61792">
        <ele>94.8271484</ele>
        <time>2012-05-13T08:13:18Z</time>
      </trkpt>
      <trkpt lat="44.80704" lon="0.61815">
        <ele>91.9432373</ele>
        <time>2012-05-13T08:13:23Z</time>
      </trkpt>
      <trkpt lat="44.80705" lon="0.61834">
        <ele>90.0206299</ele>
        <time>2012-05-13T08:13:28Z</time>
      </trkpt>
      <trkpt lat="44.80702" lon="0.61847">
        <ele>88.5787354</ele>
        <time>2012-05-13T08:13:32Z</time>
      </trkpt>
      <trkpt lat="44.80701" lon="0.61849">
        <ele>88.5787354</ele>
        <time>2012-05-13T08:13:33Z</time>
      </trkpt>
      <trkpt lat="44.80698" lon="0.61862">
        <ele>88.5787354</ele>
        <time>2012-05-13T08:13:37Z</time>
      </trkpt>
      <trkpt lat="44.80693" lon="0.61883">
        <ele>90.9819336</ele>
        <time>2012-05-13T08:13:43Z</time>
      </trkpt>
      <trkpt lat="44.80692" lon="0.61901">
        <ele>91.4625244</ele>
        <time>2012-05-13T08:13:48Z</time>
      </trkpt>
      <trkpt lat="44.80688" lon="0.61926">
        <ele>93.3851318</ele>
        <time>2012-05-13T08:13:54Z</time>
      </trkpt>
      <trkpt lat="44.80687" lon="0.61929">
        <ele>93.8658447</ele>
        <time>2012-05-13T08:13:55Z</time>
      </trkpt>
      <trkpt lat="44.80682" lon="0.61939">
        <ele>95.3077393</ele>
        <time>2012-05-13T08:13:59Z</time>
      </trkpt>
      <trkpt lat="44.80676" lon="0.61956">
        <ele>97.7111816</ele>
        <time>2012-05-13T08:14:05Z</time>
      </trkpt>
      <trkpt lat="44.80674" lon="0.61972">
        <ele>98.6724854</ele>
        <time>2012-05-13T08:14:09Z</time>
      </trkpt>
      <trkpt lat="44.80673" lon="0.61985">
        <ele>99.1530762</ele>
        <time>2012-05-13T08:14:12Z</time>
      </trkpt>
      <trkpt lat="44.80673" lon="0.62005">
        <ele>99.6337891</ele>
        <time>2012-05-13T08:14:17Z</time>
      </trkpt>
      <trkpt lat="44.80666" lon="0.62023">
        <ele>102.0371094</ele>
        <time>2012-05-13T08:14:23Z</time>
      </trkpt>
      <trkpt lat="44.80663" lon="0.6204">
        <ele>105.4017334</ele>
        <time>2012-05-13T08:14:28Z</time>
      </trkpt>
      <trkpt lat="44.80663" lon="0.62057">
        <ele>102.998291</ele>
        <time>2012-05-13T08:14:33Z</time>
      </trkpt>
      <trkpt lat="44.80662" lon="0.62076">
        <ele>101.0756836</ele>
        <time>2012-05-13T08:14:38Z</time>
      </trkpt>
      <trkpt lat="44.80663" lon="0.62104">
        <ele>98.1918945</ele>
        <time>2012-05-13T08:14:45Z</time>
      </trkpt>
      <trkpt lat="44.8066" lon="0.62121">
        <ele>96.2692871</ele>
        <time>2012-05-13T08:14:50Z</time>
      </trkpt>
      <trkpt lat="44.80658" lon="0.6213">
        <ele>95.7884521</ele>
        <time>2012-05-13T08:14:53Z</time>
      </trkpt>
      <trkpt lat="44.80654" lon="0.62149">
        <ele>94.3465576</ele>
        <time>2012-05-13T08:14:59Z</time>
      </trkpt>
      <trkpt lat="44.80649" lon="0.62166">
        <ele>94.8271484</ele>
        <time>2012-05-13T08:15:03Z</time>
      </trkpt>
      <trkpt lat="44.80647" lon="0.62171">
        <ele>94.8271484</ele>
        <time>2012-05-13T08:15:04Z</time>
      </trkpt>
      <trkpt lat="44.80642" lon="0.62191">
        <ele>96.2692871</ele>
        <time>2012-05-13T08:15:09Z</time>
      </trkpt>
      <trkpt lat="44.80639" lon="0.62209">
        <ele>95.7884521</ele>
        <time>2012-05-13T08:15:15Z</time>
      </trkpt>
      <trkpt lat="44.80634" lon="0.62223">
        <ele>96.2692871</ele>
        <time>2012-05-13T08:15:19Z</time>
      </trkpt>
      <trkpt lat="44.80625" lon="0.6224">
        <ele>96.2692871</ele>
        <time>2012-05-13T08:15:24Z</time>
      </trkpt>
      <trkpt lat="44.80623" lon="0.62243">
        <ele>96.2692871</ele>
        <time>2012-05-13T08:15:25Z</time>
      </trkpt>
      <trkpt lat="44.80619" lon="0.62254">
        <ele>96.2692871</ele>
        <time>2012-05-13T08:15:28Z</time>
      </trkpt>
      <trkpt lat="44.8061" lon="0.6227">
        <ele>100.114502</ele>
        <time>2012-05-13T08:15:33Z</time>
      </trkpt>
      <trkpt lat="44.80601" lon="0.62283">
        <ele>99.6337891</ele>
        <time>2012-05-13T08:15:38Z</time>
      </trkpt>
      <trkpt lat="44.80594" lon="0.623">
        <ele>100.114502</ele>
        <time>2012-05-13T08:15:43Z</time>
      </trkpt>
      <trkpt lat="44.80588" lon="0.62319">
        <ele>101.0756836</ele>
        <time>2012-05-13T08:15:50Z</time>
      </trkpt>
      <trkpt lat="44.80588" lon="0.62321">
        <ele>101.0756836</ele>
        <time>2012-05-13T08:15:51Z</time>
      </trkpt>
      <trkpt lat="44.80591" lon="0.62335">
        <ele>100.5950928</ele>
        <time>2012-05-13T08:15:56Z</time>
      </trkpt>
      <trkpt lat="44.80592" lon="0.62338">
        <ele>100.5950928</ele>
        <time>2012-05-13T08:15:57Z</time>
      </trkpt>
      <trkpt lat="44.80599" lon="0.62348">
        <ele>98.6724854</ele>
        <time>2012-05-13T08:16:02Z</time>
      </trkpt>
      <trkpt lat="44.80609" lon="0.62367">
        <ele>93.3851318</ele>
        <time>2012-05-13T08:16:09Z</time>
      </trkpt>
      <trkpt lat="44.80619" lon="0.62382">
        <ele>95.3077393</ele>
        <time>2012-05-13T08:16:15Z</time>
      </trkpt>
      <trkpt lat="44.80625" lon="0.62392">
        <ele>96.2692871</ele>
        <time>2012-05-13T08:16:19Z</time>
      </trkpt>
      <trkpt lat="44.8063" lon="0.62401">
        <ele>97.7111816</ele>
        <time>2012-05-13T08:16:23Z</time>
      </trkpt>
      <trkpt lat="44.80637" lon="0.62412">
        <ele>101.0756836</ele>
        <time>2012-05-13T08:16:28Z</time>
      </trkpt>
      <trkpt lat="44.80645" lon="0.62423">
        <ele>103.4790039</ele>
        <time>2012-05-13T08:16:33Z</time>
      </trkpt>
      <trkpt lat="44.80652" lon="0.62433">
        <ele>105.4017334</ele>
        <time>2012-05-13T08:16:39Z</time>
      </trkpt>
      <trkpt lat="44.80657" lon="0.62444">
        <ele>107.3243408</ele>
        <time>2012-05-13T08:16:45Z</time>
      </trkpt>
      <trkpt lat="44.80662" lon="0.62455">
        <ele>108.7662354</ele>
        <time>2012-05-13T08:16:51Z</time>
      </trkpt>
      <trkpt lat="44.80667" lon="0.62463">
        <ele>109.2469482</ele>
        <time>2012-05-13T08:16:56Z</time>
      </trkpt>
      <trkpt lat="44.8067" lon="0.62468">
        <ele>109.7276611</ele>
        <time>2012-05-13T08:16:59Z</time>
      </trkpt>
      <trkpt lat="44.80672" lon="0.62477">
        <ele>110.6888428</ele>
        <time>2012-05-13T08:17:03Z</time>
      </trkpt>
      <trkpt lat="44.80677" lon="0.6248">
        <ele>110.6888428</ele>
        <time>2012-05-13T08:17:07Z</time>
      </trkpt>
      <trkpt lat="44.8068" lon="0.62479">
        <ele>110.6888428</ele>
        <time>2012-05-13T08:17:09Z</time>
      </trkpt>
      <trkpt lat="44.80688" lon="0.62473">
        <ele>111.6502686</ele>
        <time>2012-05-13T08:17:15Z</time>
      </trkpt>
      <trkpt lat="44.807" lon="0.62472">
        <ele>114.5341797</ele>
        <time>2012-05-13T08:17:21Z</time>
      </trkpt>
      <trkpt lat="44.80705" lon="0.62471">
        <ele>117.4182129</ele>
        <time>2012-05-13T08:17:25Z</time>
      </trkpt>
      <trkpt lat="44.80708" lon="0.6247">
        <ele>118.3793945</ele>
        <time>2012-05-13T08:17:27Z</time>
      </trkpt>
      <trkpt lat="44.80719" lon="0.62474">
        <ele>117.4182129</ele>
        <time>2012-05-13T08:17:33Z</time>
      </trkpt>
      <trkpt lat="44.80723" lon="0.62477">
        <ele>116.9375</ele>
        <time>2012-05-13T08:17:35Z</time>
      </trkpt>
      <trkpt lat="44.80728" lon="0.62481">
        <ele>116.9375</ele>
        <time>2012-05-13T08:17:38Z</time>
      </trkpt>
      <trkpt lat="44.80738" lon="0.6249">
        <ele>115.4956055</ele>
        <time>2012-05-13T08:17:43Z</time>
      </trkpt>
      <trkpt lat="44.80748" lon="0.62505">
        <ele>114.5341797</ele>
        <time>2012-05-13T08:17:49Z</time>
      </trkpt>
      <trkpt lat="44.80755" lon="0.6252">
        <ele>112.1309814</ele>
        <time>2012-05-13T08:17:54Z</time>
      </trkpt>
      <trkpt lat="44.80757" lon="0.62526">
        <ele>110.6888428</ele>
        <time>2012-05-13T08:17:56Z</time>
      </trkpt>
      <trkpt lat="44.80761" lon="0.62539">
        <ele>108.2856445</ele>
        <time>2012-05-13T08:18:00Z</time>
      </trkpt>
      <trkpt lat="44.80765" lon="0.62558">
        <ele>104.9210205</ele>
        <time>2012-05-13T08:18:06Z</time>
      </trkpt>
      <trkpt lat="44.80765" lon="0.62561">
        <ele>104.4404297</ele>
        <time>2012-05-13T08:18:07Z</time>
      </trkpt>
      <trkpt lat="44.80767" lon="0.6257">
        <ele>104.9210205</ele>
        <time>2012-05-13T08:18:10Z</time>
      </trkpt>
      <trkpt lat="44.80776" lon="0.62583">
        <ele>105.4017334</ele>
        <time>2012-05-13T08:18:15Z</time>
      </trkpt>
      <trkpt lat="44.80778" lon="0.62598">
        <ele>107.8050537</ele>
        <time>2012-05-13T08:18:20Z</time>
      </trkpt>
      <trkpt lat="44.8078" lon="0.62609">
        <ele>109.7276611</ele>
        <time>2012-05-13T08:18:24Z</time>
      </trkpt>
      <trkpt lat="44.80781" lon="0.62624">
        <ele>112.1309814</ele>
        <time>2012-05-13T08:18:28Z</time>
      </trkpt>
      <trkpt lat="44.80781" lon="0.62627">
        <ele>113.572998</ele>
        <time>2012-05-13T08:18:29Z</time>
      </trkpt>
      <trkpt lat="44.80783" lon="0.6265">
        <ele>118.3793945</ele>
        <time>2012-05-13T08:18:36Z</time>
      </trkpt>
      <trkpt lat="44.80783" lon="0.62663">
        <ele>123.666748</ele>
        <time>2012-05-13T08:18:40Z</time>
      </trkpt>
      <trkpt lat="44.80784" lon="0.62677">
        <ele>127.0313721</ele>
        <time>2012-05-13T08:18:45Z</time>
      </trkpt>
      <trkpt lat="44.80783" lon="0.62684">
        <ele>128.4733887</ele>
        <time>2012-05-13T08:18:48Z</time>
      </trkpt>
      <trkpt lat="44.80788" lon="0.62701">
        <ele>117.8988037</ele>
        <time>2012-05-13T08:18:54Z</time>
      </trkpt>
      <trkpt lat="44.80795" lon="0.62711">
        <ele>116.4567871</ele>
        <time>2012-05-13T08:18:58Z</time>
      </trkpt>
      <trkpt lat="44.80799" lon="0.62714">
        <ele>113.572998</ele>
        <time>2012-05-13T08:19:03Z</time>
      </trkpt>
      <trkpt lat="44.80807" lon="0.62713">
        <ele>115.0148926</ele>
        <time>2012-05-13T08:19:09Z</time>
      </trkpt>
      <trkpt lat="44.80815" lon="0.62711">
        <ele>118.3793945</ele>
        <time>2012-05-13T08:19:14Z</time>
      </trkpt>
      <trkpt lat="44.80825" lon="0.6271">
        <ele>119.3408203</ele>
        <time>2012-05-13T08:19:20Z</time>
      </trkpt>
      <trkpt lat="44.80837" lon="0.62709">
        <ele>118.3793945</ele>
        <time>2012-05-13T08:19:27Z</time>
      </trkpt>
      <trkpt lat="44.80841" lon="0.6271">
        <ele>118.8601074</ele>
        <time>2012-05-13T08:19:29Z</time>
      </trkpt>
      <trkpt lat="44.80844" lon="0.62712">
        <ele>120.302124</ele>
        <time>2012-05-13T08:19:31Z</time>
      </trkpt>
      <trkpt lat="44.80854" lon="0.62714">
        <ele>122.2247314</ele>
        <time>2012-05-13T08:19:37Z</time>
      </trkpt>
      <trkpt lat="44.80863" lon="0.62718">
        <ele>121.7441406</ele>
        <time>2012-05-13T08:19:42Z</time>
      </trkpt>
      <trkpt lat="44.80873" lon="0.62723">
        <ele>123.666748</ele>
        <time>2012-05-13T08:19:48Z</time>
      </trkpt>
      <trkpt lat="44.80882" lon="0.62727">
        <ele>125.5893555</ele>
        <time>2012-05-13T08:19:54Z</time>
      </trkpt>
      <trkpt lat="44.80885" lon="0.62729">
        <ele>125.5893555</ele>
        <time>2012-05-13T08:19:56Z</time>
      </trkpt>
      <trkpt lat="44.80896" lon="0.62734">
        <ele>127.0313721</ele>
        <time>2012-05-13T08:20:02Z</time>
      </trkpt>
      <trkpt lat="44.80905" lon="0.62737">
        <ele>127.9925537</ele>
        <time>2012-05-13T08:20:08Z</time>
      </trkpt>
      <trkpt lat="44.80909" lon="0.62739">
        <ele>129.4346924</ele>
        <time>2012-05-13T08:20:11Z</time>
      </trkpt>
      <trkpt lat="44.80919" lon="0.62745">
        <ele>131.8378906</ele>
        <time>2012-05-13T08:20:18Z</time>
      </trkpt>
      <trkpt lat="44.80923" lon="0.62747">
        <ele>132.7993164</ele>
        <time>2012-05-13T08:20:21Z</time>
      </trkpt>
      <trkpt lat="44.80933" lon="0.62751">
        <ele>134.2412109</ele>
        <time>2012-05-13T08:20:28Z</time>
      </trkpt>
      <trkpt lat="44.80935" lon="0.62753">
        <ele>134.2412109</ele>
        <time>2012-05-13T08:20:30Z</time>
      </trkpt>
      <trkpt lat="44.80944" lon="0.62758">
        <ele>137.1252441</ele>
        <time>2012-05-13T08:20:36Z</time>
      </trkpt>
      <trkpt lat="44.80946" lon="0.62758">
        <ele>138.0865479</ele>
        <time>2012-05-13T08:20:37Z</time>
      </trkpt>
      <trkpt lat="44.80958" lon="0.62765">
        <ele>140.4898682</ele>
        <time>2012-05-13T08:20:44Z</time>
      </trkpt>
      <trkpt lat="44.80963" lon="0.62767">
        <ele>141.9317627</ele>
        <time>2012-05-13T08:20:48Z</time>
      </trkpt>
      <trkpt lat="44.80971" lon="0.62772">
        <ele>143.8543701</ele>
        <time>2012-05-13T08:20:54Z</time>
      </trkpt>
      <trkpt lat="44.80979" lon="0.62776">
        <ele>144.8157959</ele>
        <time>2012-05-13T08:20:59Z</time>
      </trkpt>
      <trkpt lat="44.8098" lon="0.62777">
        <ele>144.8157959</ele>
        <time>2012-05-13T08:21:00Z</time>
      </trkpt>
      <trkpt lat="44.80992" lon="0.62783">
        <ele>146.2578125</ele>
        <time>2012-05-13T08:21:09Z</time>
      </trkpt>
      <trkpt lat="44.80996" lon="0.62786">
        <ele>145.7770996</ele>
        <time>2012-05-13T08:21:12Z</time>
      </trkpt>
      <trkpt lat="44.81001" lon="0.62789">
        <ele>145.2963867</ele>
        <time>2012-05-13T08:21:15Z</time>
      </trkpt>
      <trkpt lat="44.81009" lon="0.62793">
        <ele>146.2578125</ele>
        <time>2012-05-13T08:21:22Z</time>
      </trkpt>
      <trkpt lat="44.81016" lon="0.62799">
        <ele>147.699707</ele>
        <time>2012-05-13T08:21:27Z</time>
      </trkpt>
      <trkpt lat="44.81018" lon="0.62801">
        <ele>147.2189941</ele>
        <time>2012-05-13T08:21:28Z</time>
      </trkpt>
      <trkpt lat="44.81026" lon="0.62809">
        <ele>149.1416016</ele>
        <time>2012-05-13T08:21:34Z</time>
      </trkpt>
      <trkpt lat="44.81032" lon="0.62815">
        <ele>151.5449219</ele>
        <time>2012-05-13T08:21:39Z</time>
      </trkpt>
      <trkpt lat="44.81037" lon="0.62821">
        <ele>152.9869385</ele>
        <time>2012-05-13T08:21:43Z</time>
      </trkpt>
      <trkpt lat="44.81046" lon="0.62825">
        <ele>154.9095459</ele>
        <time>2012-05-13T08:21:48Z</time>
      </trkpt>
      <trkpt lat="44.81054" lon="0.62831">
        <ele>155.3902588</ele>
        <time>2012-05-13T08:21:52Z</time>
      </trkpt>
      <trkpt lat="44.81062" lon="0.62836">
        <ele>156.3515625</ele>
        <time>2012-05-13T08:21:56Z</time>
      </trkpt>
      <trkpt lat="44.81072" lon="0.62842">
        <ele>156.3515625</ele>
        <time>2012-05-13T08:22:01Z</time>
      </trkpt>
      <trkpt lat="44.81074" lon="0.62843">
        <ele>156.3515625</ele>
        <time>2012-05-13T08:22:03Z</time>
      </trkpt>
      <trkpt lat="44.81076" lon="0.6285">
        <ele>159.7161865</ele>
        <time>2012-05-13T08:22:10Z</time>
      </trkpt>
      <trkpt lat="44.81075" lon="0.62859">
        <ele>161.638916</ele>
        <time>2012-05-13T08:22:18Z</time>
      </trkpt>
      <trkpt lat="44.81073" lon="0.62869">
        <ele>163.0808105</ele>
        <time>2012-05-13T08:22:24Z</time>
      </trkpt>
      <trkpt lat="44.8107" lon="0.62879">
        <ele>165.003418</ele>
        <time>2012-05-13T08:22:31Z</time>
      </trkpt>
      <trkpt lat="44.81069" lon="0.62883">
        <ele>165.4841309</ele>
        <time>2012-05-13T08:22:34Z</time>
      </trkpt>
      <trkpt lat="44.81065" lon="0.62897">
        <ele>166.9260254</ele>
        <time>2012-05-13T08:22:43Z</time>
      </trkpt>
      <trkpt lat="44.81058" lon="0.62914">
        <ele>167.8873291</ele>
        <time>2012-05-13T08:22:54Z</time>
      </trkpt>
      <trkpt lat="44.81053" lon="0.62928">
        <ele>168.8487549</ele>
        <time>2012-05-13T08:23:00Z</time>
      </trkpt>
      <trkpt lat="44.81047" lon="0.62944">
        <ele>167.4067383</ele>
        <time>2012-05-13T08:23:05Z</time>
      </trkpt>
      <trkpt lat="44.8104" lon="0.62962">
        <ele>166.4453125</ele>
        <time>2012-05-13T08:23:11Z</time>
      </trkpt>
      <trkpt lat="44.81035" lon="0.62979">
        <ele>166.9260254</ele>
        <time>2012-05-13T08:23:16Z</time>
      </trkpt>
      <trkpt lat="44.81032" lon="0.63001">
        <ele>166.9260254</ele>
        <time>2012-05-13T08:23:22Z</time>
      </trkpt>
      <trkpt lat="44.81032" lon="0.63018">
        <ele>167.8873291</ele>
        <time>2012-05-13T08:23:26Z</time>
      </trkpt>
      <trkpt lat="44.81034" lon="0.63035">
        <ele>167.4067383</ele>
        <time>2012-05-13T08:23:31Z</time>
      </trkpt>
      <trkpt lat="44.81036" lon="0.63055">
        <ele>166.4453125</ele>
        <time>2012-05-13T08:23:36Z</time>
      </trkpt>
      <trkpt lat="44.81037" lon="0.63058">
        <ele>166.4453125</ele>
        <time>2012-05-13T08:23:37Z</time>
      </trkpt>
      <trkpt lat="44.81043" lon="0.63079">
        <ele>167.4067383</ele>
        <time>2012-05-13T08:23:43Z</time>
      </trkpt>
      <trkpt lat="44.81048" lon="0.63104">
        <ele>167.4067383</ele>
        <time>2012-05-13T08:23:49Z</time>
      </trkpt>
      <trkpt lat="44.81051" lon="0.63124">
        <ele>166.9260254</ele>
        <time>2012-05-13T08:23:54Z</time>
      </trkpt>
      <trkpt lat="44.81053" lon="0.63144">
        <ele>165.9647217</ele>
        <time>2012-05-13T08:23:59Z</time>
      </trkpt>
      <trkpt lat="44.81051" lon="0.6317">
        <ele>165.4841309</ele>
        <time>2012-05-13T08:24:05Z</time>
      </trkpt>
      <trkpt lat="44.81047" lon="0.63189">
        <ele>163.5615234</ele>
        <time>2012-05-13T08:24:10Z</time>
      </trkpt>
      <trkpt lat="44.8104" lon="0.632">
        <ele>162.6000977</ele>
        <time>2012-05-13T08:24:14Z</time>
      </trkpt>
      <trkpt lat="44.81031" lon="0.63207">
        <ele>162.1195068</ele>
        <time>2012-05-13T08:24:18Z</time>
      </trkpt>
      <trkpt lat="44.81016" lon="0.63212">
        <ele>163.5615234</ele>
        <time>2012-05-13T08:24:24Z</time>
      </trkpt>
      <trkpt lat="44.81003" lon="0.63215">
        <ele>164.5227051</ele>
        <time>2012-05-13T08:24:29Z</time>
      </trkpt>
      <trkpt lat="44.81" lon="0.63215">
        <ele>165.003418</ele>
        <time>2012-05-13T08:24:30Z</time>
      </trkpt>
      <trkpt lat="44.80985" lon="0.63219">
        <ele>165.9647217</ele>
        <time>2012-05-13T08:24:35Z</time>
      </trkpt>
      <trkpt lat="44.80972" lon="0.63217">
        <ele>166.4453125</ele>
        <time>2012-05-13T08:24:40Z</time>
      </trkpt>
      <trkpt lat="44.80953" lon="0.63219">
        <ele>166.9260254</ele>
        <time>2012-05-13T08:24:47Z</time>
      </trkpt>
      <trkpt lat="44.80942" lon="0.63221">
        <ele>165.9647217</ele>
        <time>2012-05-13T08:24:51Z</time>
      </trkpt>
      <trkpt lat="44.80931" lon="0.63221">
        <ele>165.4841309</ele>
        <time>2012-05-13T08:24:55Z</time>
      </trkpt>
      <trkpt lat="44.80919" lon="0.63223">
        <ele>164.0421143</ele>
        <time>2012-05-13T08:24:59Z</time>
      </trkpt>
      <trkpt lat="44.80908" lon="0.63224">
        <ele>162.6000977</ele>
        <time>2012-05-13T08:25:03Z</time>
      </trkpt>
      <trkpt lat="44.80894" lon="0.63228">
        <ele>161.638916</ele>
        <time>2012-05-13T08:25:08Z</time>
      </trkpt>
      <trkpt lat="44.80883" lon="0.63245">
        <ele>159.2354736</ele>
        <time>2012-05-13T08:25:13Z</time>
      </trkpt>
      <trkpt lat="44.80879" lon="0.63269">
        <ele>159.2354736</ele>
        <time>2012-05-13T08:25:19Z</time>
      </trkpt>
      <trkpt lat="44.80875" lon="0.63295">
        <ele>158.7547607</ele>
        <time>2012-05-13T08:25:26Z</time>
      </trkpt>
      <trkpt lat="44.80871" lon="0.63311">
        <ele>159.2354736</ele>
        <time>2012-05-13T08:25:30Z</time>
      </trkpt>
      <trkpt lat="44.80865" lon="0.63328">
        <ele>160.1968994</ele>
        <time>2012-05-13T08:25:35Z</time>
      </trkpt>
      <trkpt lat="44.80857" lon="0.63343">
        <ele>161.638916</ele>
        <time>2012-05-13T08:25:40Z</time>
      </trkpt>
      <trkpt lat="44.8085" lon="0.63356">
        <ele>163.5615234</ele>
        <time>2012-05-13T08:25:44Z</time>
      </trkpt>
      <trkpt lat="44.80848" lon="0.63367">
        <ele>164.5227051</ele>
        <time>2012-05-13T08:25:47Z</time>
      </trkpt>
      <trkpt lat="44.80847" lon="0.63385">
        <ele>166.9260254</ele>
        <time>2012-05-13T08:25:52Z</time>
      </trkpt>
      <trkpt lat="44.80846" lon="0.634">
        <ele>165.9647217</ele>
        <time>2012-05-13T08:25:56Z</time>
      </trkpt>
      <trkpt lat="44.80845" lon="0.6342">
        <ele>165.4841309</ele>
        <time>2012-05-13T08:26:01Z</time>
      </trkpt>
      <trkpt lat="44.80844" lon="0.6344">
        <ele>165.4841309</ele>
        <time>2012-05-13T08:26:06Z</time>
      </trkpt>
      <trkpt lat="44.80844" lon="0.63463">
        <ele>167.4067383</ele>
        <time>2012-05-13T08:26:12Z</time>
      </trkpt>
      <trkpt lat="44.80845" lon="0.63482">
        <ele>167.8873291</ele>
        <time>2012-05-13T08:26:17Z</time>
      </trkpt>
      <trkpt lat="44.80845" lon="0.63499">
        <ele>168.368042</ele>
        <time>2012-05-13T08:26:21Z</time>
      </trkpt>
      <trkpt lat="44.80842" lon="0.63519">
        <ele>167.8873291</ele>
        <time>2012-05-13T08:26:26Z</time>
      </trkpt>
      <trkpt lat="44.80838" lon="0.63536">
        <ele>168.368042</ele>
        <time>2012-05-13T08:26:31Z</time>
      </trkpt>
      <trkpt lat="44.80833" lon="0.6355">
        <ele>168.8487549</ele>
        <time>2012-05-13T08:26:35Z</time>
      </trkpt>
      <trkpt lat="44.80825" lon="0.63566">
        <ele>168.8487549</ele>
        <time>2012-05-13T08:26:40Z</time>
      </trkpt>
      <trkpt lat="44.80819" lon="0.63576">
        <ele>168.8487549</ele>
        <time>2012-05-13T08:26:43Z</time>
      </trkpt>
      <trkpt lat="44.80811" lon="0.63588">
        <ele>169.8100586</ele>
        <time>2012-05-13T08:26:47Z</time>
      </trkpt>
      <trkpt lat="44.80801" lon="0.63601">
        <ele>171.2520752</ele>
        <time>2012-05-13T08:26:52Z</time>
      </trkpt>
      <trkpt lat="44.80792" lon="0.63616">
        <ele>172.2132568</ele>
        <time>2012-05-13T08:26:57Z</time>
      </trkpt>
      <trkpt lat="44.80781" lon="0.63632">
        <ele>173.6552734</ele>
        <time>2012-05-13T08:27:03Z</time>
      </trkpt>
      <trkpt lat="44.80777" lon="0.63638">
        <ele>174.1358643</ele>
        <time>2012-05-13T08:27:06Z</time>
      </trkpt>
      <trkpt lat="44.80768" lon="0.63653">
        <ele>176.0585938</ele>
        <time>2012-05-13T08:27:11Z</time>
      </trkpt>
      <trkpt lat="44.80757" lon="0.63668">
        <ele>176.5393066</ele>
        <time>2012-05-13T08:27:16Z</time>
      </trkpt>
      <trkpt lat="44.80753" lon="0.63674">
        <ele>177.5006104</ele>
        <time>2012-05-13T08:27:18Z</time>
      </trkpt>
      <trkpt lat="44.8074" lon="0.63689">
        <ele>176.5393066</ele>
        <time>2012-05-13T08:27:24Z</time>
      </trkpt>
      <trkpt lat="44.80729" lon="0.63701">
        <ele>176.0585938</ele>
        <time>2012-05-13T08:27:29Z</time>
      </trkpt>
      <trkpt lat="44.80726" lon="0.63704">
        <ele>176.0585938</ele>
        <time>2012-05-13T08:27:30Z</time>
      </trkpt>
      <trkpt lat="44.80726" lon="0.63704">
        <ele>176.0585938</ele>
        <time>2012-05-13T08:27:30Z</time>
      </trkpt>
      <trkpt lat="44.80718" lon="0.63714">
        <ele>176.5393066</ele>
        <time>2012-05-13T08:27:34Z</time>
      </trkpt>
      <trkpt lat="44.8071" lon="0.63723">
        <ele>176.0585938</ele>
        <time>2012-05-13T08:27:38Z</time>
      </trkpt>
      <trkpt lat="44.80697" lon="0.63738">
        <ele>175.5778809</ele>
        <time>2012-05-13T08:27:44Z</time>
      </trkpt>
      <trkpt lat="44.80687" lon="0.63747">
        <ele>174.1358643</ele>
        <time>2012-05-13T08:27:48Z</time>
      </trkpt>
      <trkpt lat="44.80674" lon="0.63762">
        <ele>173.6552734</ele>
        <time>2012-05-13T08:27:54Z</time>
      </trkpt>
      <trkpt lat="44.80671" lon="0.63766">
        <ele>173.1746826</ele>
        <time>2012-05-13T08:27:56Z</time>
      </trkpt>
      <trkpt lat="44.80671" lon="0.63774">
        <ele>171.732666</ele>
        <time>2012-05-13T08:28:01Z</time>
      </trkpt>
      <trkpt lat="44.8067" lon="0.63774">
        <ele>169.8100586</ele>
        <time>2012-05-13T08:28:09Z</time>
      </trkpt>
      <trkpt lat="44.8067" lon="0.63775">
        <ele>172.6939697</ele>
        <time>2012-05-13T08:28:26Z</time>
      </trkpt>
      <trkpt lat="44.80672" lon="0.63776">
        <ele>173.1746826</ele>
        <time>2012-05-13T08:28:39Z</time>
      </trkpt>
      <trkpt lat="44.80672" lon="0.63779">
        <ele>172.2132568</ele>
        <time>2012-05-13T08:28:41Z</time>
      </trkpt>
      <trkpt lat="44.80678" lon="0.63793">
        <ele>171.2520752</ele>
        <time>2012-05-13T08:28:46Z</time>
      </trkpt>
      <trkpt lat="44.80679" lon="0.63796">
        <ele>170.7713623</ele>
        <time>2012-05-13T08:28:47Z</time>
      </trkpt>
      <trkpt lat="44.80686" lon="0.63813">
        <ele>169.8100586</ele>
        <time>2012-05-13T08:28:52Z</time>
      </trkpt>
      <trkpt lat="44.80693" lon="0.6383">
        <ele>169.8100586</ele>
        <time>2012-05-13T08:28:57Z</time>
      </trkpt>
      <trkpt lat="44.80698" lon="0.63844">
        <ele>168.368042</ele>
        <time>2012-05-13T08:29:01Z</time>
      </trkpt>
      <trkpt lat="44.80703" lon="0.6385">
        <ele>167.4067383</ele>
        <time>2012-05-13T08:29:03Z</time>
      </trkpt>
      <trkpt lat="44.80711" lon="0.63871">
        <ele>165.003418</ele>
        <time>2012-05-13T08:29:09Z</time>
      </trkpt>
      <trkpt lat="44.80717" lon="0.63891">
        <ele>162.6000977</ele>
        <time>2012-05-13T08:29:14Z</time>
      </trkpt>
      <trkpt lat="44.80718" lon="0.6391">
        <ele>160.6774902</ele>
        <time>2012-05-13T08:29:19Z</time>
      </trkpt>
      <trkpt lat="44.80713" lon="0.63925">
        <ele>160.1968994</ele>
        <time>2012-05-13T08:29:23Z</time>
      </trkpt>
      <trkpt lat="44.80711" lon="0.63945">
        <ele>158.7547607</ele>
        <time>2012-05-13T08:29:28Z</time>
      </trkpt>
      <trkpt lat="44.8071" lon="0.63961">
        <ele>158.2741699</ele>
        <time>2012-05-13T08:29:32Z</time>
      </trkpt>
      <trkpt lat="44.80713" lon="0.63979">
        <ele>160.1968994</ele>
        <time>2012-05-13T08:29:37Z</time>
      </trkpt>
      <trkpt lat="44.80713" lon="0.63989">
        <ele>159.2354736</ele>
        <time>2012-05-13T08:29:40Z</time>
      </trkpt>
      <trkpt lat="44.80713" lon="0.63997">
        <ele>158.7547607</ele>
        <time>2012-05-13T08:29:42Z</time>
      </trkpt>
      <trkpt lat="44.80722" lon="0.64021">
        <ele>152.9869385</ele>
        <time>2012-05-13T08:29:48Z</time>
      </trkpt>
      <trkpt lat="44.80718" lon="0.64038">
        <ele>152.0257568</ele>
        <time>2012-05-13T08:29:52Z</time>
      </trkpt>
      <trkpt lat="44.80715" lon="0.64057">
        <ele>152.5063477</ele>
        <time>2012-05-13T08:29:57Z</time>
      </trkpt>
      <trkpt lat="44.80708" lon="0.6408">
        <ele>152.9869385</ele>
        <time>2012-05-13T08:30:02Z</time>
      </trkpt>
      <trkpt lat="44.80705" lon="0.64091">
        <ele>152.5063477</ele>
        <time>2012-05-13T08:30:04Z</time>
      </trkpt>
      <trkpt lat="44.80701" lon="0.64108">
        <ele>151.5449219</ele>
        <time>2012-05-13T08:30:08Z</time>
      </trkpt>
      <trkpt lat="44.80698" lon="0.64128">
        <ele>152.0257568</ele>
        <time>2012-05-13T08:30:13Z</time>
      </trkpt>
      <trkpt lat="44.80697" lon="0.6413">
        <ele>151.5449219</ele>
        <time>2012-05-13T08:30:14Z</time>
      </trkpt>
      <trkpt lat="44.80694" lon="0.64153">
        <ele>151.064209</ele>
        <time>2012-05-13T08:30:20Z</time>
      </trkpt>
      <trkpt lat="44.80695" lon="0.64172">
        <ele>150.1030273</ele>
        <time>2012-05-13T08:30:25Z</time>
      </trkpt>
      <trkpt lat="44.80694" lon="0.64187">
        <ele>147.699707</ele>
        <time>2012-05-13T08:30:29Z</time>
      </trkpt>
      <trkpt lat="44.80694" lon="0.64205">
        <ele>145.7770996</ele>
        <time>2012-05-13T08:30:34Z</time>
      </trkpt>
      <trkpt lat="44.80697" lon="0.6422">
        <ele>145.2963867</ele>
        <time>2012-05-13T08:30:38Z</time>
      </trkpt>
      <trkpt lat="44.80698" lon="0.64225">
        <ele>145.7770996</ele>
        <time>2012-05-13T08:30:39Z</time>
      </trkpt>
      <trkpt lat="44.80698" lon="0.64248">
        <ele>144.8157959</ele>
        <time>2012-05-13T08:30:45Z</time>
      </trkpt>
      <trkpt lat="44.80706" lon="0.64262">
        <ele>145.2963867</ele>
        <time>2012-05-13T08:30:50Z</time>
      </trkpt>
      <trkpt lat="44.80716" lon="0.64272">
        <ele>145.7770996</ele>
        <time>2012-05-13T08:30:54Z</time>
      </trkpt>
      <trkpt lat="44.80727" lon="0.6428">
        <ele>146.7384033</ele>
        <time>2012-05-13T08:30:58Z</time>
      </trkpt>
      <trkpt lat="44.80739" lon="0.64289">
        <ele>146.7384033</ele>
        <time>2012-05-13T08:31:02Z</time>
      </trkpt>
      <trkpt lat="44.80742" lon="0.64292">
        <ele>147.2189941</ele>
        <time>2012-05-13T08:31:03Z</time>
      </trkpt>
      <trkpt lat="44.80753" lon="0.64306">
        <ele>146.7384033</ele>
        <time>2012-05-13T08:31:08Z</time>
      </trkpt>
      <trkpt lat="44.80765" lon="0.64318">
        <ele>146.7384033</ele>
        <time>2012-05-13T08:31:13Z</time>
      </trkpt>
      <trkpt lat="44.80771" lon="0.64332">
        <ele>143.8543701</ele>
        <time>2012-05-13T08:31:18Z</time>
      </trkpt>
      <trkpt lat="44.80773" lon="0.64334">
        <ele>143.3736572</ele>
        <time>2012-05-13T08:31:19Z</time>
      </trkpt>
      <trkpt lat="44.80785" lon="0.64345">
        <ele>142.8930664</ele>
        <time>2012-05-13T08:31:24Z</time>
      </trkpt>
      <trkpt lat="44.80797" lon="0.64359">
        <ele>139.0478516</ele>
        <time>2012-05-13T08:31:30Z</time>
      </trkpt>
      <trkpt lat="44.80802" lon="0.64371">
        <ele>138.0865479</ele>
        <time>2012-05-13T08:31:34Z</time>
      </trkpt>
      <trkpt lat="44.80811" lon="0.64384">
        <ele>136.1639404</ele>
        <time>2012-05-13T08:31:39Z</time>
      </trkpt>
      <trkpt lat="44.80816" lon="0.64395">
        <ele>136.1639404</ele>
        <time>2012-05-13T08:31:43Z</time>
      </trkpt>
      <trkpt lat="44.80819" lon="0.64401">
        <ele>135.6831055</ele>
        <time>2012-05-13T08:31:45Z</time>
      </trkpt>
      <trkpt lat="44.80824" lon="0.64413">
        <ele>138.0865479</ele>
        <time>2012-05-13T08:31:49Z</time>
      </trkpt>
      <trkpt lat="44.80834" lon="0.64427">
        <ele>140.4898682</ele>
        <time>2012-05-13T08:31:54Z</time>
      </trkpt>
      <trkpt lat="44.80836" lon="0.64435">
        <ele>140.970459</ele>
        <time>2012-05-13T08:31:59Z</time>
      </trkpt>
      <trkpt lat="44.80837" lon="0.64435">
        <ele>140.970459</ele>
        <time>2012-05-13T08:32:00Z</time>
      </trkpt>
      <trkpt lat="44.80838" lon="0.64436">
        <ele>140.970459</ele>
        <time>2012-05-13T08:32:02Z</time>
      </trkpt>
      <trkpt lat="44.80837" lon="0.64437">
        <ele>142.4124756</ele>
        <time>2012-05-13T08:32:08Z</time>
      </trkpt>
      <trkpt lat="44.80837" lon="0.64437">
        <ele>142.8930664</ele>
        <time>2012-05-13T08:32:12Z</time>
      </trkpt>
      <trkpt lat="44.80841" lon="0.64445">
        <ele>140.4898682</ele>
        <time>2012-05-13T08:32:16Z</time>
      </trkpt>
      <trkpt lat="44.80849" lon="0.6446">
        <ele>137.1252441</ele>
        <time>2012-05-13T08:32:21Z</time>
      </trkpt>
      <trkpt lat="44.80856" lon="0.64478">
        <ele>133.2799072</ele>
        <time>2012-05-13T08:32:26Z</time>
      </trkpt>
      <trkpt lat="44.80859" lon="0.64492">
        <ele>131.8378906</ele>
        <time>2012-05-13T08:32:30Z</time>
      </trkpt>
      <trkpt lat="44.80866" lon="0.64507">
        <ele>129.4346924</ele>
        <time>2012-05-13T08:32:35Z</time>
      </trkpt>
      <trkpt lat="44.80878" lon="0.64522">
        <ele>129.4346924</ele>
        <time>2012-05-13T08:32:40Z</time>
      </trkpt>
      <trkpt lat="44.80887" lon="0.64541">
        <ele>129.4346924</ele>
        <time>2012-05-13T08:32:45Z</time>
      </trkpt>
      <trkpt lat="44.80893" lon="0.64553">
        <ele>131.8378906</ele>
        <time>2012-05-13T08:32:49Z</time>
      </trkpt>
      <trkpt lat="44.80903" lon="0.64562">
        <ele>131.8378906</ele>
        <time>2012-05-13T08:32:53Z</time>
      </trkpt>
      <trkpt lat="44.80914" lon="0.64576">
        <ele>131.8378906</ele>
        <time>2012-05-13T08:32:58Z</time>
      </trkpt>
      <trkpt lat="44.80923" lon="0.64587">
        <ele>132.3186035</ele>
        <time>2012-05-13T08:33:03Z</time>
      </trkpt>
      <trkpt lat="44.80936" lon="0.646">
        <ele>131.8378906</ele>
        <time>2012-05-13T08:33:08Z</time>
      </trkpt>
      <trkpt lat="44.80946" lon="0.64604">
        <ele>131.3572998</ele>
        <time>2012-05-13T08:33:12Z</time>
      </trkpt>
      <trkpt lat="44.80961" lon="0.646">
        <ele>131.3572998</ele>
        <time>2012-05-13T08:33:17Z</time>
      </trkpt>
      <trkpt lat="44.80972" lon="0.64593">
        <ele>130.876709</ele>
        <time>2012-05-13T08:33:21Z</time>
      </trkpt>
      <trkpt lat="44.80987" lon="0.64593">
        <ele>129.4346924</ele>
        <time>2012-05-13T08:33:26Z</time>
      </trkpt>
      <trkpt lat="44.80999" lon="0.64603">
        <ele>127.5119629</ele>
        <time>2012-05-13T08:33:31Z</time>
      </trkpt>
      <trkpt lat="44.81008" lon="0.64614">
        <ele>125.5893555</ele>
        <time>2012-05-13T08:33:35Z</time>
      </trkpt>
      <trkpt lat="44.81014" lon="0.64628">
        <ele>124.1473389</ele>
        <time>2012-05-13T08:33:39Z</time>
      </trkpt>
      <trkpt lat="44.81021" lon="0.64644">
        <ele>122.2247314</ele>
        <time>2012-05-13T08:33:43Z</time>
      </trkpt>
      <trkpt lat="44.81022" lon="0.64648">
        <ele>123.1861572</ele>
        <time>2012-05-13T08:33:44Z</time>
      </trkpt>
      <trkpt lat="44.81022" lon="0.64648">
        <ele>123.1861572</ele>
        <time>2012-05-13T08:33:44Z</time>
      </trkpt>
      <trkpt lat="44.81023" lon="0.64651">
        <ele>122.7054443</ele>
        <time>2012-05-13T08:33:45Z</time>
      </trkpt>
      <trkpt lat="44.81031" lon="0.64658">
        <ele>121.2635498</ele>
        <time>2012-05-13T08:33:49Z</time>
      </trkpt>
      <trkpt lat="44.81046" lon="0.64669">
        <ele>118.8601074</ele>
        <time>2012-05-13T08:33:54Z</time>
      </trkpt>
      <trkpt lat="44.81048" lon="0.64672">
        <ele>118.3793945</ele>
        <time>2012-05-13T08:33:55Z</time>
      </trkpt>
      <trkpt lat="44.81055" lon="0.64691">
        <ele>116.4567871</ele>
        <time>2012-05-13T08:34:00Z</time>
      </trkpt>
      <trkpt lat="44.81057" lon="0.64711">
        <ele>116.4567871</ele>
        <time>2012-05-13T08:34:05Z</time>
      </trkpt>
      <trkpt lat="44.81052" lon="0.64721">
        <ele>116.9375</ele>
        <time>2012-05-13T08:34:09Z</time>
      </trkpt>
      <trkpt lat="44.81047" lon="0.64742">
        <ele>116.9375</ele>
        <time>2012-05-13T08:34:14Z</time>
      </trkpt>
      <trkpt lat="44.81057" lon="0.64749">
        <ele>116.9375</ele>
        <time>2012-05-13T08:34:18Z</time>
      </trkpt>
      <trkpt lat="44.81063" lon="0.64753">
        <ele>116.4567871</ele>
        <time>2012-05-13T08:34:20Z</time>
      </trkpt>
      <trkpt lat="44.81076" lon="0.64763">
        <ele>116.4567871</ele>
        <time>2012-05-13T08:34:26Z</time>
      </trkpt>
      <trkpt lat="44.81089" lon="0.64771">
        <ele>114.5341797</ele>
        <time>2012-05-13T08:34:31Z</time>
      </trkpt>
      <trkpt lat="44.81101" lon="0.64784">
        <ele>113.0922852</ele>
        <time>2012-05-13T08:34:37Z</time>
      </trkpt>
      <trkpt lat="44.8111" lon="0.64798">
        <ele>109.7276611</ele>
        <time>2012-05-13T08:34:42Z</time>
      </trkpt>
      <trkpt lat="44.81126" lon="0.6481">
        <ele>109.2469482</ele>
        <time>2012-05-13T08:34:48Z</time>
      </trkpt>
      <trkpt lat="44.81132" lon="0.64813">
        <ele>110.208252</ele>
        <time>2012-05-13T08:34:50Z</time>
      </trkpt>
      <trkpt lat="44.81133" lon="0.64826">
        <ele>112.1309814</ele>
        <time>2012-05-13T08:34:55Z</time>
      </trkpt>
      <trkpt lat="44.81125" lon="0.64846">
        <ele>118.3793945</ele>
        <time>2012-05-13T08:35:01Z</time>
      </trkpt>
      <trkpt lat="44.81124" lon="0.64858">
        <ele>118.8601074</ele>
        <time>2012-05-13T08:35:05Z</time>
      </trkpt>
      <trkpt lat="44.81123" lon="0.64876">
        <ele>118.8601074</ele>
        <time>2012-05-13T08:35:10Z</time>
      </trkpt>
      <trkpt lat="44.81126" lon="0.64888">
        <ele>121.2635498</ele>
        <time>2012-05-13T08:35:14Z</time>
      </trkpt>
      <trkpt lat="44.81126" lon="0.64898">
        <ele>123.1861572</ele>
        <time>2012-05-13T08:35:17Z</time>
      </trkpt>
      <trkpt lat="44.81123" lon="0.64917">
        <ele>124.6280518</ele>
        <time>2012-05-13T08:35:23Z</time>
      </trkpt>
      <trkpt lat="44.81113" lon="0.6493">
        <ele>125.5893555</ele>
        <time>2012-05-13T08:35:28Z</time>
      </trkpt>
      <trkpt lat="44.81108" lon="0.64941">
        <ele>126.0699463</ele>
        <time>2012-05-13T08:35:32Z</time>
      </trkpt>
      <trkpt lat="44.81102" lon="0.64959">
        <ele>127.0313721</ele>
        <time>2012-05-13T08:35:37Z</time>
      </trkpt>
      <trkpt lat="44.81098" lon="0.64971">
        <ele>127.9925537</ele>
        <time>2012-05-13T08:35:41Z</time>
      </trkpt>
      <trkpt lat="44.81097" lon="0.64974">
        <ele>128.4733887</ele>
        <time>2012-05-13T08:35:42Z</time>
      </trkpt>
      <trkpt lat="44.81082" lon="0.64987">
        <ele>126.5506592</ele>
        <time>2012-05-13T08:35:48Z</time>
      </trkpt>
      <trkpt lat="44.81074" lon="0.64998">
        <ele>126.0699463</ele>
        <time>2012-05-13T08:35:53Z</time>
      </trkpt>
      <trkpt lat="44.81073" lon="0.65018">
        <ele>126.5506592</ele>
        <time>2012-05-13T08:35:59Z</time>
      </trkpt>
      <trkpt lat="44.81071" lon="0.65027">
        <ele>127.0313721</ele>
        <time>2012-05-13T08:36:01Z</time>
      </trkpt>
      <trkpt lat="44.81062" lon="0.65043">
        <ele>124.1473389</ele>
        <time>2012-05-13T08:36:05Z</time>
      </trkpt>
      <trkpt lat="44.81058" lon="0.65061">
        <ele>122.2247314</ele>
        <time>2012-05-13T08:36:10Z</time>
      </trkpt>
      <trkpt lat="44.81052" lon="0.65072">
        <ele>120.7828369</ele>
        <time>2012-05-13T08:36:15Z</time>
      </trkpt>
      <trkpt lat="44.81057" lon="0.65082">
        <ele>119.8214111</ele>
        <time>2012-05-13T08:36:19Z</time>
      </trkpt>
      <trkpt lat="44.81066" lon="0.65086">
        <ele>119.8214111</ele>
        <time>2012-05-13T08:36:24Z</time>
      </trkpt>
      <trkpt lat="44.81078" lon="0.65086">
        <ele>117.8988037</ele>
        <time>2012-05-13T08:36:29Z</time>
      </trkpt>
      <trkpt lat="44.81097" lon="0.65082">
        <ele>115.4956055</ele>
        <time>2012-05-13T08:36:36Z</time>
      </trkpt>
      <trkpt lat="44.81108" lon="0.65078">
        <ele>112.6115723</ele>
        <time>2012-05-13T08:36:41Z</time>
      </trkpt>
      <trkpt lat="44.81121" lon="0.65079">
        <ele>109.2469482</ele>
        <time>2012-05-13T08:36:46Z</time>
      </trkpt>
      <trkpt lat="44.81124" lon="0.65081">
        <ele>108.7662354</ele>
        <time>2012-05-13T08:36:47Z</time>
      </trkpt>
      <trkpt lat="44.81133" lon="0.65091">
        <ele>106.3630371</ele>
        <time>2012-05-13T08:36:52Z</time>
      </trkpt>
      <trkpt lat="44.81153" lon="0.65105">
        <ele>105.4017334</ele>
        <time>2012-05-13T08:36:59Z</time>
      </trkpt>
      <trkpt lat="44.8117" lon="0.65115">
        <ele>104.9210205</ele>
        <time>2012-05-13T08:37:05Z</time>
      </trkpt>
      <trkpt lat="44.81181" lon="0.65123">
        <ele>104.4404297</ele>
        <time>2012-05-13T08:37:09Z</time>
      </trkpt>
      <trkpt lat="44.81187" lon="0.65129">
        <ele>105.4017334</ele>
        <time>2012-05-13T08:37:12Z</time>
      </trkpt>
      <trkpt lat="44.812" lon="0.65133">
        <ele>105.8824463</ele>
        <time>2012-05-13T08:37:17Z</time>
      </trkpt>
      <trkpt lat="44.81204" lon="0.65134">
        <ele>105.8824463</ele>
        <time>2012-05-13T08:37:18Z</time>
      </trkpt>
      <trkpt lat="44.81214" lon="0.65141">
        <ele>106.3630371</ele>
        <time>2012-05-13T08:37:22Z</time>
      </trkpt>
      <trkpt lat="44.81225" lon="0.65154">
        <ele>107.3243408</ele>
        <time>2012-05-13T08:37:27Z</time>
      </trkpt>
      <trkpt lat="44.81233" lon="0.65163">
        <ele>106.8436279</ele>
        <time>2012-05-13T08:37:31Z</time>
      </trkpt>
      <trkpt lat="44.81242" lon="0.65168">
        <ele>107.3243408</ele>
        <time>2012-05-13T08:37:35Z</time>
      </trkpt>
      <trkpt lat="44.81262" lon="0.65177">
        <ele>108.2856445</ele>
        <time>2012-05-13T08:37:42Z</time>
      </trkpt>
      <trkpt lat="44.81274" lon="0.65189">
        <ele>106.3630371</ele>
        <time>2012-05-13T08:37:48Z</time>
      </trkpt>
      <trkpt lat="44.81285" lon="0.65197">
        <ele>105.8824463</ele>
        <time>2012-05-13T08:37:52Z</time>
      </trkpt>
      <trkpt lat="44.81292" lon="0.65206">
        <ele>104.9210205</ele>
        <time>2012-05-13T08:37:56Z</time>
      </trkpt>
      <trkpt lat="44.81302" lon="0.6522">
        <ele>103.9597168</ele>
        <time>2012-05-13T08:38:01Z</time>
      </trkpt>
      <trkpt lat="44.81314" lon="0.65236">
        <ele>102.998291</ele>
        <time>2012-05-13T08:38:06Z</time>
      </trkpt>
      <trkpt lat="44.81325" lon="0.65252">
        <ele>102.5177002</ele>
        <time>2012-05-13T08:38:11Z</time>
      </trkpt>
      <trkpt lat="44.81332" lon="0.65259">
        <ele>102.998291</ele>
        <time>2012-05-13T08:38:14Z</time>
      </trkpt>
      <trkpt lat="44.81343" lon="0.65274">
        <ele>101.5563965</ele>
        <time>2012-05-13T08:38:19Z</time>
      </trkpt>
      <trkpt lat="44.81351" lon="0.65285">
        <ele>100.5950928</ele>
        <time>2012-05-13T08:38:23Z</time>
      </trkpt>
      <trkpt lat="44.81359" lon="0.65301">
        <ele>101.0756836</ele>
        <time>2012-05-13T08:38:28Z</time>
      </trkpt>
      <trkpt lat="44.81364" lon="0.65315">
        <ele>102.5177002</ele>
        <time>2012-05-13T08:38:32Z</time>
      </trkpt>
      <trkpt lat="44.81365" lon="0.65322">
        <ele>102.5177002</ele>
        <time>2012-05-13T08:38:34Z</time>
      </trkpt>
      <trkpt lat="44.81362" lon="0.65341">
        <ele>103.9597168</ele>
        <time>2012-05-13T08:38:40Z</time>
      </trkpt>
      <trkpt lat="44.81367" lon="0.65349">
        <ele>105.4017334</ele>
        <time>2012-05-13T08:38:44Z</time>
      </trkpt>
      <trkpt lat="44.81371" lon="0.65357">
        <ele>105.4017334</ele>
        <time>2012-05-13T08:38:47Z</time>
      </trkpt>
      <trkpt lat="44.81378" lon="0.65374">
        <ele>101.5563965</ele>
        <time>2012-05-13T08:38:53Z</time>
      </trkpt>
      <trkpt lat="44.81384" lon="0.65386">
        <ele>98.1918945</ele>
        <time>2012-05-13T08:38:58Z</time>
      </trkpt>
      <trkpt lat="44.81389" lon="0.65389">
        <ele>99.6337891</ele>
        <time>2012-05-13T08:39:00Z</time>
      </trkpt>
      <trkpt lat="44.81398" lon="0.65403">
        <ele>98.6724854</ele>
        <time>2012-05-13T08:39:06Z</time>
      </trkpt>
      <trkpt lat="44.81401" lon="0.65407">
        <ele>99.1530762</ele>
        <time>2012-05-13T08:39:08Z</time>
      </trkpt>
      <trkpt lat="44.81414" lon="0.65421">
        <ele>102.0371094</ele>
        <time>2012-05-13T08:39:15Z</time>
      </trkpt>
      <trkpt lat="44.81423" lon="0.6543">
        <ele>103.9597168</ele>
        <time>2012-05-13T08:39:19Z</time>
      </trkpt>
      <trkpt lat="44.81431" lon="0.65436">
        <ele>106.8436279</ele>
        <time>2012-05-13T08:39:22Z</time>
      </trkpt>
      <trkpt lat="44.81436" lon="0.65441">
        <ele>107.3243408</ele>
        <time>2012-05-13T08:39:24Z</time>
      </trkpt>
      <trkpt lat="44.81441" lon="0.65449">
        <ele>109.7276611</ele>
        <time>2012-05-13T08:39:27Z</time>
      </trkpt>
      <trkpt lat="44.81443" lon="0.6546">
        <ele>112.6115723</ele>
        <time>2012-05-13T08:39:31Z</time>
      </trkpt>
      <trkpt lat="44.81444" lon="0.65473">
        <ele>115.0148926</ele>
        <time>2012-05-13T08:39:35Z</time>
      </trkpt>
      <trkpt lat="44.81446" lon="0.65478">
        <ele>115.0148926</ele>
        <time>2012-05-13T08:39:37Z</time>
      </trkpt>
      <trkpt lat="44.81453" lon="0.65498">
        <ele>116.4567871</ele>
        <time>2012-05-13T08:39:45Z</time>
      </trkpt>
      <trkpt lat="44.81454" lon="0.655">
        <ele>116.4567871</ele>
        <time>2012-05-13T08:39:46Z</time>
      </trkpt>
      <trkpt lat="44.81459" lon="0.6552">
        <ele>119.8214111</ele>
        <time>2012-05-13T08:39:53Z</time>
      </trkpt>
      <trkpt lat="44.81458" lon="0.6554">
        <ele>119.3408203</ele>
        <time>2012-05-13T08:39:59Z</time>
      </trkpt>
      <trkpt lat="44.81459" lon="0.65547">
        <ele>118.8601074</ele>
        <time>2012-05-13T08:40:01Z</time>
      </trkpt>
      <trkpt lat="44.81462" lon="0.65569">
        <ele>121.2635498</ele>
        <time>2012-05-13T08:40:08Z</time>
      </trkpt>
      <trkpt lat="44.81463" lon="0.65587">
        <ele>122.7054443</ele>
        <time>2012-05-13T08:40:13Z</time>
      </trkpt>
      <trkpt lat="44.81464" lon="0.65602">
        <ele>125.1087646</ele>
        <time>2012-05-13T08:40:18Z</time>
      </trkpt>
      <trkpt lat="44.81464" lon="0.65614">
        <ele>127.0313721</ele>
        <time>2012-05-13T08:40:22Z</time>
      </trkpt>
      <trkpt lat="44.81463" lon="0.65623">
        <ele>128.4733887</ele>
        <time>2012-05-13T08:40:25Z</time>
      </trkpt>
      <trkpt lat="44.81461" lon="0.65641">
        <ele>128.9541016</ele>
        <time>2012-05-13T08:40:31Z</time>
      </trkpt>
      <trkpt lat="44.81458" lon="0.65657">
        <ele>129.9152832</ele>
        <time>2012-05-13T08:40:36Z</time>
      </trkpt>
      <trkpt lat="44.81456" lon="0.65682">
        <ele>128.9541016</ele>
        <time>2012-05-13T08:40:42Z</time>
      </trkpt>
      <trkpt lat="44.81456" lon="0.65701">
        <ele>127.9925537</ele>
        <time>2012-05-13T08:40:47Z</time>
      </trkpt>
      <trkpt lat="44.81456" lon="0.65714">
        <ele>127.0313721</ele>
        <time>2012-05-13T08:40:51Z</time>
      </trkpt>
      <trkpt lat="44.81454" lon="0.65732">
        <ele>127.0313721</ele>
        <time>2012-05-13T08:40:56Z</time>
      </trkpt>
      <trkpt lat="44.81455" lon="0.65745">
        <ele>127.0313721</ele>
        <time>2012-05-13T08:41:00Z</time>
      </trkpt>
      <trkpt lat="44.81454" lon="0.65758">
        <ele>126.0699463</ele>
        <time>2012-05-13T08:41:04Z</time>
      </trkpt>
      <trkpt lat="44.81455" lon="0.65761">
        <ele>126.5506592</ele>
        <time>2012-05-13T08:41:05Z</time>
      </trkpt>
      <trkpt lat="44.81458" lon="0.65775">
        <ele>124.6280518</ele>
        <time>2012-05-13T08:41:10Z</time>
      </trkpt>
      <trkpt lat="44.81459" lon="0.65778">
        <ele>124.1473389</ele>
        <time>2012-05-13T08:41:11Z</time>
      </trkpt>
      <trkpt lat="44.81462" lon="0.65794">
        <ele>119.8214111</ele>
        <time>2012-05-13T08:41:16Z</time>
      </trkpt>
      <trkpt lat="44.81464" lon="0.65813">
        <ele>118.3793945</ele>
        <time>2012-05-13T08:41:21Z</time>
      </trkpt>
      <trkpt lat="44.81473" lon="0.65828">
        <ele>117.4182129</ele>
        <time>2012-05-13T08:41:27Z</time>
      </trkpt>
      <trkpt lat="44.8148" lon="0.65847">
        <ele>117.4182129</ele>
        <time>2012-05-13T08:41:33Z</time>
      </trkpt>
      <trkpt lat="44.8148" lon="0.65851">
        <ele>116.9375</ele>
        <time>2012-05-13T08:41:34Z</time>
      </trkpt>
      <trkpt lat="44.8148" lon="0.65868">
        <ele>119.8214111</ele>
        <time>2012-05-13T08:41:39Z</time>
      </trkpt>
      <trkpt lat="44.8148" lon="0.65882">
        <ele>121.7441406</ele>
        <time>2012-05-13T08:41:43Z</time>
      </trkpt>
      <trkpt lat="44.81484" lon="0.659">
        <ele>122.7054443</ele>
        <time>2012-05-13T08:41:48Z</time>
      </trkpt>
      <trkpt lat="44.81484" lon="0.65916">
        <ele>122.7054443</ele>
        <time>2012-05-13T08:41:52Z</time>
      </trkpt>
      <trkpt lat="44.81485" lon="0.65932">
        <ele>122.7054443</ele>
        <time>2012-05-13T08:41:57Z</time>
      </trkpt>
      <trkpt lat="44.81485" lon="0.65947">
        <ele>120.7828369</ele>
        <time>2012-05-13T08:42:01Z</time>
      </trkpt>
      <trkpt lat="44.81485" lon="0.65951">
        <ele>120.7828369</ele>
        <time>2012-05-13T08:42:02Z</time>
      </trkpt>
      <trkpt lat="44.8149" lon="0.65965">
        <ele>121.2635498</ele>
        <time>2012-05-13T08:42:07Z</time>
      </trkpt>
      <trkpt lat="44.81493" lon="0.65971">
        <ele>122.7054443</ele>
        <time>2012-05-13T08:42:13Z</time>
      </trkpt>
      <trkpt lat="44.81498" lon="0.65978">
        <ele>123.666748</ele>
        <time>2012-05-13T08:42:18Z</time>
      </trkpt>
      <trkpt lat="44.81501" lon="0.65985">
        <ele>121.7441406</ele>
        <time>2012-05-13T08:42:22Z</time>
      </trkpt>
      <trkpt lat="44.81504" lon="0.65995">
        <ele>120.302124</ele>
        <time>2012-05-13T08:42:27Z</time>
      </trkpt>
      <trkpt lat="44.81507" lon="0.66003">
        <ele>119.8214111</ele>
        <time>2012-05-13T08:42:32Z</time>
      </trkpt>
      <trkpt lat="44.8151" lon="0.6601">
        <ele>117.8988037</ele>
        <time>2012-05-13T08:42:36Z</time>
      </trkpt>
      <trkpt lat="44.81511" lon="0.66012">
        <ele>116.9375</ele>
        <time>2012-05-13T08:42:38Z</time>
      </trkpt>
      <trkpt lat="44.81514" lon="0.6602">
        <ele>116.4567871</ele>
        <time>2012-05-13T08:42:43Z</time>
      </trkpt>
      <trkpt lat="44.8152" lon="0.66027">
        <ele>115.9761963</ele>
        <time>2012-05-13T08:42:48Z</time>
      </trkpt>
      <trkpt lat="44.81521" lon="0.66031">
        <ele>115.4956055</ele>
        <time>2012-05-13T08:42:50Z</time>
      </trkpt>
      <trkpt lat="44.81523" lon="0.66042">
        <ele>114.5341797</ele>
        <time>2012-05-13T08:42:55Z</time>
      </trkpt>
      <trkpt lat="44.8152" lon="0.66075">
        <ele>114.5341797</ele>
        <time>2012-05-13T08:43:03Z</time>
      </trkpt>
      <trkpt lat="44.81513" lon="0.66096">
        <ele>112.1309814</ele>
        <time>2012-05-13T08:43:08Z</time>
      </trkpt>
      <trkpt lat="44.81507" lon="0.66114">
        <ele>110.6888428</ele>
        <time>2012-05-13T08:43:12Z</time>
      </trkpt>
      <trkpt lat="44.815" lon="0.66144">
        <ele>108.7662354</ele>
        <time>2012-05-13T08:43:19Z</time>
      </trkpt>
      <trkpt lat="44.81496" lon="0.66161">
        <ele>108.2856445</ele>
        <time>2012-05-13T08:43:23Z</time>
      </trkpt>
      <trkpt lat="44.81491" lon="0.6618">
        <ele>107.3243408</ele>
        <time>2012-05-13T08:43:27Z</time>
      </trkpt>
      <trkpt lat="44.81488" lon="0.66202">
        <ele>106.8436279</ele>
        <time>2012-05-13T08:43:32Z</time>
      </trkpt>
      <trkpt lat="44.81486" lon="0.66219">
        <ele>105.4017334</ele>
        <time>2012-05-13T08:43:36Z</time>
      </trkpt>
      <trkpt lat="44.81486" lon="0.66223">
        <ele>105.4017334</ele>
        <time>2012-05-13T08:43:37Z</time>
      </trkpt>
      <trkpt lat="44.81489" lon="0.66239">
        <ele>104.4404297</ele>
        <time>2012-05-13T08:43:41Z</time>
      </trkpt>
      <trkpt lat="44.81492" lon="0.6626">
        <ele>102.0371094</ele>
        <time>2012-05-13T08:43:46Z</time>
      </trkpt>
      <trkpt lat="44.81494" lon="0.66286">
        <ele>99.1530762</ele>
        <time>2012-05-13T08:43:52Z</time>
      </trkpt>
      <trkpt lat="44.81495" lon="0.66303">
        <ele>97.2304688</ele>
        <time>2012-05-13T08:43:56Z</time>
      </trkpt>
      <trkpt lat="44.81491" lon="0.66323">
        <ele>100.114502</ele>
        <time>2012-05-13T08:44:01Z</time>
      </trkpt>
      <trkpt lat="44.81485" lon="0.66341">
        <ele>99.6337891</ele>
        <time>2012-05-13T08:44:05Z</time>
      </trkpt>
      <trkpt lat="44.81479" lon="0.66359">
        <ele>98.1918945</ele>
        <time>2012-05-13T08:44:09Z</time>
      </trkpt>
      <trkpt lat="44.81473" lon="0.66377">
        <ele>95.7884521</ele>
        <time>2012-05-13T08:44:14Z</time>
      </trkpt>
      <trkpt lat="44.81468" lon="0.66394">
        <ele>95.3077393</ele>
        <time>2012-05-13T08:44:18Z</time>
      </trkpt>
      <trkpt lat="44.81469" lon="0.66417">
        <ele>95.3077393</ele>
        <time>2012-05-13T08:44:23Z</time>
      </trkpt>
      <trkpt lat="44.81474" lon="0.66443">
        <ele>96.7498779</ele>
        <time>2012-05-13T08:44:29Z</time>
      </trkpt>
      <trkpt lat="44.81476" lon="0.66464">
        <ele>96.7498779</ele>
        <time>2012-05-13T08:44:34Z</time>
      </trkpt>
      <trkpt lat="44.81481" lon="0.66482">
        <ele>97.2304688</ele>
        <time>2012-05-13T08:44:39Z</time>
      </trkpt>
      <trkpt lat="44.81486" lon="0.66508">
        <ele>98.6724854</ele>
        <time>2012-05-13T08:44:45Z</time>
      </trkpt>
      <trkpt lat="44.81489" lon="0.66525">
        <ele>99.6337891</ele>
        <time>2012-05-13T08:44:49Z</time>
      </trkpt>
      <trkpt lat="44.81495" lon="0.66549">
        <ele>101.0756836</ele>
        <time>2012-05-13T08:44:55Z</time>
      </trkpt>
      <trkpt lat="44.81498" lon="0.66569">
        <ele>100.5950928</ele>
        <time>2012-05-13T08:45:00Z</time>
      </trkpt>
      <trkpt lat="44.81502" lon="0.6659">
        <ele>100.114502</ele>
        <time>2012-05-13T08:45:05Z</time>
      </trkpt>
      <trkpt lat="44.81503" lon="0.66611">
        <ele>99.6337891</ele>
        <time>2012-05-13T08:45:10Z</time>
      </trkpt>
      <trkpt lat="44.81499" lon="0.66631">
        <ele>100.5950928</ele>
        <time>2012-05-13T08:45:15Z</time>
      </trkpt>
      <trkpt lat="44.81496" lon="0.66635">
        <ele>100.114502</ele>
        <time>2012-05-13T08:45:16Z</time>
      </trkpt>
      <trkpt lat="44.8149" lon="0.66646">
        <ele>99.1530762</ele>
        <time>2012-05-13T08:45:19Z</time>
      </trkpt>
      <trkpt lat="44.81478" lon="0.66663">
        <ele>96.7498779</ele>
        <time>2012-05-13T08:45:24Z</time>
      </trkpt>
      <trkpt lat="44.81468" lon="0.6668">
        <ele>95.3077393</ele>
        <time>2012-05-13T08:45:29Z</time>
      </trkpt>
      <trkpt lat="44.81462" lon="0.66698">
        <ele>94.3465576</ele>
        <time>2012-05-13T08:45:34Z</time>
      </trkpt>
      <trkpt lat="44.81461" lon="0.66711">
        <ele>93.3851318</ele>
        <time>2012-05-13T08:45:37Z</time>
      </trkpt>
      <trkpt lat="44.81465" lon="0.66729">
        <ele>91.4625244</ele>
        <time>2012-05-13T08:45:41Z</time>
      </trkpt>
      <trkpt lat="44.81478" lon="0.66747">
        <ele>89.0593262</ele>
        <time>2012-05-13T08:45:46Z</time>
      </trkpt>
      <trkpt lat="44.81491" lon="0.66754">
        <ele>87.6171875</ele>
        <time>2012-05-13T08:45:50Z</time>
      </trkpt>
      <trkpt lat="44.81505" lon="0.66761">
        <ele>85.2139893</ele>
        <time>2012-05-13T08:45:55Z</time>
      </trkpt>
      <trkpt lat="44.8152" lon="0.66768">
        <ele>84.2526855</ele>
        <time>2012-05-13T08:46:00Z</time>
      </trkpt>
      <trkpt lat="44.81536" lon="0.66775">
        <ele>83.2913818</ele>
        <time>2012-05-13T08:46:05Z</time>
      </trkpt>
      <trkpt lat="44.8155" lon="0.66783">
        <ele>81.8493652</ele>
        <time>2012-05-13T08:46:10Z</time>
      </trkpt>
      <trkpt lat="44.81569" lon="0.66792">
        <ele>79.9266357</ele>
        <time>2012-05-13T08:46:16Z</time>
      </trkpt>
      <trkpt lat="44.81582" lon="0.66798">
        <ele>78.4847412</ele>
        <time>2012-05-13T08:46:20Z</time>
      </trkpt>
      <trkpt lat="44.81601" lon="0.66805">
        <ele>78.0040283</ele>
        <time>2012-05-13T08:46:26Z</time>
      </trkpt>
      <trkpt lat="44.81617" lon="0.6681">
        <ele>76.5621338</ele>
        <time>2012-05-13T08:46:31Z</time>
      </trkpt>
      <trkpt lat="44.81628" lon="0.66812">
        <ele>75.6008301</ele>
        <time>2012-05-13T08:46:35Z</time>
      </trkpt>
      <trkpt lat="44.8164" lon="0.66811">
        <ele>75.6008301</ele>
        <time>2012-05-13T08:46:39Z</time>
      </trkpt>
      <trkpt lat="44.81652" lon="0.66814">
        <ele>76.0814209</ele>
        <time>2012-05-13T08:46:43Z</time>
      </trkpt>
      <trkpt lat="44.81667" lon="0.66823">
        <ele>78.0040283</ele>
        <time>2012-05-13T08:46:48Z</time>
      </trkpt>
      <trkpt lat="44.81685" lon="0.66835">
        <ele>78.0040283</ele>
        <time>2012-05-13T08:46:55Z</time>
      </trkpt>
      <trkpt lat="44.81699" lon="0.66842">
        <ele>78.0040283</ele>
        <time>2012-05-13T08:47:00Z</time>
      </trkpt>
      <trkpt lat="44.81717" lon="0.66846">
        <ele>78.0040283</ele>
        <time>2012-05-13T08:47:07Z</time>
      </trkpt>
      <trkpt lat="44.81735" lon="0.66849">
        <ele>77.0428467</ele>
        <time>2012-05-13T08:47:14Z</time>
      </trkpt>
      <trkpt lat="44.81739" lon="0.66853">
        <ele>76.5621338</ele>
        <time>2012-05-13T08:47:16Z</time>
      </trkpt>
      <trkpt lat="44.81748" lon="0.66869">
        <ele>75.1202393</ele>
        <time>2012-05-13T08:47:21Z</time>
      </trkpt>
      <trkpt lat="44.81751" lon="0.66877">
        <ele>74.6395264</ele>
        <time>2012-05-13T08:47:23Z</time>
      </trkpt>
      <trkpt lat="44.81761" lon="0.66893">
        <ele>72.7169189</ele>
        <time>2012-05-13T08:47:28Z</time>
      </trkpt>
      <trkpt lat="44.8177" lon="0.6691">
        <ele>70.7941895</ele>
        <time>2012-05-13T08:47:33Z</time>
      </trkpt>
      <trkpt lat="44.81779" lon="0.66919">
        <ele>69.8328857</ele>
        <time>2012-05-13T08:47:37Z</time>
      </trkpt>
      <trkpt lat="44.81793" lon="0.66923">
        <ele>70.7941895</ele>
        <time>2012-05-13T08:47:42Z</time>
      </trkpt>
      <trkpt lat="44.81806" lon="0.66921">
        <ele>71.7554932</ele>
        <time>2012-05-13T08:47:47Z</time>
      </trkpt>
      <trkpt lat="44.8181" lon="0.66921">
        <ele>72.2362061</ele>
        <time>2012-05-13T08:47:48Z</time>
      </trkpt>
      <trkpt lat="44.81821" lon="0.66918">
        <ele>74.1588135</ele>
        <time>2012-05-13T08:47:52Z</time>
      </trkpt>
      <trkpt lat="44.8184" lon="0.66915">
        <ele>76.0814209</ele>
        <time>2012-05-13T08:47:58Z</time>
      </trkpt>
      <trkpt lat="44.81859" lon="0.6691">
        <ele>79.4460449</ele>
        <time>2012-05-13T08:48:04Z</time>
      </trkpt>
      <trkpt lat="44.81862" lon="0.66908">
        <ele>80.4074707</ele>
        <time>2012-05-13T08:48:05Z</time>
      </trkpt>
      <trkpt lat="44.81876" lon="0.66902">
        <ele>82.810791</ele>
        <time>2012-05-13T08:48:10Z</time>
      </trkpt>
      <trkpt lat="44.81894" lon="0.66896">
        <ele>84.2526855</ele>
        <time>2012-05-13T08:48:16Z</time>
      </trkpt>
      <trkpt lat="44.81906" lon="0.66892">
        <ele>86.6560059</ele>
        <time>2012-05-13T08:48:20Z</time>
      </trkpt>
      <trkpt lat="44.81918" lon="0.6689">
        <ele>86.6560059</ele>
        <time>2012-05-13T08:48:24Z</time>
      </trkpt>
      <trkpt lat="44.81931" lon="0.66885">
        <ele>85.6945801</ele>
        <time>2012-05-13T08:48:29Z</time>
      </trkpt>
      <trkpt lat="44.81945" lon="0.66878">
        <ele>85.6945801</ele>
        <time>2012-05-13T08:48:34Z</time>
      </trkpt>
      <trkpt lat="44.81956" lon="0.66874">
        <ele>85.6945801</ele>
        <time>2012-05-13T08:48:38Z</time>
      </trkpt>
      <trkpt lat="44.8197" lon="0.6687">
        <ele>85.2139893</ele>
        <time>2012-05-13T08:48:43Z</time>
      </trkpt>
      <trkpt lat="44.8198" lon="0.66865">
        <ele>85.2139893</ele>
        <time>2012-05-13T08:48:47Z</time>
      </trkpt>
      <trkpt lat="44.81995" lon="0.66861">
        <ele>84.2526855</ele>
        <time>2012-05-13T08:48:52Z</time>
      </trkpt>
      <trkpt lat="44.82009" lon="0.66856">
        <ele>80.8881836</ele>
        <time>2012-05-13T08:48:57Z</time>
      </trkpt>
      <trkpt lat="44.82021" lon="0.6685">
        <ele>79.4460449</ele>
        <time>2012-05-13T08:49:01Z</time>
      </trkpt>
      <trkpt lat="44.82037" lon="0.66848">
        <ele>76.5621338</ele>
        <time>2012-05-13T08:49:06Z</time>
      </trkpt>
      <trkpt lat="44.82045" lon="0.66861">
        <ele>74.1588135</ele>
        <time>2012-05-13T08:49:10Z</time>
      </trkpt>
      <trkpt lat="44.82056" lon="0.66882">
        <ele>70.3134766</ele>
        <time>2012-05-13T08:49:16Z</time>
      </trkpt>
      <trkpt lat="44.82068" lon="0.66895">
        <ele>68.3908691</ele>
        <time>2012-05-13T08:49:21Z</time>
      </trkpt>
      <trkpt lat="44.82084" lon="0.66911">
        <ele>67.4296875</ele>
        <time>2012-05-13T08:49:28Z</time>
      </trkpt>
      <trkpt lat="44.82099" lon="0.6693">
        <ele>66.4682617</ele>
        <time>2012-05-13T08:49:35Z</time>
      </trkpt>
      <trkpt lat="44.82111" lon="0.66943">
        <ele>67.4296875</ele>
        <time>2012-05-13T08:49:40Z</time>
      </trkpt>
      <trkpt lat="44.82121" lon="0.66956">
        <ele>67.4296875</ele>
        <time>2012-05-13T08:49:45Z</time>
      </trkpt>
      <trkpt lat="44.82135" lon="0.66959">
        <ele>67.4296875</ele>
        <time>2012-05-13T08:49:50Z</time>
      </trkpt>
      <trkpt lat="44.82156" lon="0.66954">
        <ele>67.9102783</ele>
        <time>2012-05-13T08:49:57Z</time>
      </trkpt>
      <trkpt lat="44.82171" lon="0.6695">
        <ele>67.4296875</ele>
        <time>2012-05-13T08:50:02Z</time>
      </trkpt>
      <trkpt lat="44.82184" lon="0.66954">
        <ele>67.4296875</ele>
        <time>2012-05-13T08:50:06Z</time>
      </trkpt>
      <trkpt lat="44.82198" lon="0.66969">
        <ele>65.0263672</ele>
        <time>2012-05-13T08:50:11Z</time>
      </trkpt>
      <trkpt lat="44.822" lon="0.66973">
        <ele>64.5456543</ele>
        <time>2012-05-13T08:50:12Z</time>
      </trkpt>
      <trkpt lat="44.82211" lon="0.66986">
        <ele>62.142334</ele>
        <time>2012-05-13T08:50:16Z</time>
      </trkpt>
      <trkpt lat="44.82219" lon="0.66999">
        <ele>60.7003174</ele>
        <time>2012-05-13T08:50:20Z</time>
      </trkpt>
      <trkpt lat="44.82228" lon="0.67008">
        <ele>59.7391357</ele>
        <time>2012-05-13T08:50:25Z</time>
      </trkpt>
      <trkpt lat="44.82242" lon="0.67005">
        <ele>59.2584229</ele>
        <time>2012-05-13T08:50:30Z</time>
      </trkpt>
      <trkpt lat="44.82248" lon="0.67007">
        <ele>60.2197266</ele>
        <time>2012-05-13T08:50:33Z</time>
      </trkpt>
      <trkpt lat="44.82262" lon="0.67007">
        <ele>61.1810303</ele>
        <time>2012-05-13T08:50:38Z</time>
      </trkpt>
      <trkpt lat="44.82268" lon="0.67009">
        <ele>61.6617432</ele>
        <time>2012-05-13T08:50:40Z</time>
      </trkpt>
      <trkpt lat="44.82283" lon="0.67012">
        <ele>63.1036377</ele>
        <time>2012-05-13T08:50:45Z</time>
      </trkpt>
      <trkpt lat="44.82298" lon="0.67013">
        <ele>63.5843506</ele>
        <time>2012-05-13T08:50:50Z</time>
      </trkpt>
      <trkpt lat="44.823" lon="0.67013">
        <ele>63.5843506</ele>
        <time>2012-05-13T08:50:51Z</time>
      </trkpt>
      <trkpt lat="44.823" lon="0.67021">
        <ele>63.1036377</ele>
        <time>2012-05-13T08:50:55Z</time>
      </trkpt>
      <trkpt lat="44.823" lon="0.67019">
        <ele>63.5843506</ele>
        <time>2012-05-13T08:50:59Z</time>
      </trkpt>
      <trkpt lat="44.82309" lon="0.6701">
        <ele>63.5843506</ele>
        <time>2012-05-13T08:51:04Z</time>
      </trkpt>
      <trkpt lat="44.82315" lon="0.67006">
        <ele>63.5843506</ele>
        <time>2012-05-13T08:51:06Z</time>
      </trkpt>
      <trkpt lat="44.82325" lon="0.67004">
        <ele>63.5843506</ele>
        <time>2012-05-13T08:51:10Z</time>
      </trkpt>
      <trkpt lat="44.82328" lon="0.67004">
        <ele>63.1036377</ele>
        <time>2012-05-13T08:51:11Z</time>
      </trkpt>
      <trkpt lat="44.82338" lon="0.67015">
        <ele>63.1036377</ele>
        <time>2012-05-13T08:51:16Z</time>
      </trkpt>
      <trkpt lat="44.82339" lon="0.67025">
        <ele>62.6229248</ele>
        <time>2012-05-13T08:51:19Z</time>
      </trkpt>
      <trkpt lat="44.8234" lon="0.6703">
        <ele>61.6617432</ele>
        <time>2012-05-13T08:51:21Z</time>
      </trkpt>
      <trkpt lat="44.82349" lon="0.67034">
        <ele>59.2584229</ele>
        <time>2012-05-13T08:51:25Z</time>
      </trkpt>
      <trkpt lat="44.82356" lon="0.67036">
        <ele>59.2584229</ele>
        <time>2012-05-13T08:51:28Z</time>
      </trkpt>
      <trkpt lat="44.82357" lon="0.67054">
        <ele>57.8165283</ele>
        <time>2012-05-13T08:51:33Z</time>
      </trkpt>
      <trkpt lat="44.82356" lon="0.67068">
        <ele>54.932373</ele>
        <time>2012-05-13T08:51:38Z</time>
      </trkpt>
      <trkpt lat="44.8235" lon="0.67071">
        <ele>53.4904785</ele>
        <time>2012-05-13T08:51:41Z</time>
      </trkpt>
      <trkpt lat="44.82333" lon="0.67073">
        <ele>51.5678711</ele>
        <time>2012-05-13T08:51:48Z</time>
      </trkpt>
      <trkpt lat="44.82318" lon="0.67081">
        <ele>50.6065674</ele>
        <time>2012-05-13T08:51:53Z</time>
      </trkpt>
      <trkpt lat="44.82305" lon="0.67086">
        <ele>49.1645508</ele>
        <time>2012-05-13T08:51:58Z</time>
      </trkpt>
      <trkpt lat="44.8229" lon="0.67094">
        <ele>48.68396</ele>
        <time>2012-05-13T08:52:04Z</time>
      </trkpt>
      <trkpt lat="44.82279" lon="0.67098">
        <ele>48.2033691</ele>
        <time>2012-05-13T08:52:08Z</time>
      </trkpt>
      <trkpt lat="44.82265" lon="0.67104">
        <ele>47.2418213</ele>
        <time>2012-05-13T08:52:14Z</time>
      </trkpt>
      <trkpt lat="44.82256" lon="0.67107">
        <ele>45.7999268</ele>
        <time>2012-05-13T08:52:18Z</time>
      </trkpt>
      <trkpt lat="44.82238" lon="0.67118">
        <ele>46.7612305</ele>
        <time>2012-05-13T08:52:24Z</time>
      </trkpt>
      <trkpt lat="44.82225" lon="0.67123">
        <ele>45.7999268</ele>
        <time>2012-05-13T08:52:29Z</time>
      </trkpt>
      <trkpt lat="44.82219" lon="0.67142">
        <ele>47.2418213</ele>
        <time>2012-05-13T08:52:35Z</time>
      </trkpt>
      <trkpt lat="44.82217" lon="0.67151">
        <ele>48.2033691</ele>
        <time>2012-05-13T08:52:38Z</time>
      </trkpt>
      <trkpt lat="44.82212" lon="0.67174">
        <ele>50.6065674</ele>
        <time>2012-05-13T08:52:44Z</time>
      </trkpt>
      <trkpt lat="44.82213" lon="0.67194">
        <ele>50.6065674</ele>
        <time>2012-05-13T08:52:49Z</time>
      </trkpt>
      <trkpt lat="44.82215" lon="0.67208">
        <ele>50.1259766</ele>
        <time>2012-05-13T08:52:53Z</time>
      </trkpt>
      <trkpt lat="44.82215" lon="0.67212">
        <ele>50.6065674</ele>
        <time>2012-05-13T08:52:54Z</time>
      </trkpt>
      <trkpt lat="44.82221" lon="0.67234">
        <ele>48.2033691</ele>
        <time>2012-05-13T08:53:01Z</time>
      </trkpt>
      <trkpt lat="44.82231" lon="0.67253">
        <ele>48.68396</ele>
        <time>2012-05-13T08:53:07Z</time>
      </trkpt>
      <trkpt lat="44.82236" lon="0.67273">
        <ele>49.1645508</ele>
        <time>2012-05-13T08:53:12Z</time>
      </trkpt>
      <trkpt lat="44.82236" lon="0.67293">
        <ele>49.6452637</ele>
        <time>2012-05-13T08:53:17Z</time>
      </trkpt>
      <trkpt lat="44.8223" lon="0.6731">
        <ele>51.0871582</ele>
        <time>2012-05-13T08:53:22Z</time>
      </trkpt>
      <trkpt lat="44.82227" lon="0.67314">
        <ele>51.5678711</ele>
        <time>2012-05-13T08:53:24Z</time>
      </trkpt>
      <trkpt lat="44.82213" lon="0.67322">
        <ele>51.5678711</ele>
        <time>2012-05-13T08:53:30Z</time>
      </trkpt>
      <trkpt lat="44.82199" lon="0.67324">
        <ele>51.0871582</ele>
        <time>2012-05-13T08:53:36Z</time>
      </trkpt>
      <trkpt lat="44.82188" lon="0.67327">
        <ele>52.048584</ele>
        <time>2012-05-13T08:53:41Z</time>
      </trkpt>
      <trkpt lat="44.82175" lon="0.67332">
        <ele>51.0871582</ele>
        <time>2012-05-13T08:53:46Z</time>
      </trkpt>
      <trkpt lat="44.8216" lon="0.67338">
        <ele>50.6065674</ele>
        <time>2012-05-13T08:53:52Z</time>
      </trkpt>
      <trkpt lat="44.82147" lon="0.67342">
        <ele>50.1259766</ele>
        <time>2012-05-13T08:53:57Z</time>
      </trkpt>
      <trkpt lat="44.82138" lon="0.67344">
        <ele>50.1259766</ele>
        <time>2012-05-13T08:54:01Z</time>
      </trkpt>
      <trkpt lat="44.82127" lon="0.67347">
        <ele>51.5678711</ele>
        <time>2012-05-13T08:54:05Z</time>
      </trkpt>
      <trkpt lat="44.82117" lon="0.67351">
        <ele>52.5291748</ele>
        <time>2012-05-13T08:54:09Z</time>
      </trkpt>
      <trkpt lat="44.82113" lon="0.67353">
        <ele>52.5291748</ele>
        <time>2012-05-13T08:54:10Z</time>
      </trkpt>
      <trkpt lat="44.82108" lon="0.67353">
        <ele>53.9711914</ele>
        <time>2012-05-13T08:54:12Z</time>
      </trkpt>
      <trkpt lat="44.82091" lon="0.6736">
        <ele>57.3358154</ele>
        <time>2012-05-13T08:54:18Z</time>
      </trkpt>
      <trkpt lat="44.82081" lon="0.67363">
        <ele>59.2584229</ele>
        <time>2012-05-13T08:54:22Z</time>
      </trkpt>
      <trkpt lat="44.82079" lon="0.67363">
        <ele>60.2197266</ele>
        <time>2012-05-13T08:54:23Z</time>
      </trkpt>
      <trkpt lat="44.82067" lon="0.67368">
        <ele>63.1036377</ele>
        <time>2012-05-13T08:54:27Z</time>
      </trkpt>
      <trkpt lat="44.82058" lon="0.67367">
        <ele>65.0263672</ele>
        <time>2012-05-13T08:54:31Z</time>
      </trkpt>
      <trkpt lat="44.82053" lon="0.67369">
        <ele>65.5070801</ele>
        <time>2012-05-13T08:54:33Z</time>
      </trkpt>
      <trkpt lat="44.82039" lon="0.67371">
        <ele>67.9102783</ele>
        <time>2012-05-13T08:54:39Z</time>
      </trkpt>
      <trkpt lat="44.82034" lon="0.67372">
        <ele>69.3522949</ele>
        <time>2012-05-13T08:54:41Z</time>
      </trkpt>
      <trkpt lat="44.82025" lon="0.67376">
        <ele>69.3522949</ele>
        <time>2012-05-13T08:54:45Z</time>
      </trkpt>
      <trkpt lat="44.82023" lon="0.67376">
        <ele>69.8328857</ele>
        <time>2012-05-13T08:54:46Z</time>
      </trkpt>
      <trkpt lat="44.82013" lon="0.67378">
        <ele>71.7554932</ele>
        <time>2012-05-13T08:54:51Z</time>
      </trkpt>
      <trkpt lat="44.82" lon="0.67384">
        <ele>71.2749023</ele>
        <time>2012-05-13T08:54:56Z</time>
      </trkpt>
      <trkpt lat="44.8199" lon="0.67389">
        <ele>68.871582</ele>
        <time>2012-05-13T08:55:01Z</time>
      </trkpt>
      <trkpt lat="44.81985" lon="0.67389">
        <ele>68.3908691</ele>
        <time>2012-05-13T08:55:04Z</time>
      </trkpt>
      <trkpt lat="44.81974" lon="0.6739">
        <ele>67.4296875</ele>
        <time>2012-05-13T08:55:10Z</time>
      </trkpt>
      <trkpt lat="44.81964" lon="0.67396">
        <ele>66.9489746</ele>
        <time>2012-05-13T08:55:15Z</time>
      </trkpt>
      <trkpt lat="44.81957" lon="0.67398">
        <ele>65.9876709</ele>
        <time>2012-05-13T08:55:19Z</time>
      </trkpt>
      <trkpt lat="44.81953" lon="0.674">
        <ele>66.4682617</ele>
        <time>2012-05-13T08:55:21Z</time>
      </trkpt>
      <trkpt lat="44.81946" lon="0.67401">
        <ele>66.4682617</ele>
        <time>2012-05-13T08:55:25Z</time>
      </trkpt>
      <trkpt lat="44.81944" lon="0.67401">
        <ele>66.4682617</ele>
        <time>2012-05-13T08:55:26Z</time>
      </trkpt>
      <trkpt lat="44.81935" lon="0.67407">
        <ele>68.3908691</ele>
        <time>2012-05-13T08:55:32Z</time>
      </trkpt>
      <trkpt lat="44.81931" lon="0.67413">
        <ele>70.3134766</ele>
        <time>2012-05-13T08:55:34Z</time>
      </trkpt>
      <trkpt lat="44.8192" lon="0.67432">
        <ele>74.1588135</ele>
        <time>2012-05-13T08:55:41Z</time>
      </trkpt>
      <trkpt lat="44.81909" lon="0.67445">
        <ele>73.6782227</ele>
        <time>2012-05-13T08:55:46Z</time>
      </trkpt>
      <trkpt lat="44.81905" lon="0.6745">
        <ele>73.6782227</ele>
        <time>2012-05-13T08:55:49Z</time>
      </trkpt>
      <trkpt lat="44.819" lon="0.67453">
        <ele>70.3134766</ele>
        <time>2012-05-13T08:55:57Z</time>
      </trkpt>
      <trkpt lat="44.81899" lon="0.67453">
        <ele>66.9489746</ele>
        <time>2012-05-13T08:56:17Z</time>
      </trkpt>
      <trkpt lat="44.81899" lon="0.67455">
        <ele>68.3908691</ele>
        <time>2012-05-13T08:56:27Z</time>
      </trkpt>
      <trkpt lat="44.81898" lon="0.67457">
        <ele>69.3522949</ele>
        <time>2012-05-13T08:56:29Z</time>
      </trkpt>
      <trkpt lat="44.81892" lon="0.67461">
        <ele>69.3522949</ele>
        <time>2012-05-13T08:56:33Z</time>
      </trkpt>
      <trkpt lat="44.8189" lon="0.67462">
        <ele>69.3522949</ele>
        <time>2012-05-13T08:56:34Z</time>
      </trkpt>
      <trkpt lat="44.81875" lon="0.67466">
        <ele>67.4296875</ele>
        <time>2012-05-13T08:56:40Z</time>
      </trkpt>
      <trkpt lat="44.81862" lon="0.67472">
        <ele>65.5070801</ele>
        <time>2012-05-13T08:56:44Z</time>
      </trkpt>
      <trkpt lat="44.8185" lon="0.67473">
        <ele>64.5456543</ele>
        <time>2012-05-13T08:56:48Z</time>
      </trkpt>
      <trkpt lat="44.81847" lon="0.67473">
        <ele>64.0650635</ele>
        <time>2012-05-13T08:56:49Z</time>
      </trkpt>
      <trkpt lat="44.81847" lon="0.67473">
        <ele>64.0650635</ele>
        <time>2012-05-13T08:56:49Z</time>
      </trkpt>
      <trkpt lat="44.81832" lon="0.67476">
        <ele>63.5843506</ele>
        <time>2012-05-13T08:56:54Z</time>
      </trkpt>
      <trkpt lat="44.81824" lon="0.67475">
        <ele>64.0650635</ele>
        <time>2012-05-13T08:56:57Z</time>
      </trkpt>
      <trkpt lat="44.81819" lon="0.67465">
        <ele>65.5070801</ele>
        <time>2012-05-13T08:57:01Z</time>
      </trkpt>
      <trkpt lat="44.81814" lon="0.6747">
        <ele>65.5070801</ele>
        <time>2012-05-13T08:57:05Z</time>
      </trkpt>
      <trkpt lat="44.81807" lon="0.67486">
        <ele>69.3522949</ele>
        <time>2012-05-13T08:57:11Z</time>
      </trkpt>
      <trkpt lat="44.81795" lon="0.67499">
        <ele>67.9102783</ele>
        <time>2012-05-13T08:57:17Z</time>
      </trkpt>
      <trkpt lat="44.81784" lon="0.67503">
        <ele>67.4296875</ele>
        <time>2012-05-13T08:57:22Z</time>
      </trkpt>
      <trkpt lat="44.81774" lon="0.67506">
        <ele>66.9489746</ele>
        <time>2012-05-13T08:57:26Z</time>
      </trkpt>
      <trkpt lat="44.8176" lon="0.67503">
        <ele>65.0263672</ele>
        <time>2012-05-13T08:57:31Z</time>
      </trkpt>
      <trkpt lat="44.81752" lon="0.67494">
        <ele>65.5070801</ele>
        <time>2012-05-13T08:57:35Z</time>
      </trkpt>
      <trkpt lat="44.81743" lon="0.67475">
        <ele>66.4682617</ele>
        <time>2012-05-13T08:57:41Z</time>
      </trkpt>
      <trkpt lat="44.81739" lon="0.67474">
        <ele>66.4682617</ele>
        <time>2012-05-13T08:57:44Z</time>
      </trkpt>
      <trkpt lat="44.81739" lon="0.6747">
        <ele>67.4296875</ele>
        <time>2012-05-13T08:57:48Z</time>
      </trkpt>
      <trkpt lat="44.81744" lon="0.67467">
        <ele>67.9102783</ele>
        <time>2012-05-13T08:57:51Z</time>
      </trkpt>
      <trkpt lat="44.81752" lon="0.67461">
        <ele>68.3908691</ele>
        <time>2012-05-13T08:57:54Z</time>
      </trkpt>
      <trkpt lat="44.81757" lon="0.67458">
        <ele>68.3908691</ele>
        <time>2012-05-13T08:57:56Z</time>
      </trkpt>
      <trkpt lat="44.81759" lon="0.6745">
        <ele>69.3522949</ele>
        <time>2012-05-13T08:58:00Z</time>
      </trkpt>
      <trkpt lat="44.81758" lon="0.6745">
        <ele>68.871582</ele>
        <time>2012-05-13T08:58:01Z</time>
      </trkpt>
      <trkpt lat="44.81744" lon="0.67454">
        <ele>67.4296875</ele>
        <time>2012-05-13T08:58:07Z</time>
      </trkpt>
      <trkpt lat="44.81728" lon="0.67456">
        <ele>64.5456543</ele>
        <time>2012-05-13T08:58:12Z</time>
      </trkpt>
      <trkpt lat="44.81708" lon="0.67459">
        <ele>63.5843506</ele>
        <time>2012-05-13T08:58:18Z</time>
      </trkpt>
      <trkpt lat="44.81698" lon="0.67461">
        <ele>63.1036377</ele>
        <time>2012-05-13T08:58:21Z</time>
      </trkpt>
      <trkpt lat="44.81694" lon="0.67461">
        <ele>64.0650635</ele>
        <time>2012-05-13T08:58:22Z</time>
      </trkpt>
      <trkpt lat="44.81682" lon="0.67459">
        <ele>64.5456543</ele>
        <time>2012-05-13T08:58:26Z</time>
      </trkpt>
      <trkpt lat="44.81673" lon="0.67457">
        <ele>63.1036377</ele>
        <time>2012-05-13T08:58:29Z</time>
      </trkpt>
      <trkpt lat="44.81665" lon="0.67454">
        <ele>63.1036377</ele>
        <time>2012-05-13T08:58:32Z</time>
      </trkpt>
      <trkpt lat="44.81644" lon="0.67455">
        <ele>61.1810303</ele>
        <time>2012-05-13T08:58:39Z</time>
      </trkpt>
      <trkpt lat="44.81629" lon="0.67457">
        <ele>60.7003174</ele>
        <time>2012-05-13T08:58:44Z</time>
      </trkpt>
      <trkpt lat="44.81617" lon="0.67453">
        <ele>59.2584229</ele>
        <time>2012-05-13T08:58:49Z</time>
      </trkpt>
      <trkpt lat="44.81613" lon="0.67451">
        <ele>58.2971191</ele>
        <time>2012-05-13T08:58:52Z</time>
      </trkpt>
      <trkpt lat="44.81605" lon="0.67449">
        <ele>54.932373</ele>
        <time>2012-05-13T08:58:56Z</time>
      </trkpt>
      <trkpt lat="44.81602" lon="0.67448">
        <ele>54.4517822</ele>
        <time>2012-05-13T08:58:57Z</time>
      </trkpt>
      <trkpt lat="44.81588" lon="0.67441">
        <ele>51.5678711</ele>
        <time>2012-05-13T08:59:03Z</time>
      </trkpt>
      <trkpt lat="44.81576" lon="0.67434">
        <ele>52.5291748</ele>
        <time>2012-05-13T08:59:08Z</time>
      </trkpt>
      <trkpt lat="44.81565" lon="0.67428">
        <ele>50.1259766</ele>
        <time>2012-05-13T08:59:13Z</time>
      </trkpt>
      <trkpt lat="44.81545" lon="0.67426">
        <ele>49.1645508</ele>
        <time>2012-05-13T08:59:20Z</time>
      </trkpt>
      <trkpt lat="44.81529" lon="0.67424">
        <ele>50.1259766</ele>
        <time>2012-05-13T08:59:26Z</time>
      </trkpt>
      <trkpt lat="44.81516" lon="0.67424">
        <ele>49.6452637</ele>
        <time>2012-05-13T08:59:31Z</time>
      </trkpt>
      <trkpt lat="44.81502" lon="0.67427">
        <ele>48.68396</ele>
        <time>2012-05-13T08:59:36Z</time>
      </trkpt>
      <trkpt lat="44.8149" lon="0.67426">
        <ele>49.6452637</ele>
        <time>2012-05-13T08:59:40Z</time>
      </trkpt>
      <trkpt lat="44.81481" lon="0.67423">
        <ele>49.6452637</ele>
        <time>2012-05-13T08:59:44Z</time>
      </trkpt>
      <trkpt lat="44.81473" lon="0.67414">
        <ele>50.6065674</ele>
        <time>2012-05-13T08:59:47Z</time>
      </trkpt>
      <trkpt lat="44.8146" lon="0.6741">
        <ele>52.048584</ele>
        <time>2012-05-13T08:59:52Z</time>
      </trkpt>
      <trkpt lat="44.8145" lon="0.67406">
        <ele>52.5291748</ele>
        <time>2012-05-13T08:59:56Z</time>
      </trkpt>
      <trkpt lat="44.81438" lon="0.67404">
        <ele>53.9711914</ele>
        <time>2012-05-13T09:00:00Z</time>
      </trkpt>
      <trkpt lat="44.81436" lon="0.67404">
        <ele>54.4517822</ele>
        <time>2012-05-13T09:00:01Z</time>
      </trkpt>
      <trkpt lat="44.81422" lon="0.67401">
        <ele>55.8937988</ele>
        <time>2012-05-13T09:00:06Z</time>
      </trkpt>
      <trkpt lat="44.81405" lon="0.67398">
        <ele>57.3358154</ele>
        <time>2012-05-13T09:00:11Z</time>
      </trkpt>
      <trkpt lat="44.8139" lon="0.67399">
        <ele>58.2971191</ele>
        <time>2012-05-13T09:00:16Z</time>
      </trkpt>
      <trkpt lat="44.81378" lon="0.67401">
        <ele>59.7391357</ele>
        <time>2012-05-13T09:00:20Z</time>
      </trkpt>
      <trkpt lat="44.81369" lon="0.67402">
        <ele>58.77771</ele>
        <time>2012-05-13T09:00:23Z</time>
      </trkpt>
      <trkpt lat="44.81359" lon="0.67393">
        <ele>58.2971191</ele>
        <time>2012-05-13T09:00:27Z</time>
      </trkpt>
      <trkpt lat="44.81358" lon="0.67368">
        <ele>58.2971191</ele>
        <time>2012-05-13T09:00:35Z</time>
      </trkpt>
      <trkpt lat="44.8136" lon="0.6735">
        <ele>60.2197266</ele>
        <time>2012-05-13T09:00:40Z</time>
      </trkpt>
      <trkpt lat="44.81363" lon="0.67328">
        <ele>61.6617432</ele>
        <time>2012-05-13T09:00:46Z</time>
      </trkpt>
      <trkpt lat="44.81367" lon="0.67302">
        <ele>63.5843506</ele>
        <time>2012-05-13T09:00:53Z</time>
      </trkpt>
      <trkpt lat="44.81369" lon="0.67282">
        <ele>66.4682617</ele>
        <time>2012-05-13T09:00:58Z</time>
      </trkpt>
      <trkpt lat="44.81371" lon="0.67264">
        <ele>65.5070801</ele>
        <time>2012-05-13T09:01:03Z</time>
      </trkpt>
      <trkpt lat="44.81374" lon="0.67248">
        <ele>64.0650635</ele>
        <time>2012-05-13T09:01:08Z</time>
      </trkpt>
      <trkpt lat="44.81378" lon="0.67231">
        <ele>63.1036377</ele>
        <time>2012-05-13T09:01:13Z</time>
      </trkpt>
      <trkpt lat="44.81382" lon="0.67213">
        <ele>61.6617432</ele>
        <time>2012-05-13T09:01:18Z</time>
      </trkpt>
      <trkpt lat="44.8139" lon="0.67195">
        <ele>60.2197266</ele>
        <time>2012-05-13T09:01:24Z</time>
      </trkpt>
      <trkpt lat="44.81393" lon="0.6719">
        <ele>59.2584229</ele>
        <time>2012-05-13T09:01:26Z</time>
      </trkpt>
      <trkpt lat="44.81404" lon="0.67184">
        <ele>56.3745117</ele>
        <time>2012-05-13T09:01:32Z</time>
      </trkpt>
      <trkpt lat="44.81415" lon="0.67179">
        <ele>53.0097656</ele>
        <time>2012-05-13T09:01:38Z</time>
      </trkpt>
      <trkpt lat="44.81431" lon="0.67173">
        <ele>54.932373</ele>
        <time>2012-05-13T09:01:44Z</time>
      </trkpt>
      <trkpt lat="44.81443" lon="0.67163">
        <ele>54.932373</ele>
        <time>2012-05-13T09:01:49Z</time>
      </trkpt>
      <trkpt lat="44.81445" lon="0.67149">
        <ele>56.3745117</ele>
        <time>2012-05-13T09:01:54Z</time>
      </trkpt>
      <trkpt lat="44.81444" lon="0.67148">
        <ele>56.8551025</ele>
        <time>2012-05-13T09:01:55Z</time>
      </trkpt>
      <trkpt lat="44.81433" lon="0.67144">
        <ele>57.3358154</ele>
        <time>2012-05-13T09:02:01Z</time>
      </trkpt>
      <trkpt lat="44.81421" lon="0.67138">
        <ele>57.8165283</ele>
        <time>2012-05-13T09:02:08Z</time>
      </trkpt>
      <trkpt lat="44.81411" lon="0.67137">
        <ele>56.3745117</ele>
        <time>2012-05-13T09:02:13Z</time>
      </trkpt>
      <trkpt lat="44.81397" lon="0.67141">
        <ele>59.2584229</ele>
        <time>2012-05-13T09:02:20Z</time>
      </trkpt>
      <trkpt lat="44.81388" lon="0.67142">
        <ele>60.7003174</ele>
        <time>2012-05-13T09:02:25Z</time>
      </trkpt>
      <trkpt lat="44.81371" lon="0.67146">
        <ele>61.1810303</ele>
        <time>2012-05-13T09:02:32Z</time>
      </trkpt>
      <trkpt lat="44.81364" lon="0.67145">
        <ele>62.142334</ele>
        <time>2012-05-13T09:02:36Z</time>
      </trkpt>
      <trkpt lat="44.81362" lon="0.67146">
        <ele>62.142334</ele>
        <time>2012-05-13T09:02:38Z</time>
      </trkpt>
      <trkpt lat="44.81356" lon="0.67146">
        <ele>64.0650635</ele>
        <time>2012-05-13T09:02:43Z</time>
      </trkpt>
      <trkpt lat="44.8135" lon="0.67148">
        <ele>65.9876709</ele>
        <time>2012-05-13T09:02:48Z</time>
      </trkpt>
      <trkpt lat="44.81342" lon="0.6715">
        <ele>65.5070801</ele>
        <time>2012-05-13T09:02:52Z</time>
      </trkpt>
      <trkpt lat="44.8134" lon="0.6715">
        <ele>65.5070801</ele>
        <time>2012-05-13T09:02:53Z</time>
      </trkpt>
      <trkpt lat="44.8134" lon="0.6715">
        <ele>65.5070801</ele>
        <time>2012-05-13T09:02:53Z</time>
      </trkpt>
      <trkpt lat="44.81334" lon="0.67149">
        <ele>64.0650635</ele>
        <time>2012-05-13T09:02:57Z</time>
      </trkpt>
      <trkpt lat="44.81327" lon="0.67148">
        <ele>63.1036377</ele>
        <time>2012-05-13T09:03:01Z</time>
      </trkpt>
      <trkpt lat="44.81314" lon="0.67149">
        <ele>62.142334</ele>
        <time>2012-05-13T09:03:07Z</time>
      </trkpt>
      <trkpt lat="44.81303" lon="0.6715">
        <ele>65.0263672</ele>
        <time>2012-05-13T09:03:12Z</time>
      </trkpt>
      <trkpt lat="44.81292" lon="0.67152">
        <ele>68.3908691</ele>
        <time>2012-05-13T09:03:17Z</time>
      </trkpt>
      <trkpt lat="44.81278" lon="0.67155">
        <ele>70.3134766</ele>
        <time>2012-05-13T09:03:23Z</time>
      </trkpt>
      <trkpt lat="44.81267" lon="0.67157">
        <ele>72.7169189</ele>
        <time>2012-05-13T09:03:28Z</time>
      </trkpt>
      <trkpt lat="44.81261" lon="0.67156">
        <ele>73.1976318</ele>
        <time>2012-05-13T09:03:31Z</time>
      </trkpt>
      <trkpt lat="44.81248" lon="0.67155">
        <ele>74.6395264</ele>
        <time>2012-05-13T09:03:37Z</time>
      </trkpt>
      <trkpt lat="44.81247" lon="0.67154">
        <ele>75.1202393</ele>
        <time>2012-05-13T09:03:38Z</time>
      </trkpt>
      <trkpt lat="44.81234" lon="0.67155">
        <ele>78.9654541</ele>
        <time>2012-05-13T09:03:44Z</time>
      </trkpt>
      <trkpt lat="44.81222" lon="0.67159">
        <ele>82.810791</ele>
        <time>2012-05-13T09:03:49Z</time>
      </trkpt>
      <trkpt lat="44.8122" lon="0.67159">
        <ele>82.810791</ele>
        <time>2012-05-13T09:03:50Z</time>
      </trkpt>
      <trkpt lat="44.81208" lon="0.67158">
        <ele>84.2526855</ele>
        <time>2012-05-13T09:03:56Z</time>
      </trkpt>
      <trkpt lat="44.81197" lon="0.67159">
        <ele>84.2526855</ele>
        <time>2012-05-13T09:04:01Z</time>
      </trkpt>
      <trkpt lat="44.81191" lon="0.6716">
        <ele>83.7719727</ele>
        <time>2012-05-13T09:04:04Z</time>
      </trkpt>
      <trkpt lat="44.81181" lon="0.67159">
        <ele>81.3687744</ele>
        <time>2012-05-13T09:04:09Z</time>
      </trkpt>
      <trkpt lat="44.81169" lon="0.67157">
        <ele>82.810791</ele>
        <time>2012-05-13T09:04:15Z</time>
      </trkpt>
      <trkpt lat="44.81155" lon="0.6716">
        <ele>83.2913818</ele>
        <time>2012-05-13T09:04:20Z</time>
      </trkpt>
      <trkpt lat="44.81145" lon="0.67164">
        <ele>84.2526855</ele>
        <time>2012-05-13T09:04:24Z</time>
      </trkpt>
      <trkpt lat="44.8114" lon="0.67165">
        <ele>84.7333984</ele>
        <time>2012-05-13T09:04:26Z</time>
      </trkpt>
      <trkpt lat="44.81128" lon="0.67161">
        <ele>85.2139893</ele>
        <time>2012-05-13T09:04:32Z</time>
      </trkpt>
      <trkpt lat="44.81119" lon="0.67159">
        <ele>85.6945801</ele>
        <time>2012-05-13T09:04:36Z</time>
      </trkpt>
      <trkpt lat="44.81109" lon="0.67161">
        <ele>84.7333984</ele>
        <time>2012-05-13T09:04:40Z</time>
      </trkpt>
      <trkpt lat="44.81096" lon="0.6716">
        <ele>87.1365967</ele>
        <time>2012-05-13T09:04:45Z</time>
      </trkpt>
      <trkpt lat="44.81084" lon="0.67161">
        <ele>87.1365967</ele>
        <time>2012-05-13T09:04:50Z</time>
      </trkpt>
      <trkpt lat="44.81072" lon="0.67158">
        <ele>85.2139893</ele>
        <time>2012-05-13T09:04:55Z</time>
      </trkpt>
      <trkpt lat="44.81067" lon="0.67157">
        <ele>84.7333984</ele>
        <time>2012-05-13T09:04:57Z</time>
      </trkpt>
      <trkpt lat="44.81055" lon="0.67154">
        <ele>83.7719727</ele>
        <time>2012-05-13T09:05:02Z</time>
      </trkpt>
      <trkpt lat="44.81047" lon="0.6715">
        <ele>83.2913818</ele>
        <time>2012-05-13T09:05:06Z</time>
      </trkpt>
      <trkpt lat="44.81035" lon="0.67147">
        <ele>84.7333984</ele>
        <time>2012-05-13T09:05:11Z</time>
      </trkpt>
      <trkpt lat="44.8103" lon="0.67146">
        <ele>86.6560059</ele>
        <time>2012-05-13T09:05:13Z</time>
      </trkpt>
      <trkpt lat="44.81023" lon="0.67148">
        <ele>88.0980225</ele>
        <time>2012-05-13T09:05:16Z</time>
      </trkpt>
      <trkpt lat="44.81021" lon="0.67152">
        <ele>90.9819336</ele>
        <time>2012-05-13T09:05:20Z</time>
      </trkpt>
      <trkpt lat="44.81022" lon="0.6715">
        <ele>97.7111816</ele>
        <time>2012-05-13T09:05:27Z</time>
      </trkpt>
      <trkpt lat="44.81022" lon="0.67148">
        <ele>102.5177002</ele>
        <time>2012-05-13T09:05:33Z</time>
      </trkpt>
      <trkpt lat="44.81021" lon="0.67147">
        <ele>106.3630371</ele>
        <time>2012-05-13T09:05:42Z</time>
      </trkpt>
      <trkpt lat="44.81021" lon="0.67144">
        <ele>117.4182129</ele>
        <time>2012-05-13T09:06:00Z</time>
      </trkpt>
      <trkpt lat="44.8102" lon="0.67146">
        <ele>117.8988037</ele>
        <time>2012-05-13T09:06:17Z</time>
      </trkpt>
      <trkpt lat="44.81021" lon="0.67146">
        <ele>120.302124</ele>
        <time>2012-05-13T09:06:29Z</time>
      </trkpt>
      <trkpt lat="44.81021" lon="0.67146">
        <ele>121.2635498</ele>
        <time>2012-05-13T09:06:37Z</time>
      </trkpt>
      <trkpt lat="44.81018" lon="0.67148">
        <ele>116.9375</ele>
        <time>2012-05-13T09:06:48Z</time>
      </trkpt>
      <trkpt lat="44.81019" lon="0.67149">
        <ele>115.9761963</ele>
        <time>2012-05-13T09:06:54Z</time>
      </trkpt>
      <trkpt lat="44.81018" lon="0.67155">
        <ele>112.6115723</ele>
        <time>2012-05-13T09:07:01Z</time>
      </trkpt>
      <trkpt lat="44.81014" lon="0.67163">
        <ele>108.7662354</ele>
        <time>2012-05-13T09:07:06Z</time>
      </trkpt>
      <trkpt lat="44.81014" lon="0.67165">
        <ele>108.2856445</ele>
        <time>2012-05-13T09:07:07Z</time>
      </trkpt>
      <trkpt lat="44.81009" lon="0.67172">
        <ele>102.0371094</ele>
        <time>2012-05-13T09:07:14Z</time>
      </trkpt>
      <trkpt lat="44.81004" lon="0.67182">
        <ele>99.6337891</ele>
        <time>2012-05-13T09:07:19Z</time>
      </trkpt>
      <trkpt lat="44.81001" lon="0.67186">
        <ele>97.2304688</ele>
        <time>2012-05-13T09:07:22Z</time>
      </trkpt>
      <trkpt lat="44.81" lon="0.67189">
        <ele>97.2304688</ele>
        <time>2012-05-13T09:07:24Z</time>
      </trkpt>
      <trkpt lat="44.80996" lon="0.67199">
        <ele>96.7498779</ele>
        <time>2012-05-13T09:07:30Z</time>
      </trkpt>
      <trkpt lat="44.80993" lon="0.67205">
        <ele>97.7111816</ele>
        <time>2012-05-13T09:07:33Z</time>
      </trkpt>
      <trkpt lat="44.80981" lon="0.67217">
        <ele>98.1918945</ele>
        <time>2012-05-13T09:07:38Z</time>
      </trkpt>
      <trkpt lat="44.80975" lon="0.67219">
        <ele>98.1918945</ele>
        <time>2012-05-13T09:07:40Z</time>
      </trkpt>
      <trkpt lat="44.80959" lon="0.67229">
        <ele>98.1918945</ele>
        <time>2012-05-13T09:07:46Z</time>
      </trkpt>
      <trkpt lat="44.8095" lon="0.67234">
        <ele>95.7884521</ele>
        <time>2012-05-13T09:07:51Z</time>
      </trkpt>
      <trkpt lat="44.80938" lon="0.67246">
        <ele>94.3465576</ele>
        <time>2012-05-13T09:07:55Z</time>
      </trkpt>
      <trkpt lat="44.80926" lon="0.67253">
        <ele>93.8658447</ele>
        <time>2012-05-13T09:07:59Z</time>
      </trkpt>
      <trkpt lat="44.80913" lon="0.67255">
        <ele>90.5013428</ele>
        <time>2012-05-13T09:08:04Z</time>
      </trkpt>
      <trkpt lat="44.80899" lon="0.67253">
        <ele>86.175293</ele>
        <time>2012-05-13T09:08:09Z</time>
      </trkpt>
      <trkpt lat="44.80881" lon="0.67256">
        <ele>86.6560059</ele>
        <time>2012-05-13T09:08:15Z</time>
      </trkpt>
      <trkpt lat="44.80871" lon="0.67255">
        <ele>88.0980225</ele>
        <time>2012-05-13T09:08:19Z</time>
      </trkpt>
      <trkpt lat="44.80856" lon="0.6726">
        <ele>90.0206299</ele>
        <time>2012-05-13T09:08:24Z</time>
      </trkpt>
      <trkpt lat="44.80853" lon="0.6726">
        <ele>90.0206299</ele>
        <time>2012-05-13T09:08:25Z</time>
      </trkpt>
      <trkpt lat="44.8084" lon="0.67265">
        <ele>90.5013428</ele>
        <time>2012-05-13T09:08:30Z</time>
      </trkpt>
      <trkpt lat="44.80831" lon="0.67269">
        <ele>90.5013428</ele>
        <time>2012-05-13T09:08:33Z</time>
      </trkpt>
      <trkpt lat="44.80812" lon="0.67267">
        <ele>90.5013428</ele>
        <time>2012-05-13T09:08:39Z</time>
      </trkpt>
      <trkpt lat="44.80809" lon="0.67266">
        <ele>89.539917</ele>
        <time>2012-05-13T09:08:40Z</time>
      </trkpt>
      <trkpt lat="44.80797" lon="0.67259">
        <ele>88.5787354</ele>
        <time>2012-05-13T09:08:45Z</time>
      </trkpt>
      <trkpt lat="44.80791" lon="0.67258">
        <ele>87.1365967</ele>
        <time>2012-05-13T09:08:47Z</time>
      </trkpt>
      <trkpt lat="44.80776" lon="0.67259">
        <ele>86.6560059</ele>
        <time>2012-05-13T09:08:52Z</time>
      </trkpt>
      <trkpt lat="44.80764" lon="0.67265">
        <ele>87.1365967</ele>
        <time>2012-05-13T09:08:56Z</time>
      </trkpt>
      <trkpt lat="44.80749" lon="0.67263">
        <ele>85.6945801</ele>
        <time>2012-05-13T09:09:01Z</time>
      </trkpt>
      <trkpt lat="44.80739" lon="0.67264">
        <ele>84.7333984</ele>
        <time>2012-05-13T09:09:04Z</time>
      </trkpt>
      <trkpt lat="44.80724" lon="0.67255">
        <ele>81.8493652</ele>
        <time>2012-05-13T09:09:10Z</time>
      </trkpt>
      <trkpt lat="44.80713" lon="0.67256">
        <ele>81.3687744</ele>
        <time>2012-05-13T09:09:14Z</time>
      </trkpt>
      <trkpt lat="44.80701" lon="0.67259">
        <ele>82.3300781</ele>
        <time>2012-05-13T09:09:18Z</time>
      </trkpt>
      <trkpt lat="44.8069" lon="0.67265">
        <ele>84.7333984</ele>
        <time>2012-05-13T09:09:22Z</time>
      </trkpt>
      <trkpt lat="44.80686" lon="0.67266">
        <ele>85.2139893</ele>
        <time>2012-05-13T09:09:24Z</time>
      </trkpt>
      <trkpt lat="44.80682" lon="0.67268">
        <ele>89.0593262</ele>
        <time>2012-05-13T09:09:27Z</time>
      </trkpt>
      <trkpt lat="44.8068" lon="0.67268">
        <ele>90.0206299</ele>
        <time>2012-05-13T09:09:29Z</time>
      </trkpt>
      <trkpt lat="44.80675" lon="0.67273">
        <ele>92.4239502</ele>
        <time>2012-05-13T09:09:33Z</time>
      </trkpt>
      <trkpt lat="44.80671" lon="0.67278">
        <ele>92.904541</ele>
        <time>2012-05-13T09:09:36Z</time>
      </trkpt>
      <trkpt lat="44.80664" lon="0.67286">
        <ele>92.4239502</ele>
        <time>2012-05-13T09:09:40Z</time>
      </trkpt>
      <trkpt lat="44.8065" lon="0.67303">
        <ele>90.9819336</ele>
        <time>2012-05-13T09:09:45Z</time>
      </trkpt>
      <trkpt lat="44.80635" lon="0.67319">
        <ele>91.4625244</ele>
        <time>2012-05-13T09:09:48Z</time>
      </trkpt>
      <trkpt lat="44.80627" lon="0.67329">
        <ele>92.4239502</ele>
        <time>2012-05-13T09:09:50Z</time>
      </trkpt>
      <trkpt lat="44.80616" lon="0.67343">
        <ele>93.8658447</ele>
        <time>2012-05-13T09:09:53Z</time>
      </trkpt>
      <trkpt lat="44.8061" lon="0.67349">
        <ele>94.3465576</ele>
        <time>2012-05-13T09:09:56Z</time>
      </trkpt>
      <trkpt lat="44.80596" lon="0.67359">
        <ele>93.3851318</ele>
        <time>2012-05-13T09:10:03Z</time>
      </trkpt>
      <trkpt lat="44.80589" lon="0.67363">
        <ele>91.9432373</ele>
        <time>2012-05-13T09:10:06Z</time>
      </trkpt>
      <trkpt lat="44.80571" lon="0.67369">
        <ele>86.175293</ele>
        <time>2012-05-13T09:10:13Z</time>
      </trkpt>
      <trkpt lat="44.80566" lon="0.67369">
        <ele>86.175293</ele>
        <time>2012-05-13T09:10:15Z</time>
      </trkpt>
      <trkpt lat="44.80553" lon="0.6737">
        <ele>82.3300781</ele>
        <time>2012-05-13T09:10:20Z</time>
      </trkpt>
      <trkpt lat="44.80541" lon="0.67372">
        <ele>82.810791</ele>
        <time>2012-05-13T09:10:25Z</time>
      </trkpt>
      <trkpt lat="44.80529" lon="0.67369">
        <ele>84.2526855</ele>
        <time>2012-05-13T09:10:31Z</time>
      </trkpt>
      <trkpt lat="44.80518" lon="0.67365">
        <ele>81.8493652</ele>
        <time>2012-05-13T09:10:35Z</time>
      </trkpt>
      <trkpt lat="44.8051" lon="0.67364">
        <ele>79.9266357</ele>
        <time>2012-05-13T09:10:38Z</time>
      </trkpt>
      <trkpt lat="44.80502" lon="0.6736">
        <ele>79.4460449</ele>
        <time>2012-05-13T09:10:41Z</time>
      </trkpt>
      <trkpt lat="44.80497" lon="0.67357">
        <ele>79.9266357</ele>
        <time>2012-05-13T09:10:43Z</time>
      </trkpt>
      <trkpt lat="44.80488" lon="0.67355">
        <ele>81.3687744</ele>
        <time>2012-05-13T09:10:46Z</time>
      </trkpt>
      <trkpt lat="44.80464" lon="0.6736">
        <ele>81.8493652</ele>
        <time>2012-05-13T09:10:53Z</time>
      </trkpt>
      <trkpt lat="44.80453" lon="0.67359">
        <ele>81.3687744</ele>
        <time>2012-05-13T09:10:57Z</time>
      </trkpt>
      <trkpt lat="44.8044" lon="0.67353">
        <ele>78.4847412</ele>
        <time>2012-05-13T09:11:02Z</time>
      </trkpt>
      <trkpt lat="44.80429" lon="0.67349">
        <ele>77.0428467</ele>
        <time>2012-05-13T09:11:06Z</time>
      </trkpt>
      <trkpt lat="44.80422" lon="0.67348">
        <ele>77.5234375</ele>
        <time>2012-05-13T09:11:09Z</time>
      </trkpt>
      <trkpt lat="44.80407" lon="0.67345">
        <ele>80.8881836</ele>
        <time>2012-05-13T09:11:15Z</time>
      </trkpt>
      <trkpt lat="44.80399" lon="0.67345">
        <ele>83.2913818</ele>
        <time>2012-05-13T09:11:19Z</time>
      </trkpt>
      <trkpt lat="44.80389" lon="0.67355">
        <ele>83.7719727</ele>
        <time>2012-05-13T09:11:23Z</time>
      </trkpt>
      <trkpt lat="44.80379" lon="0.67372">
        <ele>83.7719727</ele>
        <time>2012-05-13T09:11:29Z</time>
      </trkpt>
      <trkpt lat="44.80375" lon="0.67378">
        <ele>84.2526855</ele>
        <time>2012-05-13T09:11:31Z</time>
      </trkpt>
      <trkpt lat="44.80362" lon="0.67377">
        <ele>78.4847412</ele>
        <time>2012-05-13T09:11:36Z</time>
      </trkpt>
      <trkpt lat="44.80351" lon="0.67375">
        <ele>77.0428467</ele>
        <time>2012-05-13T09:11:40Z</time>
      </trkpt>
      <trkpt lat="44.8034" lon="0.67374">
        <ele>74.6395264</ele>
        <time>2012-05-13T09:11:46Z</time>
      </trkpt>
      <trkpt lat="44.80338" lon="0.67375">
        <ele>74.1588135</ele>
        <time>2012-05-13T09:11:47Z</time>
      </trkpt>
      <trkpt lat="44.8033" lon="0.67377">
        <ele>72.7169189</ele>
        <time>2012-05-13T09:11:52Z</time>
      </trkpt>
      <trkpt lat="44.80326" lon="0.67376">
        <ele>71.7554932</ele>
        <time>2012-05-13T09:11:54Z</time>
      </trkpt>
      <trkpt lat="44.80304" lon="0.67405">
        <ele>75.6008301</ele>
        <time>2012-05-13T09:11:58Z</time>
      </trkpt>
      <trkpt lat="44.80297" lon="0.67406">
        <ele>76.0814209</ele>
        <time>2012-05-13T09:12:01Z</time>
      </trkpt>
      <trkpt lat="44.80288" lon="0.67404">
        <ele>75.6008301</ele>
        <time>2012-05-13T09:12:05Z</time>
      </trkpt>
      <trkpt lat="44.80274" lon="0.67406">
        <ele>74.1588135</ele>
        <time>2012-05-13T09:12:10Z</time>
      </trkpt>
      <trkpt lat="44.80261" lon="0.67412">
        <ele>75.6008301</ele>
        <time>2012-05-13T09:12:14Z</time>
      </trkpt>
      <trkpt lat="44.80245" lon="0.6742">
        <ele>73.6782227</ele>
        <time>2012-05-13T09:12:19Z</time>
      </trkpt>
      <trkpt lat="44.80232" lon="0.67422">
        <ele>72.7169189</ele>
        <time>2012-05-13T09:12:24Z</time>
      </trkpt>
      <trkpt lat="44.8022" lon="0.67424">
        <ele>75.6008301</ele>
        <time>2012-05-13T09:12:29Z</time>
      </trkpt>
      <trkpt lat="44.80203" lon="0.67429">
        <ele>78.0040283</ele>
        <time>2012-05-13T09:12:35Z</time>
      </trkpt>
      <trkpt lat="44.80191" lon="0.67435">
        <ele>78.9654541</ele>
        <time>2012-05-13T09:12:39Z</time>
      </trkpt>
      <trkpt lat="44.80176" lon="0.67442">
        <ele>80.4074707</ele>
        <time>2012-05-13T09:12:44Z</time>
      </trkpt>
      <trkpt lat="44.80162" lon="0.67444">
        <ele>79.9266357</ele>
        <time>2012-05-13T09:12:48Z</time>
      </trkpt>
      <trkpt lat="44.8015" lon="0.67449">
        <ele>78.9654541</ele>
        <time>2012-05-13T09:12:52Z</time>
      </trkpt>
      <trkpt lat="44.80149" lon="0.67449">
        <ele>78.9654541</ele>
        <time>2012-05-13T09:12:53Z</time>
      </trkpt>
      <trkpt lat="44.80139" lon="0.67449">
        <ele>78.0040283</ele>
        <time>2012-05-13T09:12:58Z</time>
      </trkpt>
      <trkpt lat="44.80127" lon="0.67446">
        <ele>75.6008301</ele>
        <time>2012-05-13T09:13:03Z</time>
      </trkpt>
      <trkpt lat="44.80119" lon="0.67436">
        <ele>74.6395264</ele>
        <time>2012-05-13T09:13:07Z</time>
      </trkpt>
      <trkpt lat="44.80109" lon="0.67423">
        <ele>75.1202393</ele>
        <time>2012-05-13T09:13:13Z</time>
      </trkpt>
      <trkpt lat="44.80102" lon="0.67424">
        <ele>76.0814209</ele>
        <time>2012-05-13T09:13:17Z</time>
      </trkpt>
      <trkpt lat="44.801" lon="0.67423">
        <ele>76.0814209</ele>
        <time>2012-05-13T09:13:18Z</time>
      </trkpt>
      <trkpt lat="44.80098" lon="0.67423">
        <ele>77.0428467</ele>
        <time>2012-05-13T09:13:20Z</time>
      </trkpt>
      <trkpt lat="44.80101" lon="0.67421">
        <ele>78.4847412</ele>
        <time>2012-05-13T09:13:26Z</time>
      </trkpt>
      <trkpt lat="44.80096" lon="0.67422">
        <ele>78.4847412</ele>
        <time>2012-05-13T09:13:32Z</time>
      </trkpt>
      <trkpt lat="44.8009" lon="0.67423">
        <ele>78.0040283</ele>
        <time>2012-05-13T09:13:37Z</time>
      </trkpt>
      <trkpt lat="44.8009" lon="0.67423">
        <ele>77.5234375</ele>
        <time>2012-05-13T09:13:42Z</time>
      </trkpt>
      <trkpt lat="44.80091" lon="0.67424">
        <ele>78.0040283</ele>
        <time>2012-05-13T09:13:49Z</time>
      </trkpt>
      <trkpt lat="44.80089" lon="0.67426">
        <ele>78.9654541</ele>
        <time>2012-05-13T09:13:54Z</time>
      </trkpt>
      <trkpt lat="44.80086" lon="0.67426">
        <ele>78.9654541</ele>
        <time>2012-05-13T09:13:58Z</time>
      </trkpt>
      <trkpt lat="44.80078" lon="0.67428">
        <ele>78.9654541</ele>
        <time>2012-05-13T09:14:03Z</time>
      </trkpt>
      <trkpt lat="44.80065" lon="0.6743">
        <ele>78.0040283</ele>
        <time>2012-05-13T09:14:07Z</time>
      </trkpt>
      <trkpt lat="44.80051" lon="0.67434">
        <ele>77.5234375</ele>
        <time>2012-05-13T09:14:11Z</time>
      </trkpt>
      <trkpt lat="44.80042" lon="0.67435">
        <ele>78.9654541</ele>
        <time>2012-05-13T09:14:15Z</time>
      </trkpt>
      <trkpt lat="44.80034" lon="0.67434">
        <ele>78.9654541</ele>
        <time>2012-05-13T09:14:19Z</time>
      </trkpt>
      <trkpt lat="44.80021" lon="0.67433">
        <ele>79.4460449</ele>
        <time>2012-05-13T09:14:25Z</time>
      </trkpt>
      <trkpt lat="44.80011" lon="0.67432">
        <ele>79.9266357</ele>
        <time>2012-05-13T09:14:30Z</time>
      </trkpt>
      <trkpt lat="44.80007" lon="0.67433">
        <ele>78.9654541</ele>
        <time>2012-05-13T09:14:31Z</time>
      </trkpt>
      <trkpt lat="44.79999" lon="0.67433">
        <ele>77.0428467</ele>
        <time>2012-05-13T09:14:34Z</time>
      </trkpt>
      <trkpt lat="44.79984" lon="0.67439">
        <ele>76.5621338</ele>
        <time>2012-05-13T09:14:39Z</time>
      </trkpt>
      <trkpt lat="44.79977" lon="0.67442">
        <ele>76.5621338</ele>
        <time>2012-05-13T09:14:41Z</time>
      </trkpt>
      <trkpt lat="44.79964" lon="0.67437">
        <ele>75.1202393</ele>
        <time>2012-05-13T09:14:47Z</time>
      </trkpt>
      <trkpt lat="44.79949" lon="0.67435">
        <ele>73.6782227</ele>
        <time>2012-05-13T09:14:53Z</time>
      </trkpt>
      <trkpt lat="44.79939" lon="0.67438">
        <ele>73.6782227</ele>
        <time>2012-05-13T09:14:57Z</time>
      </trkpt>
      <trkpt lat="44.79928" lon="0.67441">
        <ele>73.6782227</ele>
        <time>2012-05-13T09:15:01Z</time>
      </trkpt>
      <trkpt lat="44.79914" lon="0.67442">
        <ele>73.1976318</ele>
        <time>2012-05-13T09:15:06Z</time>
      </trkpt>
      <trkpt lat="44.79903" lon="0.67444">
        <ele>75.6008301</ele>
        <time>2012-05-13T09:15:11Z</time>
      </trkpt>
      <trkpt lat="44.79889" lon="0.67445">
        <ele>76.5621338</ele>
        <time>2012-05-13T09:15:16Z</time>
      </trkpt>
      <trkpt lat="44.79874" lon="0.67439">
        <ele>74.1588135</ele>
        <time>2012-05-13T09:15:22Z</time>
      </trkpt>
      <trkpt lat="44.79859" lon="0.67445">
        <ele>75.1202393</ele>
        <time>2012-05-13T09:15:27Z</time>
      </trkpt>
      <trkpt lat="44.79847" lon="0.67445">
        <ele>74.1588135</ele>
        <time>2012-05-13T09:15:32Z</time>
      </trkpt>
      <trkpt lat="44.79839" lon="0.6745">
        <ele>72.7169189</ele>
        <time>2012-05-13T09:15:36Z</time>
      </trkpt>
      <trkpt lat="44.7983" lon="0.67451">
        <ele>69.8328857</ele>
        <time>2012-05-13T09:15:40Z</time>
      </trkpt>
      <trkpt lat="44.79815" lon="0.67452">
        <ele>65.5070801</ele>
        <time>2012-05-13T09:15:45Z</time>
      </trkpt>
      <trkpt lat="44.79811" lon="0.67451">
        <ele>64.0650635</ele>
        <time>2012-05-13T09:15:47Z</time>
      </trkpt>
      <trkpt lat="44.79798" lon="0.67448">
        <ele>60.7003174</ele>
        <time>2012-05-13T09:15:52Z</time>
      </trkpt>
      <trkpt lat="44.79786" lon="0.67441">
        <ele>59.2584229</ele>
        <time>2012-05-13T09:15:57Z</time>
      </trkpt>
      <trkpt lat="44.79782" lon="0.67438">
        <ele>60.2197266</ele>
        <time>2012-05-13T09:15:59Z</time>
      </trkpt>
      <trkpt lat="44.79774" lon="0.67433">
        <ele>60.2197266</ele>
        <time>2012-05-13T09:16:03Z</time>
      </trkpt>
      <trkpt lat="44.7976" lon="0.67426">
        <ele>62.6229248</ele>
        <time>2012-05-13T09:16:09Z</time>
      </trkpt>
      <trkpt lat="44.79749" lon="0.67417">
        <ele>62.6229248</ele>
        <time>2012-05-13T09:16:13Z</time>
      </trkpt>
      <trkpt lat="44.79747" lon="0.67414">
        <ele>63.1036377</ele>
        <time>2012-05-13T09:16:14Z</time>
      </trkpt>
      <trkpt lat="44.79735" lon="0.67412">
        <ele>63.5843506</ele>
        <time>2012-05-13T09:16:18Z</time>
      </trkpt>
      <trkpt lat="44.79719" lon="0.6741">
        <ele>64.0650635</ele>
        <time>2012-05-13T09:16:23Z</time>
      </trkpt>
      <trkpt lat="44.79707" lon="0.67409">
        <ele>63.5843506</ele>
        <time>2012-05-13T09:16:27Z</time>
      </trkpt>
      <trkpt lat="44.79698" lon="0.67408">
        <ele>63.5843506</ele>
        <time>2012-05-13T09:16:30Z</time>
      </trkpt>
      <trkpt lat="44.79683" lon="0.67406">
        <ele>64.5456543</ele>
        <time>2012-05-13T09:16:35Z</time>
      </trkpt>
      <trkpt lat="44.7966" lon="0.6741">
        <ele>65.9876709</ele>
        <time>2012-05-13T09:16:42Z</time>
      </trkpt>
      <trkpt lat="44.79654" lon="0.67409">
        <ele>65.9876709</ele>
        <time>2012-05-13T09:16:45Z</time>
      </trkpt>
      <trkpt lat="44.79652" lon="0.67409">
        <ele>65.9876709</ele>
        <time>2012-05-13T09:16:46Z</time>
      </trkpt>
      <trkpt lat="44.79643" lon="0.67413">
        <ele>67.4296875</ele>
        <time>2012-05-13T09:16:49Z</time>
      </trkpt>
      <trkpt lat="44.7963" lon="0.67414">
        <ele>69.3522949</ele>
        <time>2012-05-13T09:16:54Z</time>
      </trkpt>
      <trkpt lat="44.79627" lon="0.67415">
        <ele>69.8328857</ele>
        <time>2012-05-13T09:16:55Z</time>
      </trkpt>
      <trkpt lat="44.79617" lon="0.67412">
        <ele>69.8328857</ele>
        <time>2012-05-13T09:17:00Z</time>
      </trkpt>
      <trkpt lat="44.79605" lon="0.6741">
        <ele>66.9489746</ele>
        <time>2012-05-13T09:17:04Z</time>
      </trkpt>
      <trkpt lat="44.79591" lon="0.67404">
        <ele>67.4296875</ele>
        <time>2012-05-13T09:17:11Z</time>
      </trkpt>
      <trkpt lat="44.79589" lon="0.67404">
        <ele>67.9102783</ele>
        <time>2012-05-13T09:17:12Z</time>
      </trkpt>
      <trkpt lat="44.79583" lon="0.67401">
        <ele>67.4296875</ele>
        <time>2012-05-13T09:17:15Z</time>
      </trkpt>
      <trkpt lat="44.79572" lon="0.67401">
        <ele>66.4682617</ele>
        <time>2012-05-13T09:17:20Z</time>
      </trkpt>
      <trkpt lat="44.79568" lon="0.67404">
        <ele>68.3908691</ele>
        <time>2012-05-13T09:17:23Z</time>
      </trkpt>
      <trkpt lat="44.79566" lon="0.67405">
        <ele>69.3522949</ele>
        <time>2012-05-13T09:17:26Z</time>
      </trkpt>
      <trkpt lat="44.79553" lon="0.67409">
        <ele>67.9102783</ele>
        <time>2012-05-13T09:17:32Z</time>
      </trkpt>
      <trkpt lat="44.79539" lon="0.67414">
        <ele>67.9102783</ele>
        <time>2012-05-13T09:17:37Z</time>
      </trkpt>
      <trkpt lat="44.79534" lon="0.67414">
        <ele>65.9876709</ele>
        <time>2012-05-13T09:17:39Z</time>
      </trkpt>
      <trkpt lat="44.79524" lon="0.67413">
        <ele>65.0263672</ele>
        <time>2012-05-13T09:17:43Z</time>
      </trkpt>
      <trkpt lat="44.79509" lon="0.67408">
        <ele>64.5456543</ele>
        <time>2012-05-13T09:17:50Z</time>
      </trkpt>
      <trkpt lat="44.79499" lon="0.67402">
        <ele>65.0263672</ele>
        <time>2012-05-13T09:17:54Z</time>
      </trkpt>
      <trkpt lat="44.79491" lon="0.67397">
        <ele>67.4296875</ele>
        <time>2012-05-13T09:17:58Z</time>
      </trkpt>
      <trkpt lat="44.79488" lon="0.67396">
        <ele>67.9102783</ele>
        <time>2012-05-13T09:18:00Z</time>
      </trkpt>
      <trkpt lat="44.79475" lon="0.67396">
        <ele>71.7554932</ele>
        <time>2012-05-13T09:18:06Z</time>
      </trkpt>
      <trkpt lat="44.79471" lon="0.67395">
        <ele>73.1976318</ele>
        <time>2012-05-13T09:18:08Z</time>
      </trkpt>
      <trkpt lat="44.79463" lon="0.67391">
        <ele>73.1976318</ele>
        <time>2012-05-13T09:18:12Z</time>
      </trkpt>
      <trkpt lat="44.7945" lon="0.67386">
        <ele>75.6008301</ele>
        <time>2012-05-13T09:18:17Z</time>
      </trkpt>
      <trkpt lat="44.79437" lon="0.6738">
        <ele>76.5621338</ele>
        <time>2012-05-13T09:18:22Z</time>
      </trkpt>
      <trkpt lat="44.79423" lon="0.67379">
        <ele>78.9654541</ele>
        <time>2012-05-13T09:18:28Z</time>
      </trkpt>
      <trkpt lat="44.79414" lon="0.67375">
        <ele>80.8881836</ele>
        <time>2012-05-13T09:18:33Z</time>
      </trkpt>
      <trkpt lat="44.7941" lon="0.67374">
        <ele>80.8881836</ele>
        <time>2012-05-13T09:18:35Z</time>
      </trkpt>
      <trkpt lat="44.79395" lon="0.67369">
        <ele>79.4460449</ele>
        <time>2012-05-13T09:18:41Z</time>
      </trkpt>
      <trkpt lat="44.79389" lon="0.67363">
        <ele>78.4847412</ele>
        <time>2012-05-13T09:18:44Z</time>
      </trkpt>
      <trkpt lat="44.7937" lon="0.67357">
        <ele>77.0428467</ele>
        <time>2012-05-13T09:18:50Z</time>
      </trkpt>
      <trkpt lat="44.79366" lon="0.67356">
        <ele>76.0814209</ele>
        <time>2012-05-13T09:18:51Z</time>
      </trkpt>
      <trkpt lat="44.79348" lon="0.67353">
        <ele>74.6395264</ele>
        <time>2012-05-13T09:18:56Z</time>
      </trkpt>
      <trkpt lat="44.79334" lon="0.67347">
        <ele>72.7169189</ele>
        <time>2012-05-13T09:19:01Z</time>
      </trkpt>
      <trkpt lat="44.79324" lon="0.67332">
        <ele>71.7554932</ele>
        <time>2012-05-13T09:19:06Z</time>
      </trkpt>
      <trkpt lat="44.79316" lon="0.67315">
        <ele>73.6782227</ele>
        <time>2012-05-13T09:19:11Z</time>
      </trkpt>
      <trkpt lat="44.79308" lon="0.67304">
        <ele>72.7169189</ele>
        <time>2012-05-13T09:19:15Z</time>
      </trkpt>
      <trkpt lat="44.79296" lon="0.67291">
        <ele>71.7554932</ele>
        <time>2012-05-13T09:19:20Z</time>
      </trkpt>
      <trkpt lat="44.79282" lon="0.67288">
        <ele>68.871582</ele>
        <time>2012-05-13T09:19:25Z</time>
      </trkpt>
      <trkpt lat="44.79268" lon="0.67288">
        <ele>68.3908691</ele>
        <time>2012-05-13T09:19:30Z</time>
      </trkpt>
      <trkpt lat="44.79262" lon="0.6728">
        <ele>69.8328857</ele>
        <time>2012-05-13T09:19:34Z</time>
      </trkpt>
      <trkpt lat="44.79256" lon="0.6727">
        <ele>70.7941895</ele>
        <time>2012-05-13T09:19:39Z</time>
      </trkpt>
      <trkpt lat="44.79254" lon="0.67266">
        <ele>69.8328857</ele>
        <time>2012-05-13T09:19:41Z</time>
      </trkpt>
      <trkpt lat="44.79248" lon="0.67241">
        <ele>73.1976318</ele>
        <time>2012-05-13T09:19:48Z</time>
      </trkpt>
      <trkpt lat="44.79242" lon="0.67231">
        <ele>74.1588135</ele>
        <time>2012-05-13T09:19:52Z</time>
      </trkpt>
      <trkpt lat="44.79236" lon="0.67226">
        <ele>68.3908691</ele>
        <time>2012-05-13T09:19:57Z</time>
      </trkpt>
      <trkpt lat="44.79231" lon="0.67215">
        <ele>69.3522949</ele>
        <time>2012-05-13T09:20:01Z</time>
      </trkpt>
      <trkpt lat="44.79225" lon="0.67195">
        <ele>72.7169189</ele>
        <time>2012-05-13T09:20:07Z</time>
      </trkpt>
      <trkpt lat="44.79222" lon="0.67184">
        <ele>68.3908691</ele>
        <time>2012-05-13T09:20:12Z</time>
      </trkpt>
      <trkpt lat="44.79219" lon="0.67168">
        <ele>67.9102783</ele>
        <time>2012-05-13T09:20:17Z</time>
      </trkpt>
      <trkpt lat="44.79217" lon="0.67148">
        <ele>75.6008301</ele>
        <time>2012-05-13T09:20:22Z</time>
      </trkpt>
      <trkpt lat="44.79213" lon="0.67133">
        <ele>80.4074707</ele>
        <time>2012-05-13T09:20:26Z</time>
      </trkpt>
      <trkpt lat="44.79207" lon="0.67116">
        <ele>85.6945801</ele>
        <time>2012-05-13T09:20:31Z</time>
      </trkpt>
      <trkpt lat="44.79205" lon="0.67111">
        <ele>87.6171875</ele>
        <time>2012-05-13T09:20:33Z</time>
      </trkpt>
      <trkpt lat="44.79196" lon="0.67097">
        <ele>90.0206299</ele>
        <time>2012-05-13T09:20:38Z</time>
      </trkpt>
      <trkpt lat="44.79188" lon="0.67087">
        <ele>88.0980225</ele>
        <time>2012-05-13T09:20:42Z</time>
      </trkpt>
      <trkpt lat="44.79181" lon="0.67075">
        <ele>85.2139893</ele>
        <time>2012-05-13T09:20:47Z</time>
      </trkpt>
      <trkpt lat="44.79176" lon="0.67063">
        <ele>83.2913818</ele>
        <time>2012-05-13T09:20:52Z</time>
      </trkpt>
      <trkpt lat="44.79171" lon="0.67054">
        <ele>85.2139893</ele>
        <time>2012-05-13T09:20:55Z</time>
      </trkpt>
      <trkpt lat="44.79163" lon="0.67037">
        <ele>89.539917</ele>
        <time>2012-05-13T09:21:01Z</time>
      </trkpt>
      <trkpt lat="44.7916" lon="0.67024">
        <ele>89.539917</ele>
        <time>2012-05-13T09:21:05Z</time>
      </trkpt>
      <trkpt lat="44.79159" lon="0.67018">
        <ele>89.539917</ele>
        <time>2012-05-13T09:21:07Z</time>
      </trkpt>
      <trkpt lat="44.79158" lon="0.67005">
        <ele>90.9819336</ele>
        <time>2012-05-13T09:21:11Z</time>
      </trkpt>
      <trkpt lat="44.79157" lon="0.66999">
        <ele>92.4239502</ele>
        <time>2012-05-13T09:21:13Z</time>
      </trkpt>
      <trkpt lat="44.79154" lon="0.66994">
        <ele>89.0593262</ele>
        <time>2012-05-13T09:21:18Z</time>
      </trkpt>
      <trkpt lat="44.79154" lon="0.66976">
        <ele>80.8881836</ele>
        <time>2012-05-13T09:21:25Z</time>
      </trkpt>
      <trkpt lat="44.79153" lon="0.66971">
        <ele>85.2139893</ele>
        <time>2012-05-13T09:21:26Z</time>
      </trkpt>
      <trkpt lat="44.79149" lon="0.66953">
        <ele>81.3687744</ele>
        <time>2012-05-13T09:21:32Z</time>
      </trkpt>
      <trkpt lat="44.79148" lon="0.66935">
        <ele>84.7333984</ele>
        <time>2012-05-13T09:21:37Z</time>
      </trkpt>
      <trkpt lat="44.79147" lon="0.66905">
        <ele>100.5950928</ele>
        <time>2012-05-13T09:21:43Z</time>
      </trkpt>
      <trkpt lat="44.79148" lon="0.66902">
        <ele>101.5563965</ele>
        <time>2012-05-13T09:21:44Z</time>
      </trkpt>
      <trkpt lat="44.79147" lon="0.66882">
        <ele>106.3630371</ele>
        <time>2012-05-13T09:21:50Z</time>
      </trkpt>
      <trkpt lat="44.79149" lon="0.66866">
        <ele>113.0922852</ele>
        <time>2012-05-13T09:21:54Z</time>
      </trkpt>
      <trkpt lat="44.79149" lon="0.66853">
        <ele>112.6115723</ele>
        <time>2012-05-13T09:21:58Z</time>
      </trkpt>
      <trkpt lat="44.79148" lon="0.6684">
        <ele>113.0922852</ele>
        <time>2012-05-13T09:22:02Z</time>
      </trkpt>
      <trkpt lat="44.79148" lon="0.66824">
        <ele>112.1309814</ele>
        <time>2012-05-13T09:22:07Z</time>
      </trkpt>
      <trkpt lat="44.79148" lon="0.66807">
        <ele>106.8436279</ele>
        <time>2012-05-13T09:22:13Z</time>
      </trkpt>
      <trkpt lat="44.79148" lon="0.66789">
        <ele>101.5563965</ele>
        <time>2012-05-13T09:22:19Z</time>
      </trkpt>
      <trkpt lat="44.79148" lon="0.66773">
        <ele>100.114502</ele>
        <time>2012-05-13T09:22:24Z</time>
      </trkpt>
      <trkpt lat="44.79149" lon="0.66758">
        <ele>96.7498779</ele>
        <time>2012-05-13T09:22:29Z</time>
      </trkpt>
      <trkpt lat="44.79148" lon="0.66744">
        <ele>93.3851318</ele>
        <time>2012-05-13T09:22:33Z</time>
      </trkpt>
      <trkpt lat="44.79147" lon="0.66728">
        <ele>89.539917</ele>
        <time>2012-05-13T09:22:38Z</time>
      </trkpt>
      <trkpt lat="44.79148" lon="0.66708">
        <ele>86.175293</ele>
        <time>2012-05-13T09:22:44Z</time>
      </trkpt>
      <trkpt lat="44.79149" lon="0.66702">
        <ele>83.7719727</ele>
        <time>2012-05-13T09:22:46Z</time>
      </trkpt>
      <trkpt lat="44.79147" lon="0.66679">
        <ele>82.810791</ele>
        <time>2012-05-13T09:22:52Z</time>
      </trkpt>
      <trkpt lat="44.79145" lon="0.66658">
        <ele>79.9266357</ele>
        <time>2012-05-13T09:22:58Z</time>
      </trkpt>
      <trkpt lat="44.79145" lon="0.66652">
        <ele>77.0428467</ele>
        <time>2012-05-13T09:23:00Z</time>
      </trkpt>
      <trkpt lat="44.79145" lon="0.66642">
        <ele>76.0814209</ele>
        <time>2012-05-13T09:23:03Z</time>
      </trkpt>
      <trkpt lat="44.79145" lon="0.66637">
        <ele>73.1976318</ele>
        <time>2012-05-13T09:23:05Z</time>
      </trkpt>
      <trkpt lat="44.79146" lon="0.66628">
        <ele>68.871582</ele>
        <time>2012-05-13T09:23:09Z</time>
      </trkpt>
      <trkpt lat="44.79146" lon="0.66616">
        <ele>66.4682617</ele>
        <time>2012-05-13T09:23:12Z</time>
      </trkpt>
      <trkpt lat="44.79147" lon="0.66603">
        <ele>66.9489746</ele>
        <time>2012-05-13T09:23:16Z</time>
      </trkpt>
      <trkpt lat="44.79145" lon="0.66587">
        <ele>65.5070801</ele>
        <time>2012-05-13T09:23:21Z</time>
      </trkpt>
      <trkpt lat="44.79144" lon="0.66573">
        <ele>65.5070801</ele>
        <time>2012-05-13T09:23:25Z</time>
      </trkpt>
      <trkpt lat="44.79142" lon="0.66559">
        <ele>68.3908691</ele>
        <time>2012-05-13T09:23:29Z</time>
      </trkpt>
      <trkpt lat="44.79139" lon="0.66548">
        <ele>71.7554932</ele>
        <time>2012-05-13T09:23:32Z</time>
      </trkpt>
      <trkpt lat="44.79138" lon="0.66538">
        <ele>73.1976318</ele>
        <time>2012-05-13T09:23:35Z</time>
      </trkpt>
      <trkpt lat="44.79134" lon="0.66506">
        <ele>92.904541</ele>
        <time>2012-05-13T09:23:42Z</time>
      </trkpt>
      <trkpt lat="44.79132" lon="0.66485">
        <ele>102.0371094</ele>
        <time>2012-05-13T09:23:48Z</time>
      </trkpt>
      <trkpt lat="44.79129" lon="0.66467">
        <ele>108.2856445</ele>
        <time>2012-05-13T09:23:53Z</time>
      </trkpt>
      <trkpt lat="44.79128" lon="0.66443">
        <ele>112.6115723</ele>
        <time>2012-05-13T09:23:58Z</time>
      </trkpt>
      <trkpt lat="44.79127" lon="0.66426">
        <ele>112.1309814</ele>
        <time>2012-05-13T09:24:03Z</time>
      </trkpt>
      <trkpt lat="44.79126" lon="0.66411">
        <ele>108.2856445</ele>
        <time>2012-05-13T09:24:08Z</time>
      </trkpt>
      <trkpt lat="44.79126" lon="0.66402">
        <ele>107.3243408</ele>
        <time>2012-05-13T09:24:11Z</time>
      </trkpt>
      <trkpt lat="44.79122" lon="0.66382">
        <ele>109.7276611</ele>
        <time>2012-05-13T09:24:17Z</time>
      </trkpt>
      <trkpt lat="44.79118" lon="0.6637">
        <ele>102.0371094</ele>
        <time>2012-05-13T09:24:21Z</time>
      </trkpt>
      <trkpt lat="44.79115" lon="0.66353">
        <ele>96.2692871</ele>
        <time>2012-05-13T09:24:26Z</time>
      </trkpt>
      <trkpt lat="44.7911" lon="0.66334">
        <ele>99.1530762</ele>
        <time>2012-05-13T09:24:31Z</time>
      </trkpt>
      <trkpt lat="44.79107" lon="0.66311">
        <ele>108.2856445</ele>
        <time>2012-05-13T09:24:36Z</time>
      </trkpt>
      <trkpt lat="44.79105" lon="0.66291">
        <ele>115.9761963</ele>
        <time>2012-05-13T09:24:41Z</time>
      </trkpt>
      <trkpt lat="44.79104" lon="0.66275">
        <ele>117.4182129</ele>
        <time>2012-05-13T09:24:46Z</time>
      </trkpt>
      <trkpt lat="44.79101" lon="0.66256">
        <ele>115.9761963</ele>
        <time>2012-05-13T09:24:52Z</time>
      </trkpt>
      <trkpt lat="44.79099" lon="0.66236">
        <ele>109.7276611</ele>
        <time>2012-05-13T09:24:58Z</time>
      </trkpt>
      <trkpt lat="44.79097" lon="0.6622">
        <ele>105.4017334</ele>
        <time>2012-05-13T09:25:03Z</time>
      </trkpt>
      <trkpt lat="44.79096" lon="0.66212">
        <ele>99.1530762</ele>
        <time>2012-05-13T09:25:06Z</time>
      </trkpt>
      <trkpt lat="44.79097" lon="0.66202">
        <ele>98.1918945</ele>
        <time>2012-05-13T09:25:09Z</time>
      </trkpt>
      <trkpt lat="44.79086" lon="0.66192">
        <ele>90.9819336</ele>
        <time>2012-05-13T09:25:15Z</time>
      </trkpt>
      <trkpt lat="44.79076" lon="0.66186">
        <ele>90.0206299</ele>
        <time>2012-05-13T09:25:20Z</time>
      </trkpt>
      <trkpt lat="44.79064" lon="0.6618">
        <ele>92.4239502</ele>
        <time>2012-05-13T09:25:25Z</time>
      </trkpt>
      <trkpt lat="44.79057" lon="0.66176">
        <ele>93.8658447</ele>
        <time>2012-05-13T09:25:28Z</time>
      </trkpt>
      <trkpt lat="44.79042" lon="0.66177">
        <ele>99.6337891</ele>
        <time>2012-05-13T09:25:34Z</time>
      </trkpt>
      <trkpt lat="44.7903" lon="0.66174">
        <ele>100.5950928</ele>
        <time>2012-05-13T09:25:39Z</time>
      </trkpt>
      <trkpt lat="44.79028" lon="0.66173">
        <ele>101.0756836</ele>
        <time>2012-05-13T09:25:40Z</time>
      </trkpt>
      <trkpt lat="44.7902" lon="0.66168">
        <ele>101.5563965</ele>
        <time>2012-05-13T09:25:44Z</time>
      </trkpt>
      <trkpt lat="44.79011" lon="0.66151">
        <ele>102.5177002</ele>
        <time>2012-05-13T09:25:50Z</time>
      </trkpt>
      <trkpt lat="44.79001" lon="0.66134">
        <ele>103.9597168</ele>
        <time>2012-05-13T09:25:56Z</time>
      </trkpt>
      <trkpt lat="44.78996" lon="0.66129">
        <ele>102.998291</ele>
        <time>2012-05-13T09:25:58Z</time>
      </trkpt>
      <trkpt lat="44.78987" lon="0.66112">
        <ele>103.9597168</ele>
        <time>2012-05-13T09:26:04Z</time>
      </trkpt>
      <trkpt lat="44.78982" lon="0.66097">
        <ele>106.3630371</ele>
        <time>2012-05-13T09:26:08Z</time>
      </trkpt>
      <trkpt lat="44.78975" lon="0.66085">
        <ele>106.3630371</ele>
        <time>2012-05-13T09:26:12Z</time>
      </trkpt>
      <trkpt lat="44.78971" lon="0.66071">
        <ele>107.8050537</ele>
        <time>2012-05-13T09:26:16Z</time>
      </trkpt>
      <trkpt lat="44.78969" lon="0.66069">
        <ele>106.8436279</ele>
        <time>2012-05-13T09:26:17Z</time>
      </trkpt>
      <trkpt lat="44.78962" lon="0.66055">
        <ele>106.3630371</ele>
        <time>2012-05-13T09:26:22Z</time>
      </trkpt>
      <trkpt lat="44.78957" lon="0.66042">
        <ele>106.3630371</ele>
        <time>2012-05-13T09:26:26Z</time>
      </trkpt>
      <trkpt lat="44.78956" lon="0.6604">
        <ele>105.8824463</ele>
        <time>2012-05-13T09:26:27Z</time>
      </trkpt>
      <trkpt lat="44.78951" lon="0.66022">
        <ele>103.4790039</ele>
        <time>2012-05-13T09:26:33Z</time>
      </trkpt>
      <trkpt lat="44.78946" lon="0.6601">
        <ele>103.9597168</ele>
        <time>2012-05-13T09:26:37Z</time>
      </trkpt>
      <trkpt lat="44.7894" lon="0.65997">
        <ele>107.8050537</ele>
        <time>2012-05-13T09:26:41Z</time>
      </trkpt>
      <trkpt lat="44.78932" lon="0.65979">
        <ele>110.208252</ele>
        <time>2012-05-13T09:26:47Z</time>
      </trkpt>
      <trkpt lat="44.78922" lon="0.65971">
        <ele>108.7662354</ele>
        <time>2012-05-13T09:26:51Z</time>
      </trkpt>
      <trkpt lat="44.7891" lon="0.65968">
        <ele>111.1695557</ele>
        <time>2012-05-13T09:26:56Z</time>
      </trkpt>
      <trkpt lat="44.78907" lon="0.65968">
        <ele>111.6502686</ele>
        <time>2012-05-13T09:26:57Z</time>
      </trkpt>
      <trkpt lat="44.7889" lon="0.65971">
        <ele>113.0922852</ele>
        <time>2012-05-13T09:27:03Z</time>
      </trkpt>
      <trkpt lat="44.7888" lon="0.65972">
        <ele>113.572998</ele>
        <time>2012-05-13T09:27:07Z</time>
      </trkpt>
      <trkpt lat="44.7887" lon="0.65972">
        <ele>114.5341797</ele>
        <time>2012-05-13T09:27:12Z</time>
      </trkpt>
      <trkpt lat="44.78859" lon="0.65977">
        <ele>115.4956055</ele>
        <time>2012-05-13T09:27:16Z</time>
      </trkpt>
      <trkpt lat="44.78851" lon="0.65978">
        <ele>116.4567871</ele>
        <time>2012-05-13T09:27:19Z</time>
      </trkpt>
      <trkpt lat="44.78843" lon="0.65971">
        <ele>117.4182129</ele>
        <time>2012-05-13T09:27:23Z</time>
      </trkpt>
      <trkpt lat="44.7884" lon="0.65965">
        <ele>117.8988037</ele>
        <time>2012-05-13T09:27:27Z</time>
      </trkpt>
      <trkpt lat="44.78839" lon="0.65964">
        <ele>117.8988037</ele>
        <time>2012-05-13T09:27:29Z</time>
      </trkpt>
      <trkpt lat="44.78838" lon="0.65964">
        <ele>117.4182129</ele>
        <time>2012-05-13T09:27:37Z</time>
      </trkpt>
      <trkpt lat="44.78838" lon="0.65965">
        <ele>116.4567871</ele>
        <time>2012-05-13T09:27:44Z</time>
      </trkpt>
      <trkpt lat="44.78837" lon="0.65965">
        <ele>116.9375</ele>
        <time>2012-05-13T09:28:02Z</time>
      </trkpt>
      <trkpt lat="44.78835" lon="0.65966">
        <ele>117.4182129</ele>
        <time>2012-05-13T09:28:17Z</time>
      </trkpt>
      <trkpt lat="44.78833" lon="0.65975">
        <ele>116.9375</ele>
        <time>2012-05-13T09:28:22Z</time>
      </trkpt>
      <trkpt lat="44.78831" lon="0.65988">
        <ele>116.4567871</ele>
        <time>2012-05-13T09:28:29Z</time>
      </trkpt>
      <trkpt lat="44.7883" lon="0.65993">
        <ele>116.4567871</ele>
        <time>2012-05-13T09:28:32Z</time>
      </trkpt>
      <trkpt lat="44.78829" lon="0.65998">
        <ele>117.4182129</ele>
        <time>2012-05-13T09:28:38Z</time>
      </trkpt>
      <trkpt lat="44.78825" lon="0.66009">
        <ele>117.4182129</ele>
        <time>2012-05-13T09:28:44Z</time>
      </trkpt>
      <trkpt lat="44.78811" lon="0.66027">
        <ele>116.9375</ele>
        <time>2012-05-13T09:28:51Z</time>
      </trkpt>
      <trkpt lat="44.78798" lon="0.66044">
        <ele>116.9375</ele>
        <time>2012-05-13T09:28:58Z</time>
      </trkpt>
      <trkpt lat="44.78788" lon="0.66056">
        <ele>117.4182129</ele>
        <time>2012-05-13T09:29:03Z</time>
      </trkpt>
      <trkpt lat="44.7878" lon="0.66066">
        <ele>116.9375</ele>
        <time>2012-05-13T09:29:07Z</time>
      </trkpt>
      <trkpt lat="44.78772" lon="0.66075">
        <ele>117.8988037</ele>
        <time>2012-05-13T09:29:11Z</time>
      </trkpt>
      <trkpt lat="44.78763" lon="0.66084">
        <ele>119.3408203</ele>
        <time>2012-05-13T09:29:16Z</time>
      </trkpt>
      <trkpt lat="44.78752" lon="0.66099">
        <ele>119.8214111</ele>
        <time>2012-05-13T09:29:22Z</time>
      </trkpt>
      <trkpt lat="44.78744" lon="0.66106">
        <ele>120.302124</ele>
        <time>2012-05-13T09:29:26Z</time>
      </trkpt>
      <trkpt lat="44.78735" lon="0.66097">
        <ele>121.2635498</ele>
        <time>2012-05-13T09:29:31Z</time>
      </trkpt>
      <trkpt lat="44.78732" lon="0.66089">
        <ele>121.7441406</ele>
        <time>2012-05-13T09:29:34Z</time>
      </trkpt>
      <trkpt lat="44.78726" lon="0.66074">
        <ele>122.7054443</ele>
        <time>2012-05-13T09:29:39Z</time>
      </trkpt>
      <trkpt lat="44.78721" lon="0.6606">
        <ele>123.666748</ele>
        <time>2012-05-13T09:29:44Z</time>
      </trkpt>
      <trkpt lat="44.78716" lon="0.66044">
        <ele>123.1861572</ele>
        <time>2012-05-13T09:29:50Z</time>
      </trkpt>
      <trkpt lat="44.78711" lon="0.66027">
        <ele>122.2247314</ele>
        <time>2012-05-13T09:29:56Z</time>
      </trkpt>
      <trkpt lat="44.78705" lon="0.66013">
        <ele>121.7441406</ele>
        <time>2012-05-13T09:30:01Z</time>
      </trkpt>
      <trkpt lat="44.787" lon="0.66">
        <ele>122.2247314</ele>
        <time>2012-05-13T09:30:06Z</time>
      </trkpt>
      <trkpt lat="44.78699" lon="0.65997">
        <ele>122.2247314</ele>
        <time>2012-05-13T09:30:07Z</time>
      </trkpt>
      <trkpt lat="44.78699" lon="0.65997">
        <ele>122.2247314</ele>
        <time>2012-05-13T09:30:07Z</time>
      </trkpt>
      <trkpt lat="44.78692" lon="0.6598">
        <ele>126.5506592</ele>
        <time>2012-05-13T09:30:12Z</time>
      </trkpt>
      <trkpt lat="44.78686" lon="0.65966">
        <ele>127.9925537</ele>
        <time>2012-05-13T09:30:17Z</time>
      </trkpt>
      <trkpt lat="44.78683" lon="0.65961">
        <ele>127.9925537</ele>
        <time>2012-05-13T09:30:19Z</time>
      </trkpt>
      <trkpt lat="44.78675" lon="0.65945">
        <ele>129.9152832</ele>
        <time>2012-05-13T09:30:25Z</time>
      </trkpt>
      <trkpt lat="44.7867" lon="0.65937">
        <ele>131.3572998</ele>
        <time>2012-05-13T09:30:28Z</time>
      </trkpt>
      <trkpt lat="44.78658" lon="0.65917">
        <ele>132.7993164</ele>
        <time>2012-05-13T09:30:36Z</time>
      </trkpt>
      <trkpt lat="44.78651" lon="0.65904">
        <ele>133.760498</ele>
        <time>2012-05-13T09:30:41Z</time>
      </trkpt>
      <trkpt lat="44.78644" lon="0.65897">
        <ele>133.760498</ele>
        <time>2012-05-13T09:30:44Z</time>
      </trkpt>
      <trkpt lat="44.78631" lon="0.65879">
        <ele>135.2025146</ele>
        <time>2012-05-13T09:30:51Z</time>
      </trkpt>
      <trkpt lat="44.78622" lon="0.65869">
        <ele>135.2025146</ele>
        <time>2012-05-13T09:30:56Z</time>
      </trkpt>
      <trkpt lat="44.78616" lon="0.65858">
        <ele>134.7219238</ele>
        <time>2012-05-13T09:31:00Z</time>
      </trkpt>
      <trkpt lat="44.78608" lon="0.65845">
        <ele>134.2412109</ele>
        <time>2012-05-13T09:31:05Z</time>
      </trkpt>
      <trkpt lat="44.78601" lon="0.65834">
        <ele>133.2799072</ele>
        <time>2012-05-13T09:31:10Z</time>
      </trkpt>
      <trkpt lat="44.78594" lon="0.65824">
        <ele>133.2799072</ele>
        <time>2012-05-13T09:31:14Z</time>
      </trkpt>
      <trkpt lat="44.7858" lon="0.658">
        <ele>140.0091553</ele>
        <time>2012-05-13T09:31:22Z</time>
      </trkpt>
      <trkpt lat="44.78578" lon="0.65797">
        <ele>141.4510498</ele>
        <time>2012-05-13T09:31:23Z</time>
      </trkpt>
      <trkpt lat="44.78573" lon="0.65785">
        <ele>145.7770996</ele>
        <time>2012-05-13T09:31:28Z</time>
      </trkpt>
      <trkpt lat="44.78565" lon="0.65769">
        <ele>149.6223145</ele>
        <time>2012-05-13T09:31:33Z</time>
      </trkpt>
      <trkpt lat="44.7856" lon="0.65756">
        <ele>152.5063477</ele>
        <time>2012-05-13T09:31:37Z</time>
      </trkpt>
      <trkpt lat="44.78554" lon="0.65733">
        <ele>156.3515625</ele>
        <time>2012-05-13T09:31:44Z</time>
      </trkpt>
      <trkpt lat="44.78549" lon="0.65717">
        <ele>153.9483643</ele>
        <time>2012-05-13T09:31:49Z</time>
      </trkpt>
      <trkpt lat="44.78548" lon="0.65714">
        <ele>153.9483643</ele>
        <time>2012-05-13T09:31:50Z</time>
      </trkpt>
      <trkpt lat="44.78543" lon="0.65698">
        <ele>153.4676514</ele>
        <time>2012-05-13T09:31:55Z</time>
      </trkpt>
      <trkpt lat="44.78537" lon="0.65684">
        <ele>152.9869385</ele>
        <time>2012-05-13T09:32:01Z</time>
      </trkpt>
      <trkpt lat="44.78536" lon="0.65682">
        <ele>152.5063477</ele>
        <time>2012-05-13T09:32:02Z</time>
      </trkpt>
      <trkpt lat="44.78531" lon="0.65671">
        <ele>150.5836182</ele>
        <time>2012-05-13T09:32:08Z</time>
      </trkpt>
      <trkpt lat="44.78526" lon="0.6566">
        <ele>150.1030273</ele>
        <time>2012-05-13T09:32:11Z</time>
      </trkpt>
      <trkpt lat="44.78521" lon="0.65645">
        <ele>148.6610107</ele>
        <time>2012-05-13T09:32:16Z</time>
      </trkpt>
      <trkpt lat="44.78512" lon="0.65625">
        <ele>147.2189941</ele>
        <time>2012-05-13T09:32:22Z</time>
      </trkpt>
      <trkpt lat="44.78506" lon="0.65605">
        <ele>146.7384033</ele>
        <time>2012-05-13T09:32:28Z</time>
      </trkpt>
      <trkpt lat="44.78502" lon="0.65588">
        <ele>147.2189941</ele>
        <time>2012-05-13T09:32:33Z</time>
      </trkpt>
      <trkpt lat="44.785" lon="0.65573">
        <ele>149.1416016</ele>
        <time>2012-05-13T09:32:37Z</time>
      </trkpt>
      <trkpt lat="44.78498" lon="0.65554">
        <ele>151.064209</ele>
        <time>2012-05-13T09:32:42Z</time>
      </trkpt>
      <trkpt lat="44.78497" lon="0.65535">
        <ele>152.0257568</ele>
        <time>2012-05-13T09:32:47Z</time>
      </trkpt>
      <trkpt lat="44.78498" lon="0.65512">
        <ele>152.5063477</ele>
        <time>2012-05-13T09:32:53Z</time>
      </trkpt>
      <trkpt lat="44.78501" lon="0.65485">
        <ele>152.9869385</ele>
        <time>2012-05-13T09:33:00Z</time>
      </trkpt>
      <trkpt lat="44.78504" lon="0.65464">
        <ele>152.5063477</ele>
        <time>2012-05-13T09:33:06Z</time>
      </trkpt>
      <trkpt lat="44.78507" lon="0.65447">
        <ele>151.5449219</ele>
        <time>2012-05-13T09:33:11Z</time>
      </trkpt>
      <trkpt lat="44.7851" lon="0.65428">
        <ele>151.5449219</ele>
        <time>2012-05-13T09:33:16Z</time>
      </trkpt>
      <trkpt lat="44.78517" lon="0.65411">
        <ele>151.5449219</ele>
        <time>2012-05-13T09:33:21Z</time>
      </trkpt>
      <trkpt lat="44.78522" lon="0.65398">
        <ele>151.5449219</ele>
        <time>2012-05-13T09:33:25Z</time>
      </trkpt>
      <trkpt lat="44.78527" lon="0.65383">
        <ele>150.5836182</ele>
        <time>2012-05-13T09:33:29Z</time>
      </trkpt>
      <trkpt lat="44.7853" lon="0.65363">
        <ele>150.1030273</ele>
        <time>2012-05-13T09:33:34Z</time>
      </trkpt>
      <trkpt lat="44.78533" lon="0.65349">
        <ele>147.699707</ele>
        <time>2012-05-13T09:33:38Z</time>
      </trkpt>
      <trkpt lat="44.78541" lon="0.6533">
        <ele>147.699707</ele>
        <time>2012-05-13T09:33:44Z</time>
      </trkpt>
      <trkpt lat="44.78541" lon="0.65328">
        <ele>146.7384033</ele>
        <time>2012-05-13T09:33:45Z</time>
      </trkpt>
      <trkpt lat="44.7855" lon="0.65316">
        <ele>146.7384033</ele>
        <time>2012-05-13T09:33:50Z</time>
      </trkpt>
      <trkpt lat="44.78561" lon="0.65302">
        <ele>146.2578125</ele>
        <time>2012-05-13T09:33:55Z</time>
      </trkpt>
      <trkpt lat="44.78573" lon="0.65279">
        <ele>144.8157959</ele>
        <time>2012-05-13T09:34:02Z</time>
      </trkpt>
      <trkpt lat="44.7858" lon="0.65265">
        <ele>143.8543701</ele>
        <time>2012-05-13T09:34:06Z</time>
      </trkpt>
      <trkpt lat="44.78587" lon="0.65251">
        <ele>142.4124756</ele>
        <time>2012-05-13T09:34:10Z</time>
      </trkpt>
      <trkpt lat="44.78596" lon="0.65235">
        <ele>140.4898682</ele>
        <time>2012-05-13T09:34:15Z</time>
      </trkpt>
      <trkpt lat="44.786" lon="0.65223">
        <ele>137.605835</ele>
        <time>2012-05-13T09:34:19Z</time>
      </trkpt>
      <trkpt lat="44.78605" lon="0.65203">
        <ele>136.6446533</ele>
        <time>2012-05-13T09:34:24Z</time>
      </trkpt>
      <trkpt lat="44.78606" lon="0.65184">
        <ele>138.5672607</ele>
        <time>2012-05-13T09:34:29Z</time>
      </trkpt>
      <trkpt lat="44.78606" lon="0.6518">
        <ele>138.5672607</ele>
        <time>2012-05-13T09:34:30Z</time>
      </trkpt>
      <trkpt lat="44.78604" lon="0.65159">
        <ele>138.0865479</ele>
        <time>2012-05-13T09:34:34Z</time>
      </trkpt>
      <trkpt lat="44.78603" lon="0.65144">
        <ele>137.605835</ele>
        <time>2012-05-13T09:34:38Z</time>
      </trkpt>
      <trkpt lat="44.78603" lon="0.65127">
        <ele>137.605835</ele>
        <time>2012-05-13T09:34:44Z</time>
      </trkpt>
      <trkpt lat="44.78604" lon="0.65104">
        <ele>137.605835</ele>
        <time>2012-05-13T09:34:50Z</time>
      </trkpt>
      <trkpt lat="44.78605" lon="0.65083">
        <ele>138.5672607</ele>
        <time>2012-05-13T09:34:55Z</time>
      </trkpt>
      <trkpt lat="44.78608" lon="0.65057">
        <ele>137.1252441</ele>
        <time>2012-05-13T09:35:01Z</time>
      </trkpt>
      <trkpt lat="44.78612" lon="0.65034">
        <ele>135.2025146</ele>
        <time>2012-05-13T09:35:06Z</time>
      </trkpt>
      <trkpt lat="44.78612" lon="0.65016">
        <ele>136.1639404</ele>
        <time>2012-05-13T09:35:10Z</time>
      </trkpt>
      <trkpt lat="44.78609" lon="0.65003">
        <ele>136.6446533</ele>
        <time>2012-05-13T09:35:13Z</time>
      </trkpt>
      <trkpt lat="44.78608" lon="0.64985">
        <ele>138.5672607</ele>
        <time>2012-05-13T09:35:18Z</time>
      </trkpt>
      <trkpt lat="44.78608" lon="0.64966">
        <ele>139.5284424</ele>
        <time>2012-05-13T09:35:23Z</time>
      </trkpt>
      <trkpt lat="44.7861" lon="0.64954">
        <ele>140.0091553</ele>
        <time>2012-05-13T09:35:26Z</time>
      </trkpt>
      <trkpt lat="44.78612" lon="0.64936">
        <ele>140.4898682</ele>
        <time>2012-05-13T09:35:31Z</time>
      </trkpt>
      <trkpt lat="44.78609" lon="0.64912">
        <ele>142.4124756</ele>
        <time>2012-05-13T09:35:37Z</time>
      </trkpt>
      <trkpt lat="44.78607" lon="0.64893">
        <ele>142.4124756</ele>
        <time>2012-05-13T09:35:42Z</time>
      </trkpt>
      <trkpt lat="44.78605" lon="0.64872">
        <ele>140.970459</ele>
        <time>2012-05-13T09:35:47Z</time>
      </trkpt>
      <trkpt lat="44.78605" lon="0.64869">
        <ele>140.970459</ele>
        <time>2012-05-13T09:35:48Z</time>
      </trkpt>
      <trkpt lat="44.78605" lon="0.64869">
        <ele>140.970459</ele>
        <time>2012-05-13T09:35:48Z</time>
      </trkpt>
      <trkpt lat="44.78602" lon="0.6485">
        <ele>140.970459</ele>
        <time>2012-05-13T09:35:53Z</time>
      </trkpt>
      <trkpt lat="44.78601" lon="0.64832">
        <ele>140.0091553</ele>
        <time>2012-05-13T09:35:58Z</time>
      </trkpt>
      <trkpt lat="44.78605" lon="0.64814">
        <ele>139.0478516</ele>
        <time>2012-05-13T09:36:03Z</time>
      </trkpt>
      <trkpt lat="44.7861" lon="0.64802">
        <ele>139.0478516</ele>
        <time>2012-05-13T09:36:07Z</time>
      </trkpt>
      <trkpt lat="44.78619" lon="0.64783">
        <ele>139.5284424</ele>
        <time>2012-05-13T09:36:13Z</time>
      </trkpt>
      <trkpt lat="44.78627" lon="0.64767">
        <ele>139.5284424</ele>
        <time>2012-05-13T09:36:18Z</time>
      </trkpt>
      <trkpt lat="44.78633" lon="0.64754">
        <ele>138.5672607</ele>
        <time>2012-05-13T09:36:23Z</time>
      </trkpt>
      <trkpt lat="44.78643" lon="0.64737">
        <ele>137.605835</ele>
        <time>2012-05-13T09:36:29Z</time>
      </trkpt>
      <trkpt lat="44.78651" lon="0.64722">
        <ele>136.6446533</ele>
        <time>2012-05-13T09:36:34Z</time>
      </trkpt>
      <trkpt lat="44.78661" lon="0.64706">
        <ele>135.6831055</ele>
        <time>2012-05-13T09:36:39Z</time>
      </trkpt>
      <trkpt lat="44.7867" lon="0.6469">
        <ele>135.2025146</ele>
        <time>2012-05-13T09:36:44Z</time>
      </trkpt>
      <trkpt lat="44.78679" lon="0.64674">
        <ele>137.1252441</ele>
        <time>2012-05-13T09:36:49Z</time>
      </trkpt>
      <trkpt lat="44.7869" lon="0.6466">
        <ele>137.605835</ele>
        <time>2012-05-13T09:36:54Z</time>
      </trkpt>
      <trkpt lat="44.78704" lon="0.64641">
        <ele>137.1252441</ele>
        <time>2012-05-13T09:37:01Z</time>
      </trkpt>
      <trkpt lat="44.78714" lon="0.64628">
        <ele>138.0865479</ele>
        <time>2012-05-13T09:37:06Z</time>
      </trkpt>
      <trkpt lat="44.78722" lon="0.64618">
        <ele>138.0865479</ele>
        <time>2012-05-13T09:37:10Z</time>
      </trkpt>
      <trkpt lat="44.78721" lon="0.64606">
        <ele>139.0478516</ele>
        <time>2012-05-13T09:37:14Z</time>
      </trkpt>
      <trkpt lat="44.78709" lon="0.64591">
        <ele>141.4510498</ele>
        <time>2012-05-13T09:37:20Z</time>
      </trkpt>
      <trkpt lat="44.78699" lon="0.64579">
        <ele>141.9317627</ele>
        <time>2012-05-13T09:37:25Z</time>
      </trkpt>
      <trkpt lat="44.78691" lon="0.64569">
        <ele>143.3736572</ele>
        <time>2012-05-13T09:37:29Z</time>
      </trkpt>
      <trkpt lat="44.78695" lon="0.6456">
        <ele>143.8543701</ele>
        <time>2012-05-13T09:37:34Z</time>
      </trkpt>
      <trkpt lat="44.78696" lon="0.64558">
        <ele>143.8543701</ele>
        <time>2012-05-13T09:37:35Z</time>
      </trkpt>
      <trkpt lat="44.78707" lon="0.64547">
        <ele>142.8930664</ele>
        <time>2012-05-13T09:37:40Z</time>
      </trkpt>
      <trkpt lat="44.78714" lon="0.64536">
        <ele>142.8930664</ele>
        <time>2012-05-13T09:37:44Z</time>
      </trkpt>
      <trkpt lat="44.78727" lon="0.64511">
        <ele>142.4124756</ele>
        <time>2012-05-13T09:37:52Z</time>
      </trkpt>
      <trkpt lat="44.78739" lon="0.64491">
        <ele>143.8543701</ele>
        <time>2012-05-13T09:37:59Z</time>
      </trkpt>
      <trkpt lat="44.78756" lon="0.6447">
        <ele>146.7384033</ele>
        <time>2012-05-13T09:38:07Z</time>
      </trkpt>
      <trkpt lat="44.78766" lon="0.64455">
        <ele>147.699707</ele>
        <time>2012-05-13T09:38:12Z</time>
      </trkpt>
      <trkpt lat="44.78769" lon="0.64447">
        <ele>147.2189941</ele>
        <time>2012-05-13T09:38:15Z</time>
      </trkpt>
      <trkpt lat="44.7877" lon="0.64446">
        <ele>146.2578125</ele>
        <time>2012-05-13T09:38:20Z</time>
      </trkpt>
      <trkpt lat="44.7877" lon="0.64453">
        <ele>145.7770996</ele>
        <time>2012-05-13T09:38:27Z</time>
      </trkpt>
      <trkpt lat="44.7877" lon="0.64455">
        <ele>145.2963867</ele>
        <time>2012-05-13T09:38:36Z</time>
      </trkpt>
      <trkpt lat="44.78773" lon="0.64454">
        <ele>144.8157959</ele>
        <time>2012-05-13T09:38:44Z</time>
      </trkpt>
      <trkpt lat="44.78776" lon="0.64454">
        <ele>145.2963867</ele>
        <time>2012-05-13T09:38:49Z</time>
      </trkpt>
      <trkpt lat="44.78785" lon="0.6447">
        <ele>143.8543701</ele>
        <time>2012-05-13T09:38:55Z</time>
      </trkpt>
      <trkpt lat="44.7879" lon="0.64478">
        <ele>144.3352051</ele>
        <time>2012-05-13T09:38:58Z</time>
      </trkpt>
      <trkpt lat="44.78799" lon="0.6449">
        <ele>144.3352051</ele>
        <time>2012-05-13T09:39:02Z</time>
      </trkpt>
      <trkpt lat="44.78801" lon="0.64493">
        <ele>143.8543701</ele>
        <time>2012-05-13T09:39:03Z</time>
      </trkpt>
      <trkpt lat="44.78817" lon="0.64511">
        <ele>140.970459</ele>
        <time>2012-05-13T09:39:10Z</time>
      </trkpt>
      <trkpt lat="44.7882" lon="0.64513">
        <ele>140.4898682</ele>
        <time>2012-05-13T09:39:11Z</time>
      </trkpt>
      <trkpt lat="44.78831" lon="0.64517">
        <ele>138.5672607</ele>
        <time>2012-05-13T09:39:15Z</time>
      </trkpt>
      <trkpt lat="44.78844" lon="0.64509">
        <ele>138.0865479</ele>
        <time>2012-05-13T09:39:20Z</time>
      </trkpt>
      <trkpt lat="44.78846" lon="0.64505">
        <ele>140.0091553</ele>
        <time>2012-05-13T09:39:24Z</time>
      </trkpt>
      <trkpt lat="44.78851" lon="0.64496">
        <ele>142.8930664</ele>
        <time>2012-05-13T09:39:29Z</time>
      </trkpt>
      <trkpt lat="44.78853" lon="0.64479">
        <ele>140.4898682</ele>
        <time>2012-05-13T09:39:34Z</time>
      </trkpt>
      <trkpt lat="44.78854" lon="0.64466">
        <ele>141.9317627</ele>
        <time>2012-05-13T09:39:38Z</time>
      </trkpt>
      <trkpt lat="44.78861" lon="0.64448">
        <ele>142.4124756</ele>
        <time>2012-05-13T09:39:44Z</time>
      </trkpt>
      <trkpt lat="44.78867" lon="0.64438">
        <ele>140.4898682</ele>
        <time>2012-05-13T09:39:48Z</time>
      </trkpt>
      <trkpt lat="44.7888" lon="0.64432">
        <ele>139.5284424</ele>
        <time>2012-05-13T09:39:53Z</time>
      </trkpt>
      <trkpt lat="44.78882" lon="0.64431">
        <ele>139.5284424</ele>
        <time>2012-05-13T09:39:54Z</time>
      </trkpt>
      <trkpt lat="44.7889" lon="0.64424">
        <ele>139.0478516</ele>
        <time>2012-05-13T09:39:58Z</time>
      </trkpt>
      <trkpt lat="44.78903" lon="0.64424">
        <ele>137.605835</ele>
        <time>2012-05-13T09:40:03Z</time>
      </trkpt>
      <trkpt lat="44.78918" lon="0.64425">
        <ele>136.6446533</ele>
        <time>2012-05-13T09:40:09Z</time>
      </trkpt>
      <trkpt lat="44.7893" lon="0.64427">
        <ele>137.605835</ele>
        <time>2012-05-13T09:40:14Z</time>
      </trkpt>
      <trkpt lat="44.78936" lon="0.64426">
        <ele>137.605835</ele>
        <time>2012-05-13T09:40:20Z</time>
      </trkpt>
      <trkpt lat="44.78939" lon="0.64424">
        <ele>138.5672607</ele>
        <time>2012-05-13T09:40:26Z</time>
      </trkpt>
      <trkpt lat="44.78942" lon="0.64419">
        <ele>140.4898682</ele>
        <time>2012-05-13T09:40:31Z</time>
      </trkpt>
      <trkpt lat="44.78947" lon="0.64406">
        <ele>138.0865479</ele>
        <time>2012-05-13T09:40:36Z</time>
      </trkpt>
      <trkpt lat="44.78948" lon="0.64386">
        <ele>139.5284424</ele>
        <time>2012-05-13T09:40:42Z</time>
      </trkpt>
      <trkpt lat="44.7895" lon="0.64374">
        <ele>139.5284424</ele>
        <time>2012-05-13T09:40:46Z</time>
      </trkpt>
      <trkpt lat="44.78951" lon="0.64365">
        <ele>138.0865479</ele>
        <time>2012-05-13T09:40:49Z</time>
      </trkpt>
      <trkpt lat="44.78953" lon="0.64347">
        <ele>137.605835</ele>
        <time>2012-05-13T09:40:54Z</time>
      </trkpt>
      <trkpt lat="44.78954" lon="0.6433">
        <ele>141.4510498</ele>
        <time>2012-05-13T09:40:58Z</time>
      </trkpt>
      <trkpt lat="44.78957" lon="0.64319">
        <ele>142.4124756</ele>
        <time>2012-05-13T09:41:01Z</time>
      </trkpt>
      <trkpt lat="44.7896" lon="0.64299">
        <ele>145.2963867</ele>
        <time>2012-05-13T09:41:07Z</time>
      </trkpt>
      <trkpt lat="44.78966" lon="0.64283">
        <ele>147.2189941</ele>
        <time>2012-05-13T09:41:12Z</time>
      </trkpt>
      <trkpt lat="44.78973" lon="0.64267">
        <ele>149.6223145</ele>
        <time>2012-05-13T09:41:17Z</time>
      </trkpt>
      <trkpt lat="44.78979" lon="0.64252">
        <ele>151.5449219</ele>
        <time>2012-05-13T09:41:22Z</time>
      </trkpt>
      <trkpt lat="44.78986" lon="0.64232">
        <ele>151.064209</ele>
        <time>2012-05-13T09:41:28Z</time>
      </trkpt>
      <trkpt lat="44.7899" lon="0.64223">
        <ele>152.0257568</ele>
        <time>2012-05-13T09:41:31Z</time>
      </trkpt>
      <trkpt lat="44.78994" lon="0.64216">
        <ele>153.4676514</ele>
        <time>2012-05-13T09:41:35Z</time>
      </trkpt>
      <trkpt lat="44.79001" lon="0.64211">
        <ele>152.9869385</ele>
        <time>2012-05-13T09:41:39Z</time>
      </trkpt>
      <trkpt lat="44.79014" lon="0.64206">
        <ele>153.4676514</ele>
        <time>2012-05-13T09:41:44Z</time>
      </trkpt>
      <trkpt lat="44.7902" lon="0.64201">
        <ele>152.0257568</ele>
        <time>2012-05-13T09:41:47Z</time>
      </trkpt>
      <trkpt lat="44.79027" lon="0.6418">
        <ele>146.7384033</ele>
        <time>2012-05-13T09:41:54Z</time>
      </trkpt>
      <trkpt lat="44.79034" lon="0.64164">
        <ele>145.2963867</ele>
        <time>2012-05-13T09:41:59Z</time>
      </trkpt>
      <trkpt lat="44.7904" lon="0.64148">
        <ele>143.8543701</ele>
        <time>2012-05-13T09:42:04Z</time>
      </trkpt>
      <trkpt lat="44.79044" lon="0.64131">
        <ele>143.3736572</ele>
        <time>2012-05-13T09:42:09Z</time>
      </trkpt>
      <trkpt lat="44.79045" lon="0.64113">
        <ele>143.8543701</ele>
        <time>2012-05-13T09:42:14Z</time>
      </trkpt>
      <trkpt lat="44.79044" lon="0.64095">
        <ele>143.3736572</ele>
        <time>2012-05-13T09:42:19Z</time>
      </trkpt>
      <trkpt lat="44.79044" lon="0.64091">
        <ele>143.3736572</ele>
        <time>2012-05-13T09:42:20Z</time>
      </trkpt>
      <trkpt lat="44.79044" lon="0.64091">
        <ele>143.3736572</ele>
        <time>2012-05-13T09:42:20Z</time>
      </trkpt>
      <trkpt lat="44.79041" lon="0.64069">
        <ele>144.8157959</ele>
        <time>2012-05-13T09:42:26Z</time>
      </trkpt>
      <trkpt lat="44.7904" lon="0.64049">
        <ele>145.2963867</ele>
        <time>2012-05-13T09:42:31Z</time>
      </trkpt>
      <trkpt lat="44.7904" lon="0.6403">
        <ele>145.7770996</ele>
        <time>2012-05-13T09:42:36Z</time>
      </trkpt>
      <trkpt lat="44.79042" lon="0.64002">
        <ele>148.6610107</ele>
        <time>2012-05-13T09:42:43Z</time>
      </trkpt>
      <trkpt lat="44.79046" lon="0.63979">
        <ele>150.5836182</ele>
        <time>2012-05-13T09:42:49Z</time>
      </trkpt>
      <trkpt lat="44.79051" lon="0.6396">
        <ele>151.5449219</ele>
        <time>2012-05-13T09:42:54Z</time>
      </trkpt>
      <trkpt lat="44.79058" lon="0.63939">
        <ele>151.064209</ele>
        <time>2012-05-13T09:43:00Z</time>
      </trkpt>
      <trkpt lat="44.79064" lon="0.63913">
        <ele>151.5449219</ele>
        <time>2012-05-13T09:43:07Z</time>
      </trkpt>
      <trkpt lat="44.79069" lon="0.63896">
        <ele>150.5836182</ele>
        <time>2012-05-13T09:43:12Z</time>
      </trkpt>
      <trkpt lat="44.79075" lon="0.63875">
        <ele>149.1416016</ele>
        <time>2012-05-13T09:43:18Z</time>
      </trkpt>
      <trkpt lat="44.79082" lon="0.63854">
        <ele>148.6610107</ele>
        <time>2012-05-13T09:43:24Z</time>
      </trkpt>
      <trkpt lat="44.79092" lon="0.63833">
        <ele>150.1030273</ele>
        <time>2012-05-13T09:43:31Z</time>
      </trkpt>
      <trkpt lat="44.79105" lon="0.63827">
        <ele>151.064209</ele>
        <time>2012-05-13T09:43:36Z</time>
      </trkpt>
      <trkpt lat="44.79115" lon="0.6383">
        <ele>152.9869385</ele>
        <time>2012-05-13T09:43:40Z</time>
      </trkpt>
      <trkpt lat="44.79126" lon="0.63839">
        <ele>153.9483643</ele>
        <time>2012-05-13T09:43:45Z</time>
      </trkpt>
      <trkpt lat="44.79135" lon="0.63844">
        <ele>154.9095459</ele>
        <time>2012-05-13T09:43:49Z</time>
      </trkpt>
      <trkpt lat="44.79147" lon="0.63852">
        <ele>155.3902588</ele>
        <time>2012-05-13T09:43:54Z</time>
      </trkpt>
      <trkpt lat="44.79149" lon="0.63855">
        <ele>154.9095459</ele>
        <time>2012-05-13T09:43:55Z</time>
      </trkpt>
      <trkpt lat="44.79162" lon="0.63867">
        <ele>155.8709717</ele>
        <time>2012-05-13T09:44:01Z</time>
      </trkpt>
      <trkpt lat="44.79178" lon="0.63879">
        <ele>155.8709717</ele>
        <time>2012-05-13T09:44:08Z</time>
      </trkpt>
      <trkpt lat="44.79189" lon="0.63881">
        <ele>155.3902588</ele>
        <time>2012-05-13T09:44:12Z</time>
      </trkpt>
      <trkpt lat="44.79196" lon="0.63871">
        <ele>154.9095459</ele>
        <time>2012-05-13T09:44:16Z</time>
      </trkpt>
      <trkpt lat="44.79202" lon="0.63849">
        <ele>155.3902588</ele>
        <time>2012-05-13T09:44:22Z</time>
      </trkpt>
      <trkpt lat="44.79205" lon="0.6383">
        <ele>156.8321533</ele>
        <time>2012-05-13T09:44:27Z</time>
      </trkpt>
      <trkpt lat="44.79211" lon="0.63809">
        <ele>157.7935791</ele>
        <time>2012-05-13T09:44:33Z</time>
      </trkpt>
      <trkpt lat="44.79218" lon="0.63789">
        <ele>158.7547607</ele>
        <time>2012-05-13T09:44:39Z</time>
      </trkpt>
      <trkpt lat="44.79224" lon="0.63773">
        <ele>159.7161865</ele>
        <time>2012-05-13T09:44:44Z</time>
      </trkpt>
      <trkpt lat="44.79233" lon="0.63754">
        <ele>158.7547607</ele>
        <time>2012-05-13T09:44:50Z</time>
      </trkpt>
      <trkpt lat="44.79242" lon="0.63739">
        <ele>157.3128662</ele>
        <time>2012-05-13T09:44:56Z</time>
      </trkpt>
      <trkpt lat="44.79255" lon="0.63714">
        <ele>156.8321533</ele>
        <time>2012-05-13T09:45:05Z</time>
      </trkpt>
      <trkpt lat="44.79263" lon="0.63697">
        <ele>155.8709717</ele>
        <time>2012-05-13T09:45:11Z</time>
      </trkpt>
      <trkpt lat="44.7927" lon="0.63682">
        <ele>155.3902588</ele>
        <time>2012-05-13T09:45:16Z</time>
      </trkpt>
      <trkpt lat="44.7928" lon="0.63663">
        <ele>155.8709717</ele>
        <time>2012-05-13T09:45:22Z</time>
      </trkpt>
      <trkpt lat="44.79292" lon="0.63641">
        <ele>155.3902588</ele>
        <time>2012-05-13T09:45:29Z</time>
      </trkpt>
      <trkpt lat="44.79304" lon="0.63623">
        <ele>155.8709717</ele>
        <time>2012-05-13T09:45:35Z</time>
      </trkpt>
      <trkpt lat="44.79313" lon="0.63616">
        <ele>154.9095459</ele>
        <time>2012-05-13T09:45:39Z</time>
      </trkpt>
      <trkpt lat="44.79325" lon="0.63628">
        <ele>156.3515625</ele>
        <time>2012-05-13T09:45:45Z</time>
      </trkpt>
      <trkpt lat="44.79339" lon="0.63647">
        <ele>156.8321533</ele>
        <time>2012-05-13T09:45:52Z</time>
      </trkpt>
      <trkpt lat="44.79349" lon="0.63656">
        <ele>156.3515625</ele>
        <time>2012-05-13T09:45:57Z</time>
      </trkpt>
      <trkpt lat="44.79363" lon="0.63667">
        <ele>155.8709717</ele>
        <time>2012-05-13T09:46:03Z</time>
      </trkpt>
      <trkpt lat="44.79379" lon="0.63675">
        <ele>155.8709717</ele>
        <time>2012-05-13T09:46:09Z</time>
      </trkpt>
      <trkpt lat="44.79395" lon="0.6368">
        <ele>155.8709717</ele>
        <time>2012-05-13T09:46:15Z</time>
      </trkpt>
      <trkpt lat="44.79408" lon="0.63685">
        <ele>156.8321533</ele>
        <time>2012-05-13T09:46:20Z</time>
      </trkpt>
      <trkpt lat="44.79422" lon="0.63689">
        <ele>156.8321533</ele>
        <time>2012-05-13T09:46:25Z</time>
      </trkpt>
      <trkpt lat="44.79437" lon="0.63695">
        <ele>156.3515625</ele>
        <time>2012-05-13T09:46:30Z</time>
      </trkpt>
      <trkpt lat="44.79455" lon="0.63705">
        <ele>157.3128662</ele>
        <time>2012-05-13T09:46:37Z</time>
      </trkpt>
      <trkpt lat="44.79467" lon="0.63717">
        <ele>158.2741699</ele>
        <time>2012-05-13T09:46:42Z</time>
      </trkpt>
      <trkpt lat="44.79478" lon="0.63731">
        <ele>158.7547607</ele>
        <time>2012-05-13T09:46:47Z</time>
      </trkpt>
      <trkpt lat="44.79484" lon="0.63745">
        <ele>158.7547607</ele>
        <time>2012-05-13T09:46:51Z</time>
      </trkpt>
      <trkpt lat="44.79491" lon="0.63762">
        <ele>159.2354736</ele>
        <time>2012-05-13T09:46:56Z</time>
      </trkpt>
      <trkpt lat="44.79502" lon="0.63785">
        <ele>158.2741699</ele>
        <time>2012-05-13T09:47:03Z</time>
      </trkpt>
      <trkpt lat="44.79512" lon="0.63804">
        <ele>157.3128662</ele>
        <time>2012-05-13T09:47:09Z</time>
      </trkpt>
      <trkpt lat="44.79523" lon="0.63822">
        <ele>156.8321533</ele>
        <time>2012-05-13T09:47:15Z</time>
      </trkpt>
      <trkpt lat="44.79536" lon="0.63841">
        <ele>156.3515625</ele>
        <time>2012-05-13T09:47:21Z</time>
      </trkpt>
      <trkpt lat="44.79545" lon="0.63856">
        <ele>155.8709717</ele>
        <time>2012-05-13T09:47:26Z</time>
      </trkpt>
      <trkpt lat="44.79556" lon="0.63873">
        <ele>154.9095459</ele>
        <time>2012-05-13T09:47:32Z</time>
      </trkpt>
      <trkpt lat="44.79571" lon="0.63892">
        <ele>155.3902588</ele>
        <time>2012-05-13T09:47:39Z</time>
      </trkpt>
      <trkpt lat="44.79582" lon="0.63906">
        <ele>156.3515625</ele>
        <time>2012-05-13T09:47:44Z</time>
      </trkpt>
      <trkpt lat="44.79593" lon="0.63919">
        <ele>156.8321533</ele>
        <time>2012-05-13T09:47:49Z</time>
      </trkpt>
      <trkpt lat="44.79595" lon="0.63922">
        <ele>156.3515625</ele>
        <time>2012-05-13T09:47:50Z</time>
      </trkpt>
      <trkpt lat="44.79595" lon="0.63922">
        <ele>156.3515625</ele>
        <time>2012-05-13T09:47:50Z</time>
      </trkpt>
      <trkpt lat="44.79608" lon="0.63938">
        <ele>156.8321533</ele>
        <time>2012-05-13T09:47:56Z</time>
      </trkpt>
      <trkpt lat="44.79619" lon="0.63953">
        <ele>157.3128662</ele>
        <time>2012-05-13T09:48:02Z</time>
      </trkpt>
      <trkpt lat="44.79631" lon="0.63966">
        <ele>156.8321533</ele>
        <time>2012-05-13T09:48:08Z</time>
      </trkpt>
      <trkpt lat="44.79645" lon="0.63976">
        <ele>157.3128662</ele>
        <time>2012-05-13T09:48:14Z</time>
      </trkpt>
      <trkpt lat="44.79652" lon="0.63985">
        <ele>157.3128662</ele>
        <time>2012-05-13T09:48:18Z</time>
      </trkpt>
      <trkpt lat="44.79662" lon="0.64">
        <ele>157.3128662</ele>
        <time>2012-05-13T09:48:23Z</time>
      </trkpt>
      <trkpt lat="44.79673" lon="0.64016">
        <ele>156.8321533</ele>
        <time>2012-05-13T09:48:29Z</time>
      </trkpt>
      <trkpt lat="44.79682" lon="0.64029">
        <ele>157.7935791</ele>
        <time>2012-05-13T09:48:34Z</time>
      </trkpt>
      <trkpt lat="44.79687" lon="0.6403">
        <ele>155.3902588</ele>
        <time>2012-05-13T09:48:39Z</time>
      </trkpt>
      <trkpt lat="44.79687" lon="0.64032">
        <ele>155.3902588</ele>
        <time>2012-05-13T09:48:41Z</time>
      </trkpt>
      <trkpt lat="44.79681" lon="0.6405">
        <ele>155.3902588</ele>
        <time>2012-05-13T09:48:46Z</time>
      </trkpt>
      <trkpt lat="44.79685" lon="0.64059">
        <ele>155.8709717</ele>
        <time>2012-05-13T09:48:51Z</time>
      </trkpt>
      <trkpt lat="44.79687" lon="0.64062">
        <ele>156.3515625</ele>
        <time>2012-05-13T09:48:56Z</time>
      </trkpt>
      <trkpt lat="44.79689" lon="0.64063">
        <ele>157.3128662</ele>
        <time>2012-05-13T09:49:05Z</time>
      </trkpt>
      <trkpt lat="44.79695" lon="0.6407">
        <ele>157.7935791</ele>
        <time>2012-05-13T09:49:13Z</time>
      </trkpt>
      <trkpt lat="44.79698" lon="0.64073">
        <ele>157.3128662</ele>
        <time>2012-05-13T09:49:17Z</time>
      </trkpt>
      <trkpt lat="44.79708" lon="0.64082">
        <ele>158.2741699</ele>
        <time>2012-05-13T09:49:27Z</time>
      </trkpt>
      <trkpt lat="44.79713" lon="0.6409">
        <ele>159.7161865</ele>
        <time>2012-05-13T09:49:32Z</time>
      </trkpt>
      <trkpt lat="44.79723" lon="0.64102">
        <ele>160.1968994</ele>
        <time>2012-05-13T09:49:37Z</time>
      </trkpt>
      <trkpt lat="44.79733" lon="0.6411">
        <ele>159.7161865</ele>
        <time>2012-05-13T09:49:42Z</time>
      </trkpt>
      <trkpt lat="44.79735" lon="0.64112">
        <ele>159.2354736</ele>
        <time>2012-05-13T09:49:43Z</time>
      </trkpt>
      <trkpt lat="44.79744" lon="0.64125">
        <ele>159.2354736</ele>
        <time>2012-05-13T09:49:48Z</time>
      </trkpt>
      <trkpt lat="44.79751" lon="0.64133">
        <ele>161.1582031</ele>
        <time>2012-05-13T09:49:51Z</time>
      </trkpt>
      <trkpt lat="44.79756" lon="0.64156">
        <ele>161.1582031</ele>
        <time>2012-05-13T09:49:57Z</time>
      </trkpt>
      <trkpt lat="44.79755" lon="0.64174">
        <ele>161.1582031</ele>
        <time>2012-05-13T09:50:02Z</time>
      </trkpt>
      <trkpt lat="44.79757" lon="0.64189">
        <ele>161.1582031</ele>
        <time>2012-05-13T09:50:06Z</time>
      </trkpt>
      <trkpt lat="44.79766" lon="0.64205">
        <ele>161.1582031</ele>
        <time>2012-05-13T09:50:11Z</time>
      </trkpt>
      <trkpt lat="44.79776" lon="0.64217">
        <ele>159.7161865</ele>
        <time>2012-05-13T09:50:16Z</time>
      </trkpt>
      <trkpt lat="44.79787" lon="0.64224">
        <ele>160.6774902</ele>
        <time>2012-05-13T09:50:21Z</time>
      </trkpt>
      <trkpt lat="44.79803" lon="0.6423">
        <ele>162.6000977</ele>
        <time>2012-05-13T09:50:27Z</time>
      </trkpt>
      <trkpt lat="44.79807" lon="0.64233">
        <ele>162.6000977</ele>
        <time>2012-05-13T09:50:29Z</time>
      </trkpt>
      <trkpt lat="44.7981" lon="0.64239">
        <ele>163.0808105</ele>
        <time>2012-05-13T09:50:31Z</time>
      </trkpt>
      <trkpt lat="44.79806" lon="0.64255">
        <ele>164.0421143</ele>
        <time>2012-05-13T09:50:36Z</time>
      </trkpt>
      <trkpt lat="44.798" lon="0.64273">
        <ele>164.5227051</ele>
        <time>2012-05-13T09:50:41Z</time>
      </trkpt>
      <trkpt lat="44.79791" lon="0.643">
        <ele>165.4841309</ele>
        <time>2012-05-13T09:50:49Z</time>
      </trkpt>
      <trkpt lat="44.79788" lon="0.64316">
        <ele>165.9647217</ele>
        <time>2012-05-13T09:50:54Z</time>
      </trkpt>
      <trkpt lat="44.79797" lon="0.64323">
        <ele>165.9647217</ele>
        <time>2012-05-13T09:50:59Z</time>
      </trkpt>
      <trkpt lat="44.79813" lon="0.64324">
        <ele>165.003418</ele>
        <time>2012-05-13T09:51:05Z</time>
      </trkpt>
      <trkpt lat="44.79826" lon="0.64325">
        <ele>164.0421143</ele>
        <time>2012-05-13T09:51:10Z</time>
      </trkpt>
      <trkpt lat="44.79837" lon="0.64326">
        <ele>162.6000977</ele>
        <time>2012-05-13T09:51:15Z</time>
      </trkpt>
      <trkpt lat="44.79853" lon="0.64327">
        <ele>162.6000977</ele>
        <time>2012-05-13T09:51:21Z</time>
      </trkpt>
      <trkpt lat="44.79867" lon="0.64328">
        <ele>162.6000977</ele>
        <time>2012-05-13T09:51:27Z</time>
      </trkpt>
      <trkpt lat="44.79887" lon="0.6433">
        <ele>163.0808105</ele>
        <time>2012-05-13T09:51:35Z</time>
      </trkpt>
      <trkpt lat="44.79904" lon="0.64331">
        <ele>163.0808105</ele>
        <time>2012-05-13T09:51:42Z</time>
      </trkpt>
      <trkpt lat="44.79915" lon="0.6433">
        <ele>162.6000977</ele>
        <time>2012-05-13T09:51:46Z</time>
      </trkpt>
      <trkpt lat="44.79917" lon="0.6433">
        <ele>162.6000977</ele>
        <time>2012-05-13T09:51:47Z</time>
      </trkpt>
      <trkpt lat="44.79924" lon="0.64341">
        <ele>163.5615234</ele>
        <time>2012-05-13T09:51:52Z</time>
      </trkpt>
      <trkpt lat="44.79932" lon="0.64352">
        <ele>165.003418</ele>
        <time>2012-05-13T09:51:56Z</time>
      </trkpt>
      <trkpt lat="44.7994" lon="0.64366">
        <ele>165.4841309</ele>
        <time>2012-05-13T09:52:01Z</time>
      </trkpt>
      <trkpt lat="44.79949" lon="0.6438">
        <ele>165.4841309</ele>
        <time>2012-05-13T09:52:06Z</time>
      </trkpt>
      <trkpt lat="44.79957" lon="0.64391">
        <ele>165.4841309</ele>
        <time>2012-05-13T09:52:10Z</time>
      </trkpt>
      <trkpt lat="44.79967" lon="0.64404">
        <ele>165.4841309</ele>
        <time>2012-05-13T09:52:15Z</time>
      </trkpt>
      <trkpt lat="44.79981" lon="0.64423">
        <ele>165.4841309</ele>
        <time>2012-05-13T09:52:22Z</time>
      </trkpt>
      <trkpt lat="44.7999" lon="0.64438">
        <ele>165.4841309</ele>
        <time>2012-05-13T09:52:27Z</time>
      </trkpt>
      <trkpt lat="44.80003" lon="0.64456">
        <ele>166.4453125</ele>
        <time>2012-05-13T09:52:33Z</time>
      </trkpt>
      <trkpt lat="44.80014" lon="0.6447">
        <ele>165.4841309</ele>
        <time>2012-05-13T09:52:38Z</time>
      </trkpt>
      <trkpt lat="44.80026" lon="0.64488">
        <ele>163.5615234</ele>
        <time>2012-05-13T09:52:44Z</time>
      </trkpt>
      <trkpt lat="44.80035" lon="0.64504">
        <ele>162.1195068</ele>
        <time>2012-05-13T09:52:49Z</time>
      </trkpt>
      <trkpt lat="44.80045" lon="0.64518">
        <ele>163.5615234</ele>
        <time>2012-05-13T09:52:54Z</time>
      </trkpt>
      <trkpt lat="44.8006" lon="0.64535">
        <ele>163.5615234</ele>
        <time>2012-05-13T09:53:00Z</time>
      </trkpt>
      <trkpt lat="44.80069" lon="0.6455">
        <ele>164.0421143</ele>
        <time>2012-05-13T09:53:05Z</time>
      </trkpt>
      <trkpt lat="44.80079" lon="0.64569">
        <ele>163.5615234</ele>
        <time>2012-05-13T09:53:11Z</time>
      </trkpt>
      <trkpt lat="44.80091" lon="0.64586">
        <ele>164.0421143</ele>
        <time>2012-05-13T09:53:17Z</time>
      </trkpt>
      <trkpt lat="44.80102" lon="0.64598">
        <ele>163.0808105</ele>
        <time>2012-05-13T09:53:22Z</time>
      </trkpt>
      <trkpt lat="44.80114" lon="0.64613">
        <ele>163.0808105</ele>
        <time>2012-05-13T09:53:28Z</time>
      </trkpt>
      <trkpt lat="44.80126" lon="0.64628">
        <ele>162.1195068</ele>
        <time>2012-05-13T09:53:34Z</time>
      </trkpt>
      <trkpt lat="44.80138" lon="0.64639">
        <ele>162.1195068</ele>
        <time>2012-05-13T09:53:39Z</time>
      </trkpt>
      <trkpt lat="44.80149" lon="0.64651">
        <ele>162.6000977</ele>
        <time>2012-05-13T09:53:44Z</time>
      </trkpt>
      <trkpt lat="44.80164" lon="0.64667">
        <ele>163.5615234</ele>
        <time>2012-05-13T09:53:51Z</time>
      </trkpt>
      <trkpt lat="44.8018" lon="0.64681">
        <ele>164.5227051</ele>
        <time>2012-05-13T09:53:58Z</time>
      </trkpt>
      <trkpt lat="44.80183" lon="0.64682">
        <ele>165.003418</ele>
        <time>2012-05-13T09:53:59Z</time>
      </trkpt>
      <trkpt lat="44.80183" lon="0.64682">
        <ele>165.003418</ele>
        <time>2012-05-13T09:53:59Z</time>
      </trkpt>
      <trkpt lat="44.80189" lon="0.64672">
        <ele>165.4841309</ele>
        <time>2012-05-13T09:54:03Z</time>
      </trkpt>
      <trkpt lat="44.80201" lon="0.64647">
        <ele>165.003418</ele>
        <time>2012-05-13T09:54:11Z</time>
      </trkpt>
      <trkpt lat="44.80209" lon="0.64628">
        <ele>165.003418</ele>
        <time>2012-05-13T09:54:17Z</time>
      </trkpt>
      <trkpt lat="44.80217" lon="0.64608">
        <ele>165.4841309</ele>
        <time>2012-05-13T09:54:23Z</time>
      </trkpt>
      <trkpt lat="44.80224" lon="0.64592">
        <ele>166.4453125</ele>
        <time>2012-05-13T09:54:28Z</time>
      </trkpt>
      <trkpt lat="44.80232" lon="0.64572">
        <ele>167.8873291</ele>
        <time>2012-05-13T09:54:34Z</time>
      </trkpt>
      <trkpt lat="44.8024" lon="0.64552">
        <ele>169.3294678</ele>
        <time>2012-05-13T09:54:40Z</time>
      </trkpt>
      <trkpt lat="44.80248" lon="0.64537">
        <ele>169.8100586</ele>
        <time>2012-05-13T09:54:45Z</time>
      </trkpt>
      <trkpt lat="44.80255" lon="0.64522">
        <ele>170.7713623</ele>
        <time>2012-05-13T09:54:50Z</time>
      </trkpt>
      <trkpt lat="44.80266" lon="0.64504">
        <ele>171.732666</ele>
        <time>2012-05-13T09:54:56Z</time>
      </trkpt>
      <trkpt lat="44.80276" lon="0.64488">
        <ele>173.6552734</ele>
        <time>2012-05-13T09:55:02Z</time>
      </trkpt>
      <trkpt lat="44.80287" lon="0.64473">
        <ele>174.1358643</ele>
        <time>2012-05-13T09:55:07Z</time>
      </trkpt>
      <trkpt lat="44.80295" lon="0.64463">
        <ele>174.1358643</ele>
        <time>2012-05-13T09:55:11Z</time>
      </trkpt>
      <trkpt lat="44.80303" lon="0.64452">
        <ele>173.6552734</ele>
        <time>2012-05-13T09:55:15Z</time>
      </trkpt>
      <trkpt lat="44.80315" lon="0.64436">
        <ele>173.1746826</ele>
        <time>2012-05-13T09:55:21Z</time>
      </trkpt>
      <trkpt lat="44.80324" lon="0.6442">
        <ele>171.732666</ele>
        <time>2012-05-13T09:55:26Z</time>
      </trkpt>
      <trkpt lat="44.80335" lon="0.64398">
        <ele>170.7713623</ele>
        <time>2012-05-13T09:55:33Z</time>
      </trkpt>
      <trkpt lat="44.80342" lon="0.6438">
        <ele>170.7713623</ele>
        <time>2012-05-13T09:55:38Z</time>
      </trkpt>
      <trkpt lat="44.8035" lon="0.64359">
        <ele>170.7713623</ele>
        <time>2012-05-13T09:55:44Z</time>
      </trkpt>
      <trkpt lat="44.80357" lon="0.64343">
        <ele>170.7713623</ele>
        <time>2012-05-13T09:55:49Z</time>
      </trkpt>
      <trkpt lat="44.80364" lon="0.64325">
        <ele>171.2520752</ele>
        <time>2012-05-13T09:55:54Z</time>
      </trkpt>
      <trkpt lat="44.80371" lon="0.64308">
        <ele>171.732666</ele>
        <time>2012-05-13T09:55:59Z</time>
      </trkpt>
      <trkpt lat="44.80377" lon="0.64294">
        <ele>171.732666</ele>
        <time>2012-05-13T09:56:03Z</time>
      </trkpt>
      <trkpt lat="44.80387" lon="0.6427">
        <ele>172.6939697</ele>
        <time>2012-05-13T09:56:10Z</time>
      </trkpt>
      <trkpt lat="44.80395" lon="0.64249">
        <ele>172.2132568</ele>
        <time>2012-05-13T09:56:16Z</time>
      </trkpt>
      <trkpt lat="44.80404" lon="0.64228">
        <ele>171.2520752</ele>
        <time>2012-05-13T09:56:22Z</time>
      </trkpt>
      <trkpt lat="44.8041" lon="0.64215">
        <ele>170.7713623</ele>
        <time>2012-05-13T09:56:26Z</time>
      </trkpt>
      <trkpt lat="44.80419" lon="0.64195">
        <ele>171.2520752</ele>
        <time>2012-05-13T09:56:32Z</time>
      </trkpt>
      <trkpt lat="44.80426" lon="0.64174">
        <ele>171.732666</ele>
        <time>2012-05-13T09:56:38Z</time>
      </trkpt>
      <trkpt lat="44.80435" lon="0.64154">
        <ele>171.732666</ele>
        <time>2012-05-13T09:56:44Z</time>
      </trkpt>
      <trkpt lat="44.80442" lon="0.64136">
        <ele>171.732666</ele>
        <time>2012-05-13T09:56:49Z</time>
      </trkpt>
      <trkpt lat="44.80452" lon="0.64116">
        <ele>169.8100586</ele>
        <time>2012-05-13T09:56:55Z</time>
      </trkpt>
      <trkpt lat="44.80462" lon="0.64098">
        <ele>168.368042</ele>
        <time>2012-05-13T09:57:01Z</time>
      </trkpt>
      <trkpt lat="44.80474" lon="0.64082">
        <ele>167.4067383</ele>
        <time>2012-05-13T09:57:07Z</time>
      </trkpt>
      <trkpt lat="44.80487" lon="0.64067">
        <ele>166.4453125</ele>
        <time>2012-05-13T09:57:13Z</time>
      </trkpt>
      <trkpt lat="44.80501" lon="0.64055">
        <ele>167.4067383</ele>
        <time>2012-05-13T09:57:19Z</time>
      </trkpt>
      <trkpt lat="44.80515" lon="0.64043">
        <ele>168.368042</ele>
        <time>2012-05-13T09:57:25Z</time>
      </trkpt>
      <trkpt lat="44.8053" lon="0.64026">
        <ele>170.2906494</ele>
        <time>2012-05-13T09:57:32Z</time>
      </trkpt>
      <trkpt lat="44.80542" lon="0.6401">
        <ele>171.732666</ele>
        <time>2012-05-13T09:57:38Z</time>
      </trkpt>
      <trkpt lat="44.80552" lon="0.63993">
        <ele>172.2132568</ele>
        <time>2012-05-13T09:57:44Z</time>
      </trkpt>
      <trkpt lat="44.80563" lon="0.63971">
        <ele>171.732666</ele>
        <time>2012-05-13T09:57:51Z</time>
      </trkpt>
      <trkpt lat="44.80572" lon="0.63952">
        <ele>172.6939697</ele>
        <time>2012-05-13T09:57:57Z</time>
      </trkpt>
      <trkpt lat="44.8058" lon="0.63931">
        <ele>173.6552734</ele>
        <time>2012-05-13T09:58:03Z</time>
      </trkpt>
      <trkpt lat="44.8059" lon="0.63907">
        <ele>173.6552734</ele>
        <time>2012-05-13T09:58:10Z</time>
      </trkpt>
      <trkpt lat="44.80597" lon="0.63889">
        <ele>174.1358643</ele>
        <time>2012-05-13T09:58:15Z</time>
      </trkpt>
      <trkpt lat="44.80606" lon="0.63869">
        <ele>174.1358643</ele>
        <time>2012-05-13T09:58:21Z</time>
      </trkpt>
      <trkpt lat="44.80615" lon="0.63849">
        <ele>173.6552734</ele>
        <time>2012-05-13T09:58:27Z</time>
      </trkpt>
      <trkpt lat="44.80623" lon="0.63833">
        <ele>173.1746826</ele>
        <time>2012-05-13T09:58:32Z</time>
      </trkpt>
      <trkpt lat="44.80632" lon="0.63818">
        <ele>172.2132568</ele>
        <time>2012-05-13T09:58:37Z</time>
      </trkpt>
      <trkpt lat="44.80645" lon="0.63799">
        <ele>169.3294678</ele>
        <time>2012-05-13T09:58:44Z</time>
      </trkpt>
      <trkpt lat="44.80655" lon="0.63786">
        <ele>169.3294678</ele>
        <time>2012-05-13T09:58:49Z</time>
      </trkpt>
      <trkpt lat="44.80663" lon="0.63772">
        <ele>169.3294678</ele>
        <time>2012-05-13T09:58:54Z</time>
      </trkpt>
      <trkpt lat="44.80664" lon="0.63769">
        <ele>169.3294678</ele>
        <time>2012-05-13T09:58:55Z</time>
      </trkpt>
      <trkpt lat="44.80664" lon="0.63762">
        <ele>170.2906494</ele>
        <time>2012-05-13T09:59:00Z</time>
      </trkpt>
      <trkpt lat="44.80666" lon="0.63764">
        <ele>170.7713623</ele>
        <time>2012-05-13T09:59:08Z</time>
      </trkpt>
      <trkpt lat="44.80667" lon="0.63766">
        <ele>171.2520752</ele>
        <time>2012-05-13T09:59:13Z</time>
      </trkpt>
      <trkpt lat="44.80667" lon="0.63767">
        <ele>171.2520752</ele>
        <time>2012-05-13T09:59:18Z</time>
      </trkpt>
      <trkpt lat="44.80666" lon="0.63766">
        <ele>171.732666</ele>
        <time>2012-05-13T09:59:26Z</time>
      </trkpt>
      <trkpt lat="44.80665" lon="0.63764">
        <ele>172.2132568</ele>
        <time>2012-05-13T09:59:29Z</time>
      </trkpt>
      <trkpt lat="44.80668" lon="0.63764">
        <ele>171.2520752</ele>
        <time>2012-05-13T09:59:35Z</time>
      </trkpt>
      <trkpt lat="44.80673" lon="0.63759">
        <ele>171.2520752</ele>
        <time>2012-05-13T09:59:41Z</time>
      </trkpt>
      <trkpt lat="44.80678" lon="0.63755">
        <ele>170.7713623</ele>
        <time>2012-05-13T09:59:47Z</time>
      </trkpt>
      <trkpt lat="44.80684" lon="0.6375">
        <ele>169.8100586</ele>
        <time>2012-05-13T09:59:52Z</time>
      </trkpt>
      <trkpt lat="44.80688" lon="0.63746">
        <ele>169.8100586</ele>
        <time>2012-05-13T09:59:54Z</time>
      </trkpt>
      <trkpt lat="44.80705" lon="0.63724">
        <ele>172.6939697</ele>
        <time>2012-05-13T10:00:03Z</time>
      </trkpt>
      <trkpt lat="44.80714" lon="0.63713">
        <ele>173.6552734</ele>
        <time>2012-05-13T10:00:07Z</time>
      </trkpt>
      <trkpt lat="44.80719" lon="0.63705">
        <ele>174.6165771</ele>
        <time>2012-05-13T10:00:10Z</time>
      </trkpt>
      <trkpt lat="44.80719" lon="0.63705">
        <ele>174.6165771</ele>
        <time>2012-05-13T10:00:10Z</time>
      </trkpt>
      <trkpt lat="44.80723" lon="0.63699">
        <ele>174.6165771</ele>
        <time>2012-05-13T10:00:12Z</time>
      </trkpt>
      <trkpt lat="44.80733" lon="0.63688">
        <ele>175.09729</ele>
        <time>2012-05-13T10:00:16Z</time>
      </trkpt>
      <trkpt lat="44.80741" lon="0.63675">
        <ele>176.0585938</ele>
        <time>2012-05-13T10:00:20Z</time>
      </trkpt>
      <trkpt lat="44.80752" lon="0.63659">
        <ele>177.0200195</ele>
        <time>2012-05-13T10:00:26Z</time>
      </trkpt>
      <trkpt lat="44.80762" lon="0.63649">
        <ele>175.09729</ele>
        <time>2012-05-13T10:00:30Z</time>
      </trkpt>
      <trkpt lat="44.8077" lon="0.63636">
        <ele>173.1746826</ele>
        <time>2012-05-13T10:00:34Z</time>
      </trkpt>
      <trkpt lat="44.80772" lon="0.63633">
        <ele>172.2132568</ele>
        <time>2012-05-13T10:00:35Z</time>
      </trkpt>
      <trkpt lat="44.8079" lon="0.63612">
        <ele>168.368042</ele>
        <time>2012-05-13T10:00:42Z</time>
      </trkpt>
      <trkpt lat="44.80801" lon="0.63598">
        <ele>166.4453125</ele>
        <time>2012-05-13T10:00:47Z</time>
      </trkpt>
      <trkpt lat="44.80814" lon="0.63578">
        <ele>165.9647217</ele>
        <time>2012-05-13T10:00:53Z</time>
      </trkpt>
      <trkpt lat="44.80824" lon="0.63559">
        <ele>165.4841309</ele>
        <time>2012-05-13T10:00:58Z</time>
      </trkpt>
      <trkpt lat="44.80832" lon="0.63536">
        <ele>165.003418</ele>
        <time>2012-05-13T10:01:04Z</time>
      </trkpt>
      <trkpt lat="44.80837" lon="0.63515">
        <ele>163.0808105</ele>
        <time>2012-05-13T10:01:09Z</time>
      </trkpt>
      <trkpt lat="44.80839" lon="0.63493">
        <ele>162.1195068</ele>
        <time>2012-05-13T10:01:14Z</time>
      </trkpt>
      <trkpt lat="44.80839" lon="0.63467">
        <ele>161.1582031</ele>
        <time>2012-05-13T10:01:20Z</time>
      </trkpt>
      <trkpt lat="44.80839" lon="0.63447">
        <ele>160.6774902</ele>
        <time>2012-05-13T10:01:25Z</time>
      </trkpt>
      <trkpt lat="44.8084" lon="0.63432">
        <ele>160.1968994</ele>
        <time>2012-05-13T10:01:28Z</time>
      </trkpt>
      <trkpt lat="44.80842" lon="0.63416">
        <ele>159.2354736</ele>
        <time>2012-05-13T10:01:31Z</time>
      </trkpt>
      <trkpt lat="44.80844" lon="0.63406">
        <ele>159.2354736</ele>
        <time>2012-05-13T10:01:33Z</time>
      </trkpt>
      <trkpt lat="44.80846" lon="0.63374">
        <ele>157.7935791</ele>
        <time>2012-05-13T10:01:40Z</time>
      </trkpt>
      <trkpt lat="44.80848" lon="0.63356">
        <ele>157.7935791</ele>
        <time>2012-05-13T10:01:44Z</time>
      </trkpt>
      <trkpt lat="44.80854" lon="0.63333">
        <ele>157.3128662</ele>
        <time>2012-05-13T10:01:50Z</time>
      </trkpt>
      <trkpt lat="44.80862" lon="0.63316">
        <ele>156.3515625</ele>
        <time>2012-05-13T10:01:55Z</time>
      </trkpt>
      <trkpt lat="44.8087" lon="0.63292">
        <ele>155.3902588</ele>
        <time>2012-05-13T10:02:02Z</time>
      </trkpt>
      <trkpt lat="44.80873" lon="0.63276">
        <ele>154.9095459</ele>
        <time>2012-05-13T10:02:06Z</time>
      </trkpt>
      <trkpt lat="44.80877" lon="0.63258">
        <ele>154.9095459</ele>
        <time>2012-05-13T10:02:11Z</time>
      </trkpt>
      <trkpt lat="44.8088" lon="0.63241">
        <ele>154.9095459</ele>
        <time>2012-05-13T10:02:16Z</time>
      </trkpt>
      <trkpt lat="44.80887" lon="0.6323">
        <ele>154.9095459</ele>
        <time>2012-05-13T10:02:20Z</time>
      </trkpt>
      <trkpt lat="44.80892" lon="0.63225">
        <ele>155.3902588</ele>
        <time>2012-05-13T10:02:23Z</time>
      </trkpt>
      <trkpt lat="44.80902" lon="0.6322">
        <ele>156.8321533</ele>
        <time>2012-05-13T10:02:28Z</time>
      </trkpt>
      <trkpt lat="44.80914" lon="0.63219">
        <ele>157.3128662</ele>
        <time>2012-05-13T10:02:33Z</time>
      </trkpt>
      <trkpt lat="44.80922" lon="0.63218">
        <ele>156.8321533</ele>
        <time>2012-05-13T10:02:37Z</time>
      </trkpt>
      <trkpt lat="44.80936" lon="0.63217">
        <ele>156.8321533</ele>
        <time>2012-05-13T10:02:43Z</time>
      </trkpt>
      <trkpt lat="44.80949" lon="0.63216">
        <ele>156.3515625</ele>
        <time>2012-05-13T10:02:48Z</time>
      </trkpt>
      <trkpt lat="44.80965" lon="0.63214">
        <ele>156.3515625</ele>
        <time>2012-05-13T10:02:54Z</time>
      </trkpt>
      <trkpt lat="44.80982" lon="0.63212">
        <ele>156.3515625</ele>
        <time>2012-05-13T10:03:00Z</time>
      </trkpt>
      <trkpt lat="44.80995" lon="0.63211">
        <ele>156.8321533</ele>
        <time>2012-05-13T10:03:04Z</time>
      </trkpt>
      <trkpt lat="44.81008" lon="0.63209">
        <ele>157.7935791</ele>
        <time>2012-05-13T10:03:09Z</time>
      </trkpt>
      <trkpt lat="44.8102" lon="0.63207">
        <ele>157.7935791</ele>
        <time>2012-05-13T10:03:14Z</time>
      </trkpt>
      <trkpt lat="44.81032" lon="0.63202">
        <ele>156.8321533</ele>
        <time>2012-05-13T10:03:18Z</time>
      </trkpt>
      <trkpt lat="44.81035" lon="0.63198">
        <ele>156.3515625</ele>
        <time>2012-05-13T10:03:19Z</time>
      </trkpt>
      <trkpt lat="44.81044" lon="0.63181">
        <ele>155.3902588</ele>
        <time>2012-05-13T10:03:24Z</time>
      </trkpt>
      <trkpt lat="44.81049" lon="0.63165">
        <ele>155.3902588</ele>
        <time>2012-05-13T10:03:29Z</time>
      </trkpt>
      <trkpt lat="44.81047" lon="0.63138">
        <ele>156.3515625</ele>
        <time>2012-05-13T10:03:36Z</time>
      </trkpt>
      <trkpt lat="44.81045" lon="0.63117">
        <ele>156.8321533</ele>
        <time>2012-05-13T10:03:42Z</time>
      </trkpt>
      <trkpt lat="44.81042" lon="0.63101">
        <ele>157.3128662</ele>
        <time>2012-05-13T10:03:47Z</time>
      </trkpt>
      <trkpt lat="44.81038" lon="0.63085">
        <ele>158.2741699</ele>
        <time>2012-05-13T10:03:52Z</time>
      </trkpt>
      <trkpt lat="44.81036" lon="0.63076">
        <ele>159.2354736</ele>
        <time>2012-05-13T10:03:56Z</time>
      </trkpt>
      <trkpt lat="44.81031" lon="0.63059">
        <ele>160.1968994</ele>
        <time>2012-05-13T10:04:01Z</time>
      </trkpt>
      <trkpt lat="44.81027" lon="0.63044">
        <ele>161.1582031</ele>
        <time>2012-05-13T10:04:05Z</time>
      </trkpt>
      <trkpt lat="44.81024" lon="0.6302">
        <ele>161.638916</ele>
        <time>2012-05-13T10:04:12Z</time>
      </trkpt>
      <trkpt lat="44.81025" lon="0.63012">
        <ele>162.1195068</ele>
        <time>2012-05-13T10:04:14Z</time>
      </trkpt>
      <trkpt lat="44.81027" lon="0.62994">
        <ele>161.1582031</ele>
        <time>2012-05-13T10:04:20Z</time>
      </trkpt>
      <trkpt lat="44.81028" lon="0.6299">
        <ele>160.6774902</ele>
        <time>2012-05-13T10:04:21Z</time>
      </trkpt>
      <trkpt lat="44.81034" lon="0.62966">
        <ele>158.2741699</ele>
        <time>2012-05-13T10:04:28Z</time>
      </trkpt>
      <trkpt lat="44.81041" lon="0.6295">
        <ele>157.7935791</ele>
        <time>2012-05-13T10:04:33Z</time>
      </trkpt>
      <trkpt lat="44.81047" lon="0.62933">
        <ele>157.7935791</ele>
        <time>2012-05-13T10:04:38Z</time>
      </trkpt>
      <trkpt lat="44.81054" lon="0.62916">
        <ele>156.3515625</ele>
        <time>2012-05-13T10:04:43Z</time>
      </trkpt>
      <trkpt lat="44.81063" lon="0.62894">
        <ele>158.2741699</ele>
        <time>2012-05-13T10:04:49Z</time>
      </trkpt>
      <trkpt lat="44.81067" lon="0.62877">
        <ele>158.7547607</ele>
        <time>2012-05-13T10:04:54Z</time>
      </trkpt>
      <trkpt lat="44.81071" lon="0.62854">
        <ele>160.1968994</ele>
        <time>2012-05-13T10:05:00Z</time>
      </trkpt>
      <trkpt lat="44.81071" lon="0.6285">
        <ele>159.7161865</ele>
        <time>2012-05-13T10:05:01Z</time>
      </trkpt>
      <trkpt lat="44.81062" lon="0.62838">
        <ele>160.1968994</ele>
        <time>2012-05-13T10:05:06Z</time>
      </trkpt>
      <trkpt lat="44.81051" lon="0.6283">
        <ele>160.1968994</ele>
        <time>2012-05-13T10:05:10Z</time>
      </trkpt>
      <trkpt lat="44.81046" lon="0.62827">
        <ele>160.1968994</ele>
        <time>2012-05-13T10:05:12Z</time>
      </trkpt>
      <trkpt lat="44.81034" lon="0.62818">
        <ele>158.7547607</ele>
        <time>2012-05-13T10:05:17Z</time>
      </trkpt>
      <trkpt lat="44.8102" lon="0.62803">
        <ele>155.8709717</ele>
        <time>2012-05-13T10:05:22Z</time>
      </trkpt>
      <trkpt lat="44.81003" lon="0.62793">
        <ele>151.5449219</ele>
        <time>2012-05-13T10:05:27Z</time>
      </trkpt>
      <trkpt lat="44.80992" lon="0.62784">
        <ele>150.1030273</ele>
        <time>2012-05-13T10:05:31Z</time>
      </trkpt>
      <trkpt lat="44.80992" lon="0.62784">
        <ele>150.1030273</ele>
        <time>2012-05-13T10:05:31Z</time>
      </trkpt>
      <trkpt lat="44.80989" lon="0.62783">
        <ele>149.1416016</ele>
        <time>2012-05-13T10:05:32Z</time>
      </trkpt>
      <trkpt lat="44.80978" lon="0.62775">
        <ele>145.2963867</ele>
        <time>2012-05-13T10:05:36Z</time>
      </trkpt>
      <trkpt lat="44.80965" lon="0.62767">
        <ele>140.970459</ele>
        <time>2012-05-13T10:05:40Z</time>
      </trkpt>
      <trkpt lat="44.80949" lon="0.62758">
        <ele>138.5672607</ele>
        <time>2012-05-13T10:05:45Z</time>
      </trkpt>
      <trkpt lat="44.80947" lon="0.62756">
        <ele>137.605835</ele>
        <time>2012-05-13T10:05:46Z</time>
      </trkpt>
      <trkpt lat="44.80934" lon="0.62751">
        <ele>136.1639404</ele>
        <time>2012-05-13T10:05:51Z</time>
      </trkpt>
      <trkpt lat="44.80921" lon="0.62747">
        <ele>135.6831055</ele>
        <time>2012-05-13T10:05:55Z</time>
      </trkpt>
      <trkpt lat="44.80905" lon="0.62741">
        <ele>134.7219238</ele>
        <time>2012-05-13T10:05:59Z</time>
      </trkpt>
      <trkpt lat="44.80902" lon="0.6274">
        <ele>134.7219238</ele>
        <time>2012-05-13T10:06:00Z</time>
      </trkpt>
      <trkpt lat="44.80885" lon="0.62732">
        <ele>132.7993164</ele>
        <time>2012-05-13T10:06:05Z</time>
      </trkpt>
      <trkpt lat="44.80867" lon="0.62722">
        <ele>129.9152832</ele>
        <time>2012-05-13T10:06:10Z</time>
      </trkpt>
      <trkpt lat="44.8085" lon="0.62714">
        <ele>127.5119629</ele>
        <time>2012-05-13T10:06:14Z</time>
      </trkpt>
      <trkpt lat="44.80837" lon="0.62711">
        <ele>126.5506592</ele>
        <time>2012-05-13T10:06:18Z</time>
      </trkpt>
      <trkpt lat="44.80819" lon="0.62717">
        <ele>124.1473389</ele>
        <time>2012-05-13T10:06:23Z</time>
      </trkpt>
      <trkpt lat="44.80805" lon="0.62719">
        <ele>122.2247314</ele>
        <time>2012-05-13T10:06:27Z</time>
      </trkpt>
      <trkpt lat="44.80792" lon="0.62714">
        <ele>120.302124</ele>
        <time>2012-05-13T10:06:31Z</time>
      </trkpt>
      <trkpt lat="44.80782" lon="0.62701">
        <ele>119.3408203</ele>
        <time>2012-05-13T10:06:36Z</time>
      </trkpt>
      <trkpt lat="44.80781" lon="0.62698">
        <ele>119.3408203</ele>
        <time>2012-05-13T10:06:40Z</time>
      </trkpt>
      <trkpt lat="44.80782" lon="0.62697">
        <ele>119.8214111</ele>
        <time>2012-05-13T10:06:49Z</time>
      </trkpt>
      <trkpt lat="44.80788" lon="0.62696">
        <ele>116.4567871</ele>
        <time>2012-05-13T10:06:58Z</time>
      </trkpt>
      <trkpt lat="44.80785" lon="0.62692">
        <ele>116.9375</ele>
        <time>2012-05-13T10:07:03Z</time>
      </trkpt>
      <trkpt lat="44.80785" lon="0.62675">
        <ele>115.0148926</ele>
        <time>2012-05-13T10:07:09Z</time>
      </trkpt>
      <trkpt lat="44.80779" lon="0.62647">
        <ele>112.6115723</ele>
        <time>2012-05-13T10:07:15Z</time>
      </trkpt>
      <trkpt lat="44.80775" lon="0.62627">
        <ele>111.1695557</ele>
        <time>2012-05-13T10:07:20Z</time>
      </trkpt>
      <trkpt lat="44.80773" lon="0.62618">
        <ele>111.6502686</ele>
        <time>2012-05-13T10:07:22Z</time>
      </trkpt>
      <trkpt lat="44.80771" lon="0.62598">
        <ele>113.572998</ele>
        <time>2012-05-13T10:07:28Z</time>
      </trkpt>
      <trkpt lat="44.80767" lon="0.62579">
        <ele>113.0922852</ele>
        <time>2012-05-13T10:07:33Z</time>
      </trkpt>
      <trkpt lat="44.80766" lon="0.62576">
        <ele>113.0922852</ele>
        <time>2012-05-13T10:07:34Z</time>
      </trkpt>
      <trkpt lat="44.80766" lon="0.62557">
        <ele>113.572998</ele>
        <time>2012-05-13T10:07:39Z</time>
      </trkpt>
      <trkpt lat="44.8076" lon="0.6254">
        <ele>111.6502686</ele>
        <time>2012-05-13T10:07:45Z</time>
      </trkpt>
      <trkpt lat="44.80754" lon="0.62519">
        <ele>112.6115723</ele>
        <time>2012-05-13T10:07:52Z</time>
      </trkpt>
      <trkpt lat="44.80743" lon="0.62502">
        <ele>112.6115723</ele>
        <time>2012-05-13T10:07:58Z</time>
      </trkpt>
      <trkpt lat="44.80732" lon="0.62491">
        <ele>114.0535889</ele>
        <time>2012-05-13T10:08:03Z</time>
      </trkpt>
      <trkpt lat="44.80716" lon="0.62477">
        <ele>115.9761963</ele>
        <time>2012-05-13T10:08:09Z</time>
      </trkpt>
      <trkpt lat="44.80705" lon="0.62475">
        <ele>116.4567871</ele>
        <time>2012-05-13T10:08:13Z</time>
      </trkpt>
      <trkpt lat="44.80694" lon="0.62479">
        <ele>115.9761963</ele>
        <time>2012-05-13T10:08:17Z</time>
      </trkpt>
      <trkpt lat="44.80679" lon="0.62487">
        <ele>115.0148926</ele>
        <time>2012-05-13T10:08:22Z</time>
      </trkpt>
      <trkpt lat="44.80676" lon="0.62488">
        <ele>114.0535889</ele>
        <time>2012-05-13T10:08:23Z</time>
      </trkpt>
      <trkpt lat="44.80671" lon="0.62478">
        <ele>110.208252</ele>
        <time>2012-05-13T10:08:26Z</time>
      </trkpt>
      <trkpt lat="44.80664" lon="0.62458">
        <ele>103.9597168</ele>
        <time>2012-05-13T10:08:31Z</time>
      </trkpt>
      <trkpt lat="44.8065" lon="0.62436">
        <ele>98.6724854</ele>
        <time>2012-05-13T10:08:37Z</time>
      </trkpt>
      <trkpt lat="44.80639" lon="0.62415">
        <ele>94.8271484</ele>
        <time>2012-05-13T10:08:42Z</time>
      </trkpt>
      <trkpt lat="44.80629" lon="0.62397">
        <ele>89.539917</ele>
        <time>2012-05-13T10:08:47Z</time>
      </trkpt>
      <trkpt lat="44.80622" lon="0.62382">
        <ele>86.6560059</ele>
        <time>2012-05-13T10:08:51Z</time>
      </trkpt>
      <trkpt lat="44.80615" lon="0.62372">
        <ele>86.175293</ele>
        <time>2012-05-13T10:08:54Z</time>
      </trkpt>
      <trkpt lat="44.80604" lon="0.62359">
        <ele>84.7333984</ele>
        <time>2012-05-13T10:08:59Z</time>
      </trkpt>
      <trkpt lat="44.80596" lon="0.62352">
        <ele>83.7719727</ele>
        <time>2012-05-13T10:09:03Z</time>
      </trkpt>
      <trkpt lat="44.80592" lon="0.62345">
        <ele>87.1365967</ele>
        <time>2012-05-13T10:09:07Z</time>
      </trkpt>
      <trkpt lat="44.8059" lon="0.62338">
        <ele>91.4625244</ele>
        <time>2012-05-13T10:09:13Z</time>
      </trkpt>
      <trkpt lat="44.80583" lon="0.62329">
        <ele>93.3851318</ele>
        <time>2012-05-13T10:09:19Z</time>
      </trkpt>
      <trkpt lat="44.80581" lon="0.62313">
        <ele>95.3077393</ele>
        <time>2012-05-13T10:09:24Z</time>
      </trkpt>
      <trkpt lat="44.80585" lon="0.62307">
        <ele>92.904541</ele>
        <time>2012-05-13T10:09:28Z</time>
      </trkpt>
      <trkpt lat="44.80588" lon="0.62298">
        <ele>93.3851318</ele>
        <time>2012-05-13T10:09:33Z</time>
      </trkpt>
      <trkpt lat="44.80592" lon="0.62292">
        <ele>91.4625244</ele>
        <time>2012-05-13T10:09:36Z</time>
      </trkpt>
      <trkpt lat="44.80597" lon="0.62283">
        <ele>92.4239502</ele>
        <time>2012-05-13T10:09:40Z</time>
      </trkpt>
      <trkpt lat="44.80606" lon="0.62265">
        <ele>91.4625244</ele>
        <time>2012-05-13T10:09:46Z</time>
      </trkpt>
      <trkpt lat="44.80608" lon="0.6226">
        <ele>92.4239502</ele>
        <time>2012-05-13T10:09:48Z</time>
      </trkpt>
      <trkpt lat="44.80614" lon="0.62245">
        <ele>88.5787354</ele>
        <time>2012-05-13T10:09:52Z</time>
      </trkpt>
      <trkpt lat="44.80625" lon="0.62222">
        <ele>86.6560059</ele>
        <time>2012-05-13T10:10:00Z</time>
      </trkpt>
      <trkpt lat="44.80626" lon="0.62218">
        <ele>87.1365967</ele>
        <time>2012-05-13T10:10:01Z</time>
      </trkpt>
      <trkpt lat="44.80632" lon="0.62208">
        <ele>85.6945801</ele>
        <time>2012-05-13T10:10:04Z</time>
      </trkpt>
      <trkpt lat="44.80637" lon="0.62186">
        <ele>85.2139893</ele>
        <time>2012-05-13T10:10:10Z</time>
      </trkpt>
      <trkpt lat="44.80638" lon="0.62183">
        <ele>84.7333984</ele>
        <time>2012-05-13T10:10:11Z</time>
      </trkpt>
      <trkpt lat="44.80643" lon="0.62163">
        <ele>87.1365967</ele>
        <time>2012-05-13T10:10:16Z</time>
      </trkpt>
      <trkpt lat="44.80646" lon="0.62154">
        <ele>87.6171875</ele>
        <time>2012-05-13T10:10:19Z</time>
      </trkpt>
      <trkpt lat="44.80652" lon="0.62135">
        <ele>87.1365967</ele>
        <time>2012-05-13T10:10:25Z</time>
      </trkpt>
      <trkpt lat="44.80653" lon="0.62127">
        <ele>90.0206299</ele>
        <time>2012-05-13T10:10:27Z</time>
      </trkpt>
      <trkpt lat="44.80654" lon="0.62114">
        <ele>92.4239502</ele>
        <time>2012-05-13T10:10:30Z</time>
      </trkpt>
      <trkpt lat="44.80654" lon="0.62093">
        <ele>94.8271484</ele>
        <time>2012-05-13T10:10:36Z</time>
      </trkpt>
      <trkpt lat="44.80654" lon="0.62074">
        <ele>97.7111816</ele>
        <time>2012-05-13T10:10:41Z</time>
      </trkpt>
      <trkpt lat="44.80657" lon="0.62056">
        <ele>103.4790039</ele>
        <time>2012-05-13T10:10:46Z</time>
      </trkpt>
      <trkpt lat="44.80657" lon="0.6203">
        <ele>106.3630371</ele>
        <time>2012-05-13T10:10:53Z</time>
      </trkpt>
      <trkpt lat="44.80666" lon="0.62015">
        <ele>104.9210205</ele>
        <time>2012-05-13T10:10:59Z</time>
      </trkpt>
      <trkpt lat="44.80666" lon="0.61999">
        <ele>103.9597168</ele>
        <time>2012-05-13T10:11:03Z</time>
      </trkpt>
      <trkpt lat="44.80666" lon="0.61995">
        <ele>102.998291</ele>
        <time>2012-05-13T10:11:04Z</time>
      </trkpt>
      <trkpt lat="44.80666" lon="0.61983">
        <ele>102.998291</ele>
        <time>2012-05-13T10:11:07Z</time>
      </trkpt>
      <trkpt lat="44.80667" lon="0.61963">
        <ele>102.5177002</ele>
        <time>2012-05-13T10:11:12Z</time>
      </trkpt>
      <trkpt lat="44.80667" lon="0.61956">
        <ele>101.0756836</ele>
        <time>2012-05-13T10:11:15Z</time>
      </trkpt>
      <trkpt lat="44.80667" lon="0.61952">
        <ele>101.5563965</ele>
        <time>2012-05-13T10:11:18Z</time>
      </trkpt>
      <trkpt lat="44.80667" lon="0.6195">
        <ele>100.5950928</ele>
        <time>2012-05-13T10:11:19Z</time>
      </trkpt>
      <trkpt lat="44.80673" lon="0.61936">
        <ele>99.1530762</ele>
        <time>2012-05-13T10:11:24Z</time>
      </trkpt>
      <trkpt lat="44.80678" lon="0.61923">
        <ele>95.7884521</ele>
        <time>2012-05-13T10:11:28Z</time>
      </trkpt>
      <trkpt lat="44.8068" lon="0.61903">
        <ele>93.3851318</ele>
        <time>2012-05-13T10:11:33Z</time>
      </trkpt>
      <trkpt lat="44.80686" lon="0.61887">
        <ele>90.0206299</ele>
        <time>2012-05-13T10:11:38Z</time>
      </trkpt>
      <trkpt lat="44.80691" lon="0.61868">
        <ele>86.6560059</ele>
        <time>2012-05-13T10:11:43Z</time>
      </trkpt>
      <trkpt lat="44.80698" lon="0.61847">
        <ele>84.2526855</ele>
        <time>2012-05-13T10:11:48Z</time>
      </trkpt>
      <trkpt lat="44.80698" lon="0.61822">
        <ele>84.7333984</ele>
        <time>2012-05-13T10:11:54Z</time>
      </trkpt>
      <trkpt lat="44.80695" lon="0.61802">
        <ele>82.3300781</ele>
        <time>2012-05-13T10:11:59Z</time>
      </trkpt>
      <trkpt lat="44.80693" lon="0.61795">
        <ele>81.8493652</ele>
        <time>2012-05-13T10:12:01Z</time>
      </trkpt>
      <trkpt lat="44.80692" lon="0.61776">
        <ele>81.3687744</ele>
        <time>2012-05-13T10:12:06Z</time>
      </trkpt>
      <trkpt lat="44.80691" lon="0.61749">
        <ele>81.8493652</ele>
        <time>2012-05-13T10:12:13Z</time>
      </trkpt>
      <trkpt lat="44.80687" lon="0.6173">
        <ele>84.7333984</ele>
        <time>2012-05-13T10:12:19Z</time>
      </trkpt>
      <trkpt lat="44.80685" lon="0.61721">
        <ele>88.0980225</ele>
        <time>2012-05-13T10:12:22Z</time>
      </trkpt>
      <trkpt lat="44.80679" lon="0.61714">
        <ele>90.9819336</ele>
        <time>2012-05-13T10:12:26Z</time>
      </trkpt>
      <trkpt lat="44.80663" lon="0.61702">
        <ele>96.7498779</ele>
        <time>2012-05-13T10:12:33Z</time>
      </trkpt>
      <trkpt lat="44.8065" lon="0.61701">
        <ele>99.6337891</ele>
        <time>2012-05-13T10:12:38Z</time>
      </trkpt>
      <trkpt lat="44.80638" lon="0.61695">
        <ele>99.6337891</ele>
        <time>2012-05-13T10:12:42Z</time>
      </trkpt>
      <trkpt lat="44.80636" lon="0.61694">
        <ele>99.6337891</ele>
        <time>2012-05-13T10:12:43Z</time>
      </trkpt>
      <trkpt lat="44.8062" lon="0.61679">
        <ele>99.1530762</ele>
        <time>2012-05-13T10:12:50Z</time>
      </trkpt>
      <trkpt lat="44.8061" lon="0.61662">
        <ele>100.114502</ele>
        <time>2012-05-13T10:12:55Z</time>
      </trkpt>
      <trkpt lat="44.80602" lon="0.61641">
        <ele>99.6337891</ele>
        <time>2012-05-13T10:13:01Z</time>
      </trkpt>
      <trkpt lat="44.80597" lon="0.61631">
        <ele>101.0756836</ele>
        <time>2012-05-13T10:13:05Z</time>
      </trkpt>
      <trkpt lat="44.80584" lon="0.61618">
        <ele>104.4404297</ele>
        <time>2012-05-13T10:13:11Z</time>
      </trkpt>
      <trkpt lat="44.80573" lon="0.61617">
        <ele>106.8436279</ele>
        <time>2012-05-13T10:13:16Z</time>
      </trkpt>
      <trkpt lat="44.80562" lon="0.61618">
        <ele>106.3630371</ele>
        <time>2012-05-13T10:13:20Z</time>
      </trkpt>
      <trkpt lat="44.80551" lon="0.61618">
        <ele>106.8436279</ele>
        <time>2012-05-13T10:13:24Z</time>
      </trkpt>
      <trkpt lat="44.80548" lon="0.61619">
        <ele>107.3243408</ele>
        <time>2012-05-13T10:13:25Z</time>
      </trkpt>
      <trkpt lat="44.80534" lon="0.61618">
        <ele>107.3243408</ele>
        <time>2012-05-13T10:13:31Z</time>
      </trkpt>
      <trkpt lat="44.80527" lon="0.61618">
        <ele>107.3243408</ele>
        <time>2012-05-13T10:13:34Z</time>
      </trkpt>
      <trkpt lat="44.80512" lon="0.61617">
        <ele>109.2469482</ele>
        <time>2012-05-13T10:13:40Z</time>
      </trkpt>
      <trkpt lat="44.80507" lon="0.61615">
        <ele>107.8050537</ele>
        <time>2012-05-13T10:13:42Z</time>
      </trkpt>
      <trkpt lat="44.80491" lon="0.61612">
        <ele>109.2469482</ele>
        <time>2012-05-13T10:13:48Z</time>
      </trkpt>
      <trkpt lat="44.80471" lon="0.61614">
        <ele>113.0922852</ele>
        <time>2012-05-13T10:13:55Z</time>
      </trkpt>
      <trkpt lat="44.80455" lon="0.61611">
        <ele>116.9375</ele>
        <time>2012-05-13T10:14:01Z</time>
      </trkpt>
      <trkpt lat="44.80438" lon="0.6161">
        <ele>118.8601074</ele>
        <time>2012-05-13T10:14:07Z</time>
      </trkpt>
      <trkpt lat="44.80427" lon="0.61609">
        <ele>119.8214111</ele>
        <time>2012-05-13T10:14:11Z</time>
      </trkpt>
      <trkpt lat="44.80417" lon="0.61611">
        <ele>120.302124</ele>
        <time>2012-05-13T10:14:14Z</time>
      </trkpt>
      <trkpt lat="44.80402" lon="0.61607">
        <ele>120.302124</ele>
        <time>2012-05-13T10:14:19Z</time>
      </trkpt>
      <trkpt lat="44.8039" lon="0.61601">
        <ele>116.9375</ele>
        <time>2012-05-13T10:14:23Z</time>
      </trkpt>
      <trkpt lat="44.80375" lon="0.61599">
        <ele>115.9761963</ele>
        <time>2012-05-13T10:14:28Z</time>
      </trkpt>
      <trkpt lat="44.80361" lon="0.61595">
        <ele>115.4956055</ele>
        <time>2012-05-13T10:14:33Z</time>
      </trkpt>
      <trkpt lat="44.80346" lon="0.61592">
        <ele>114.0535889</ele>
        <time>2012-05-13T10:14:38Z</time>
      </trkpt>
      <trkpt lat="44.80332" lon="0.61591">
        <ele>114.5341797</ele>
        <time>2012-05-13T10:14:43Z</time>
      </trkpt>
      <trkpt lat="44.80317" lon="0.61588">
        <ele>114.0535889</ele>
        <time>2012-05-13T10:14:48Z</time>
      </trkpt>
      <trkpt lat="44.80301" lon="0.61579">
        <ele>114.0535889</ele>
        <time>2012-05-13T10:14:54Z</time>
      </trkpt>
      <trkpt lat="44.80291" lon="0.61565">
        <ele>113.572998</ele>
        <time>2012-05-13T10:14:59Z</time>
      </trkpt>
      <trkpt lat="44.80288" lon="0.61559">
        <ele>113.572998</ele>
        <time>2012-05-13T10:15:01Z</time>
      </trkpt>
      <trkpt lat="44.80284" lon="0.61538">
        <ele>115.0148926</ele>
        <time>2012-05-13T10:15:07Z</time>
      </trkpt>
      <trkpt lat="44.80288" lon="0.61523">
        <ele>115.4956055</ele>
        <time>2012-05-13T10:15:12Z</time>
      </trkpt>
      <trkpt lat="44.80295" lon="0.61508">
        <ele>116.4567871</ele>
        <time>2012-05-13T10:15:17Z</time>
      </trkpt>
      <trkpt lat="44.80303" lon="0.61497">
        <ele>116.9375</ele>
        <time>2012-05-13T10:15:21Z</time>
      </trkpt>
      <trkpt lat="44.80313" lon="0.61485">
        <ele>119.3408203</ele>
        <time>2012-05-13T10:15:26Z</time>
      </trkpt>
      <trkpt lat="44.80327" lon="0.61472">
        <ele>120.302124</ele>
        <time>2012-05-13T10:15:32Z</time>
      </trkpt>
      <trkpt lat="44.80338" lon="0.61464">
        <ele>122.2247314</ele>
        <time>2012-05-13T10:15:36Z</time>
      </trkpt>
      <trkpt lat="44.8035" lon="0.61455">
        <ele>122.7054443</ele>
        <time>2012-05-13T10:15:41Z</time>
      </trkpt>
      <trkpt lat="44.80363" lon="0.61445">
        <ele>123.1861572</ele>
        <time>2012-05-13T10:15:46Z</time>
      </trkpt>
      <trkpt lat="44.80374" lon="0.61434">
        <ele>125.5893555</ele>
        <time>2012-05-13T10:15:51Z</time>
      </trkpt>
      <trkpt lat="44.80385" lon="0.61425">
        <ele>125.1087646</ele>
        <time>2012-05-13T10:15:55Z</time>
      </trkpt>
      <trkpt lat="44.80399" lon="0.61412">
        <ele>125.1087646</ele>
        <time>2012-05-13T10:16:01Z</time>
      </trkpt>
      <trkpt lat="44.80411" lon="0.614">
        <ele>123.666748</ele>
        <time>2012-05-13T10:16:06Z</time>
      </trkpt>
      <trkpt lat="44.80422" lon="0.61385">
        <ele>124.1473389</ele>
        <time>2012-05-13T10:16:11Z</time>
      </trkpt>
      <trkpt lat="44.80429" lon="0.61364">
        <ele>122.7054443</ele>
        <time>2012-05-13T10:16:17Z</time>
      </trkpt>
      <trkpt lat="44.80437" lon="0.61345">
        <ele>121.2635498</ele>
        <time>2012-05-13T10:16:22Z</time>
      </trkpt>
      <trkpt lat="44.80447" lon="0.61322">
        <ele>121.7441406</ele>
        <time>2012-05-13T10:16:28Z</time>
      </trkpt>
      <trkpt lat="44.80455" lon="0.61309">
        <ele>121.7441406</ele>
        <time>2012-05-13T10:16:32Z</time>
      </trkpt>
      <trkpt lat="44.80467" lon="0.6129">
        <ele>123.1861572</ele>
        <time>2012-05-13T10:16:38Z</time>
      </trkpt>
      <trkpt lat="44.80476" lon="0.61273">
        <ele>124.6280518</ele>
        <time>2012-05-13T10:16:43Z</time>
      </trkpt>
      <trkpt lat="44.80478" lon="0.6127">
        <ele>124.1473389</ele>
        <time>2012-05-13T10:16:44Z</time>
      </trkpt>
      <trkpt lat="44.80478" lon="0.6127">
        <ele>124.1473389</ele>
        <time>2012-05-13T10:16:44Z</time>
      </trkpt>
      <trkpt lat="44.80488" lon="0.61255">
        <ele>125.5893555</ele>
        <time>2012-05-13T10:16:49Z</time>
      </trkpt>
      <trkpt lat="44.80498" lon="0.61239">
        <ele>125.5893555</ele>
        <time>2012-05-13T10:16:54Z</time>
      </trkpt>
      <trkpt lat="44.80504" lon="0.61216">
        <ele>125.5893555</ele>
        <time>2012-05-13T10:17:00Z</time>
      </trkpt>
      <trkpt lat="44.80502" lon="0.61189">
        <ele>127.9925537</ele>
        <time>2012-05-13T10:17:07Z</time>
      </trkpt>
      <trkpt lat="44.80492" lon="0.61166">
        <ele>133.760498</ele>
        <time>2012-05-13T10:17:13Z</time>
      </trkpt>
      <trkpt lat="44.80485" lon="0.6115">
        <ele>137.1252441</ele>
        <time>2012-05-13T10:17:17Z</time>
      </trkpt>
      <trkpt lat="44.80478" lon="0.61132">
        <ele>140.970459</ele>
        <time>2012-05-13T10:17:22Z</time>
      </trkpt>
      <trkpt lat="44.8047" lon="0.61108">
        <ele>143.3736572</ele>
        <time>2012-05-13T10:17:29Z</time>
      </trkpt>
      <trkpt lat="44.80469" lon="0.61106">
        <ele>143.8543701</ele>
        <time>2012-05-13T10:17:30Z</time>
      </trkpt>
      <trkpt lat="44.80467" lon="0.61104">
        <ele>143.3736572</ele>
        <time>2012-05-13T10:17:34Z</time>
      </trkpt>
      <trkpt lat="44.80466" lon="0.611">
        <ele>143.3736572</ele>
        <time>2012-05-13T10:17:37Z</time>
      </trkpt>
      <trkpt lat="44.8047" lon="0.61098">
        <ele>143.8543701</ele>
        <time>2012-05-13T10:19:22Z</time>
      </trkpt>
      <trkpt lat="44.8047" lon="0.61097">
        <ele>143.8543701</ele>
        <time>2012-05-13T10:19:23Z</time>
      </trkpt>
      <trkpt lat="44.80467" lon="0.61088">
        <ele>143.8543701</ele>
        <time>2012-05-13T10:19:28Z</time>
      </trkpt>
      <trkpt lat="44.80464" lon="0.61082">
        <ele>144.3352051</ele>
        <time>2012-05-13T10:19:33Z</time>
      </trkpt>
      <trkpt lat="44.80462" lon="0.61074">
        <ele>145.2963867</ele>
        <time>2012-05-13T10:19:38Z</time>
      </trkpt>
      <trkpt lat="44.80459" lon="0.61061">
        <ele>144.8157959</ele>
        <time>2012-05-13T10:19:45Z</time>
      </trkpt>
      <trkpt lat="44.80455" lon="0.61052">
        <ele>146.7384033</ele>
        <time>2012-05-13T10:19:51Z</time>
      </trkpt>
      <trkpt lat="44.80452" lon="0.61042">
        <ele>146.2578125</ele>
        <time>2012-05-13T10:19:58Z</time>
      </trkpt>
      <trkpt lat="44.80451" lon="0.61036">
        <ele>146.2578125</ele>
        <time>2012-05-13T10:20:01Z</time>
      </trkpt>
      <trkpt lat="44.80445" lon="0.61023">
        <ele>145.7770996</ele>
        <time>2012-05-13T10:20:07Z</time>
      </trkpt>
      <trkpt lat="44.8044" lon="0.6101">
        <ele>144.8157959</ele>
        <time>2012-05-13T10:20:11Z</time>
      </trkpt>
      <trkpt lat="44.80434" lon="0.60996">
        <ele>143.8543701</ele>
        <time>2012-05-13T10:20:16Z</time>
      </trkpt>
      <trkpt lat="44.80428" lon="0.6098">
        <ele>142.8930664</ele>
        <time>2012-05-13T10:20:21Z</time>
      </trkpt>
      <trkpt lat="44.80424" lon="0.6097">
        <ele>141.9317627</ele>
        <time>2012-05-13T10:20:24Z</time>
      </trkpt>
      <trkpt lat="44.80419" lon="0.60948">
        <ele>139.5284424</ele>
        <time>2012-05-13T10:20:30Z</time>
      </trkpt>
      <trkpt lat="44.80415" lon="0.60927">
        <ele>137.1252441</ele>
        <time>2012-05-13T10:20:36Z</time>
      </trkpt>
      <trkpt lat="44.80413" lon="0.60906">
        <ele>136.6446533</ele>
        <time>2012-05-13T10:20:41Z</time>
      </trkpt>
      <trkpt lat="44.8041" lon="0.60887">
        <ele>136.1639404</ele>
        <time>2012-05-13T10:20:46Z</time>
      </trkpt>
      <trkpt lat="44.80407" lon="0.60873">
        <ele>134.7219238</ele>
        <time>2012-05-13T10:20:50Z</time>
      </trkpt>
      <trkpt lat="44.80402" lon="0.60855">
        <ele>133.760498</ele>
        <time>2012-05-13T10:20:55Z</time>
      </trkpt>
      <trkpt lat="44.80397" lon="0.6083">
        <ele>132.7993164</ele>
        <time>2012-05-13T10:21:02Z</time>
      </trkpt>
      <trkpt lat="44.80394" lon="0.60811">
        <ele>133.2799072</ele>
        <time>2012-05-13T10:21:07Z</time>
      </trkpt>
      <trkpt lat="44.80392" lon="0.60795">
        <ele>133.760498</ele>
        <time>2012-05-13T10:21:12Z</time>
      </trkpt>
      <trkpt lat="44.80389" lon="0.60776">
        <ele>131.3572998</ele>
        <time>2012-05-13T10:21:17Z</time>
      </trkpt>
      <trkpt lat="44.80387" lon="0.60757">
        <ele>130.876709</ele>
        <time>2012-05-13T10:21:22Z</time>
      </trkpt>
      <trkpt lat="44.80384" lon="0.60735">
        <ele>131.3572998</ele>
        <time>2012-05-13T10:21:28Z</time>
      </trkpt>
      <trkpt lat="44.80381" lon="0.6072">
        <ele>131.8378906</ele>
        <time>2012-05-13T10:21:32Z</time>
      </trkpt>
      <trkpt lat="44.80379" lon="0.607">
        <ele>131.3572998</ele>
        <time>2012-05-13T10:21:37Z</time>
      </trkpt>
      <trkpt lat="44.80376" lon="0.60681">
        <ele>130.876709</ele>
        <time>2012-05-13T10:21:42Z</time>
      </trkpt>
      <trkpt lat="44.80372" lon="0.60657">
        <ele>130.3959961</ele>
        <time>2012-05-13T10:21:48Z</time>
      </trkpt>
      <trkpt lat="44.80368" lon="0.60638">
        <ele>130.3959961</ele>
        <time>2012-05-13T10:21:53Z</time>
      </trkpt>
      <trkpt lat="44.80363" lon="0.60611">
        <ele>129.9152832</ele>
        <time>2012-05-13T10:22:00Z</time>
      </trkpt>
      <trkpt lat="44.80359" lon="0.60588">
        <ele>129.4346924</ele>
        <time>2012-05-13T10:22:06Z</time>
      </trkpt>
      <trkpt lat="44.80356" lon="0.60569">
        <ele>128.9541016</ele>
        <time>2012-05-13T10:22:11Z</time>
      </trkpt>
      <trkpt lat="44.80351" lon="0.60546">
        <ele>129.4346924</ele>
        <time>2012-05-13T10:22:17Z</time>
      </trkpt>
      <trkpt lat="44.80348" lon="0.6053">
        <ele>130.3959961</ele>
        <time>2012-05-13T10:22:21Z</time>
      </trkpt>
      <trkpt lat="44.80345" lon="0.60512">
        <ele>129.9152832</ele>
        <time>2012-05-13T10:22:26Z</time>
      </trkpt>
      <trkpt lat="44.80341" lon="0.60486">
        <ele>127.9925537</ele>
        <time>2012-05-13T10:22:33Z</time>
      </trkpt>
      <trkpt lat="44.80338" lon="0.60468">
        <ele>127.5119629</ele>
        <time>2012-05-13T10:22:38Z</time>
      </trkpt>
      <trkpt lat="44.80334" lon="0.60442">
        <ele>127.5119629</ele>
        <time>2012-05-13T10:22:45Z</time>
      </trkpt>
      <trkpt lat="44.8033" lon="0.60424">
        <ele>128.4733887</ele>
        <time>2012-05-13T10:22:50Z</time>
      </trkpt>
      <trkpt lat="44.80328" lon="0.60406">
        <ele>127.0313721</ele>
        <time>2012-05-13T10:22:55Z</time>
      </trkpt>
      <trkpt lat="44.80328" lon="0.60403">
        <ele>127.0313721</ele>
        <time>2012-05-13T10:22:56Z</time>
      </trkpt>
      <trkpt lat="44.80326" lon="0.60389">
        <ele>127.5119629</ele>
        <time>2012-05-13T10:23:00Z</time>
      </trkpt>
      <trkpt lat="44.80324" lon="0.6037">
        <ele>127.0313721</ele>
        <time>2012-05-13T10:23:06Z</time>
      </trkpt>
      <trkpt lat="44.80321" lon="0.60355">
        <ele>127.5119629</ele>
        <time>2012-05-13T10:23:11Z</time>
      </trkpt>
      <trkpt lat="44.80317" lon="0.60337">
        <ele>127.9925537</ele>
        <time>2012-05-13T10:23:16Z</time>
      </trkpt>
      <trkpt lat="44.80312" lon="0.60311">
        <ele>129.9152832</ele>
        <time>2012-05-13T10:23:23Z</time>
      </trkpt>
      <trkpt lat="44.80307" lon="0.60282">
        <ele>132.7993164</ele>
        <time>2012-05-13T10:23:31Z</time>
      </trkpt>
      <trkpt lat="44.80304" lon="0.60258">
        <ele>131.8378906</ele>
        <time>2012-05-13T10:23:38Z</time>
      </trkpt>
      <trkpt lat="44.803" lon="0.60235">
        <ele>132.7993164</ele>
        <time>2012-05-13T10:23:45Z</time>
      </trkpt>
      <trkpt lat="44.80296" lon="0.60216">
        <ele>133.760498</ele>
        <time>2012-05-13T10:23:51Z</time>
      </trkpt>
      <trkpt lat="44.80293" lon="0.60199">
        <ele>133.760498</ele>
        <time>2012-05-13T10:23:56Z</time>
      </trkpt>
      <trkpt lat="44.8029" lon="0.60177">
        <ele>133.2799072</ele>
        <time>2012-05-13T10:24:02Z</time>
      </trkpt>
      <trkpt lat="44.80287" lon="0.60159">
        <ele>133.760498</ele>
        <time>2012-05-13T10:24:07Z</time>
      </trkpt>
      <trkpt lat="44.80283" lon="0.60137">
        <ele>135.6831055</ele>
        <time>2012-05-13T10:24:13Z</time>
      </trkpt>
      <trkpt lat="44.8028" lon="0.60118">
        <ele>136.6446533</ele>
        <time>2012-05-13T10:24:18Z</time>
      </trkpt>
      <trkpt lat="44.80278" lon="0.60102">
        <ele>137.605835</ele>
        <time>2012-05-13T10:24:23Z</time>
      </trkpt>
      <trkpt lat="44.80276" lon="0.60083">
        <ele>138.0865479</ele>
        <time>2012-05-13T10:24:28Z</time>
      </trkpt>
      <trkpt lat="44.80275" lon="0.60072">
        <ele>137.605835</ele>
        <time>2012-05-13T10:24:31Z</time>
      </trkpt>
      <trkpt lat="44.80274" lon="0.60063">
        <ele>137.1252441</ele>
        <time>2012-05-13T10:24:34Z</time>
      </trkpt>
      <trkpt lat="44.80274" lon="0.60058">
        <ele>137.1252441</ele>
        <time>2012-05-13T10:24:36Z</time>
      </trkpt>
    </trkseg>
  </trk>
</gpx>